GFSSW_850_spd_000.txt.gz
Wind_Speed
3 3 2 2 1 1 4 6 8 9 8 8 11 13 17 20 19 18 15 10 9 8 8 9 6 5 9 8 7 1 5 8 7 4 6 7 3 6 3 4 3 2 3 6 9
4 4 2 2 3 5 9 11 12 12 11 9 12 13 17 18 19 16 15 13 11 13 10 7 9 6 9 7 5 2 6 7 4 3 4 4 5 3 4 5 5 7 8 10 10
7 6 5 7 9 12 14 16 16 16 14 12 11 14 11 8 8 13 12 11 12 12 12 13 10 10 12 9 7 6 9 3 4 3 6 5 1 2 4 5 4 9 12 11 11
10 10 11 13 15 17 19 20 19 19 16 13 10 6 3 2 4 8 8 9 8 6 9 6 5 10 11 8 5 9 6 3 5 5 2 3 3 3 5 3 4 10 12 12 12
14 14 15 16 18 20 20 20 20 19 19 18 14 12 13 14 9 8 9 10 11 9 5 5 5 7 5 5 6 6 4 4 3 2 5 1 2 3 5 5 7 9 11 11 11
17 16 15 16 18 20 22 21 18 17 17 15 13 12 10 17 10 8 8 11 10 9 10 7 4 7 7 4 2 5 4 4 4 5 2 8 7 4 5 8 11 12 13 13 12
18 17 15 15 18 20 21 20 22 21 17 17 18 18 18 9 7 9 9 9 10 9 8 8 7 2 2 6 4 2 3 4 4 5 3 12 9 8 4 10 12 15 15 14 13
18 18 16 16 18 18 19 19 21 19 15 14 12 10 9 8 10 8 6 6 9 10 11 11 4 8 4 5 2 2 3 3 5 9 1 8 9 5 7 10 13 16 18 18 18
16 17 17 15 15 16 16 16 15 14 9 6 4 6 6 6 7 10 9 5 6 8 7 8 7 6 3 2 3 4 5 6 6 4 8 4 15 5 7 14 18 18 18 20 19
12 15 14 14 14 18 20 16 11 11 7 8 7 4 8 7 6 5 5 7 2 1 1 6 3 3 7 5 4 7 6 6 9 6 9 17 21 18 15 16 22 20 20 20 21
8 11 13 12 12 12 10 8 6 7 16 9 7 8 6 3 13 10 4 5 4 4 4 4 3 7 8 6 3 4 6 12 8 4 13 14 22 21 20 14 14 14 14 16 20
5 7 9 9 8 7 5 3 5 12 11 12 14 8 11 9 2 16 8 3 5 4 4 4 6 5 2 3 5 8 14 11 4 4 13 16 23 15 5 6 6 5 4 6 10
7 4 7 7 7 4 2 11 11 8 4 5 9 9 6 6 7 13 13 4 4 3 4 3 4 3 4 4 9 10 10 12 16 22 10 13 7 4 5 4 3 3 3 4 3
10 4 4 6 5 10 10 8 5 4 2 4 3 5 8 1 3 12 11 3 1 3 4 2 3 4 5 6 9 9 5 11 17 15 7 9 6 5 3 7 5 6 6 9 8
9 7 3 7 9 11 10 6 4 3 2 2 3 2 7 5 5 8 10 2 3 3 3 5 4 6 4 6 6 5 13 16 12 9 9 6 5 2 3 3 4 5 6 7 10
8 9 4 5 10 9 9 4 3 2 2 3 1 3 1 6 4 9 8 5 2 2 1 3 1 2 5 8 3 10 13 11 4 2 4 4 4 3 2 4 6 5 9 9 10
6 9 7 3 6 8 8 4 2 2 0 3 2 1 3 4 4 7 6 10 6 3 5 4 2 2 4 7 2 11 10 4 3 3 6 4 9 9 6 4 6 9 10 9 12
3 9 10 5 5 7 10 3 4 1 1 1 1 3 1 5 3 4 2 4 8 5 2 5 2 3 5 4 7 4 5 3 5 5 11 14 7 0 3 6 8 7 7 9 12
2 5 13 6 3 6 2 1 2 1 2 1 2 2 3 1 4 2 4 2 5 9 6 5 2 2 2 5 4 2 2 3 5 1 5 5 8 16 7 4 4 7 10 11 17
4 2 13 6 4 6 2 3 2 1 1 1 0 2 0 3 1 2 1 2 2 2 4 3 6 2 2 3 4 4 2 3 3 5 6 7 16 10 6 9 9 13 13 14 21
5 3 11 3 4 4 3 3 4 4 1 2 2 2 2 1 2 0 1 4 2 1 3 3 2 4 8 2 13 6 4 4 4 4 4 7 7 6 12 16 13 13 16 22 27
2 2 8 2 1 3 3 3 2 3 4 2 3 2 0 1 2 1 1 1 1 1 2 3 4 5 13 13 6 8 7 5 3 5 7 6 17 20 18 10 8 17 27 28 28
2 2 8 4 2 3 3 4 4 1 4 1 1 2 1 2 3 2 1 1 2 2 3 2 1 7 9 3 2 3 4 6 9 4 17 9 12 5 11 18 34 31 31 32 30
2 1 7 10 6 6 5 3 3 5 3 4 3 1 0 2 2 4 4 1 2 11 9 6 7 11 12 17 15 19 23 23 17 8 19 21 38 33 32 29 30 34 32 30 27
6 3 2 2 5 7 4 2 3 2 2 1 2 3 2 2 5 2 4 10 9 5 4 5 9 15 21 20 18 22 29 30 25 27 17 37 31 32 31 30 37 36 29 27 26
2 1 3 3 2 4 2 3 4 3 2 2 2 3 2 4 7 14 10 10 9 4 4 4 7 4 14 21 20 23 29 32 28 30 31 33 35 32 40 33 29 29 30 26 34
3 5 3 1 2 2 3 6 5 2 3 4 5 4 6 11 8 13 17 20 22 18 15 6 3 3 6 7 5 10 24 22 17 15 16 21 26 23 23 24 21 23 28 35 39

GFSSW_850_spd_003.txt.gz
Wind_Speed
3 4 4 3 2 4 6 8 10 10 11 10 11 13 14 15 16 14 11 8 7 4 7 6 3 2 1 3 2 6 5 7 4 2 5 4 4 4 1 1 1 1 3 4 10
2 3 2 3 5 8 11 13 14 12 11 12 13 14 15 13 11 14 11 7 6 4 7 8 6 2 4 4 2 10 5 7 5 3 6 1 6 3 6 5 5 3 3 6 8
3 4 6 9 11 14 17 18 17 13 12 13 13 14 9 6 4 13 8 6 6 6 5 4 3 5 4 6 5 9 10 1 4 8 9 10 6 4 10 9 1 7 7 9 10
8 10 12 14 17 19 20 20 18 16 13 12 12 6 3 3 3 8 7 7 5 4 5 1 2 3 6 5 4 8 6 6 7 6 8 8 9 9 8 9 5 5 7 10 10
12 12 14 17 19 20 21 20 17 16 14 14 11 9 7 10 9 8 10 10 10 7 5 4 4 4 5 3 4 5 4 2 1 2 4 6 8 9 12 4 4 5 7 9 10
14 14 16 18 19 20 20 19 17 17 16 15 14 9 4 11 7 7 8 9 8 6 8 7 6 7 3 5 6 2 1 0 3 2 5 9 13 7 12 7 9 10 12 13 13
15 15 14 16 17 17 16 17 18 17 15 13 12 12 12 8 7 7 7 7 7 7 9 6 4 5 2 3 2 1 10 5 4 4 9 11 18 10 7 9 12 15 15 16 16
16 16 15 15 15 15 16 17 17 14 12 10 6 4 8 5 6 7 6 6 6 6 6 7 2 3 3 2 3 6 7 7 6 4 3 8 13 5 9 11 14 14 16 18 19
15 16 15 15 14 13 15 14 11 8 6 7 4 1 6 3 3 6 7 5 4 4 5 5 3 1 7 7 10 4 9 7 8 2 7 7 17 11 9 13 17 17 17 18 19
13 14 15 13 13 13 12 10 9 7 8 8 4 7 6 4 4 7 4 5 5 6 6 4 6 8 7 11 8 10 11 11 12 7 10 16 19 15 18 17 17 17 17 17 17
11 12 12 13 15 15 12 6 5 5 11 10 7 9 5 2 5 7 8 6 5 4 5 4 5 8 10 8 5 7 11 14 12 7 12 13 20 15 10 6 5 7 7 10 12
8 10 10 10 8 6 4 3 3 8 9 9 8 7 5 4 3 12 10 4 4 6 7 7 7 7 7 5 9 12 13 11 11 14 17 17 18 10 6 5 3 2 3 0 3
4 8 9 8 5 3 1 6 12 5 3 5 5 7 3 4 4 10 11 5 5 3 5 5 7 4 6 6 14 14 10 16 18 19 17 13 12 6 6 7 6 6 5 3 2
7 3 8 8 3 5 4 8 5 2 4 3 1 3 5 2 1 7 8 4 2 5 6 5 2 5 6 5 11 12 10 15 18 17 9 12 7 3 3 7 6 4 4 5 6
9 4 5 9 3 6 8 4 2 2 3 3 3 1 4 3 5 6 7 1 4 4 5 5 3 5 4 7 9 9 16 16 15 12 11 3 6 4 5 2 2 2 5 6 8
9 7 4 5 7 7 8 3 1 4 2 4 1 1 3 4 4 4 6 3 1 3 3 3 1 3 5 9 5 14 19 20 1 6 6 6 3 11 5 2 2 4 6 7 10
9 10 5 4 6 8 6 1 4 4 2 4 1 1 1 4 2 5 4 9 6 4 0 5 4 3 5 12 3 14 13 5 3 5 8 4 7 13 7 4 3 5 7 7 10
5 11 8 5 5 8 6 4 5 4 1 3 0 1 2 7 3 4 3 2 9 9 7 5 3 2 7 5 7 8 8 3 5 6 13 17 8 5 1 4 5 4 7 9 9
3 7 10 5 4 9 5 4 3 1 3 1 2 4 3 1 5 4 5 4 6 11 7 5 1 3 0 5 6 3 5 5 6 9 6 8 12 16 13 1 1 9 11 12 16
2 2 8 4 5 7 1 2 1 3 1 2 3 3 3 3 3 4 4 4 3 7 8 4 7 2 1 7 9 8 7 5 4 5 11 10 16 11 6 8 6 11 11 16 20
3 2 7 3 5 2 1 3 6 5 3 5 2 1 3 4 5 4 3 4 3 5 6 6 2 6 13 5 14 7 9 4 5 7 6 10 7 11 22 23 17 13 17 23 23
1 2 8 3 2 0 2 3 2 5 3 3 3 4 4 4 4 3 4 5 4 8 7 5 5 7 15 14 4 6 9 10 8 8 9 15 18 20 14 7 10 19 24 23 23
2 4 8 1 2 2 6 6 5 2 4 2 2 4 3 4 3 2 2 2 6 5 8 8 2 7 9 5 5 7 9 12 13 11 19 10 13 8 23 32 34 28 34 30 27
2 2 4 5 4 6 7 5 5 3 4 3 2 1 1 3 0 4 6 2 3 10 10 6 8 10 11 18 19 20 24 26 20 10 23 21 36 31 27 27 33 35 30 26 27
3 2 1 2 3 4 2 1 5 3 1 2 2 2 2 2 6 4 4 10 8 6 4 6 11 15 19 22 22 23 26 31 26 26 22 33 30 32 29 27 28 30 27 26 34
2 2 2 4 3 2 2 1 2 3 2 2 5 2 4 5 6 13 13 11 9 5 8 5 5 8 17 23 21 21 25 30 27 28 29 30 33 24 32 28 29 25 27 38 41
2 2 1 3 2 3 3 4 3 0 1 4 5 5 6 12 12 15 18 20 21 18 17 11 3 2 7 14 9 11 18 17 16 20 23 20 23 24 21 19 25 35 39 38 36

GFSSW_850_spd_006.txt.gz
Wind_Speed
6 6 5 5 4 5 7 9 10 10 9 9 11 12 9 7 9 11 9 9 6 2 5 9 4 6 9 2 7 11 6 8 8 10 6 6 7 7 2 5 3 7 10 11 12
4 4 5 4 5 9 11 13 14 13 12 11 11 10 7 5 8 9 9 8 5 5 12 16 3 4 3 3 7 9 7 14 8 7 11 5 3 8 4 8 10 5 1 4 7
1 3 4 7 10 12 14 15 16 14 13 14 12 8 6 6 3 11 7 6 5 6 9 7 8 3 8 6 11 17 13 4 6 10 9 12 10 4 7 9 14 5 9 4 5
5 6 8 11 14 16 17 16 14 13 13 13 12 2 3 4 4 7 8 8 6 7 11 10 5 6 8 7 4 9 7 7 9 5 6 8 11 9 10 9 5 2 2 5 7
9 10 12 15 16 17 17 16 14 12 11 11 8 5 1 8 9 6 10 10 7 6 7 4 7 10 7 4 3 6 3 2 2 2 3 7 11 7 9 11 2 5 5 8 9
11 13 14 16 17 17 15 15 14 14 13 11 6 1 4 7 4 5 7 6 7 7 8 9 8 6 5 7 8 4 4 2 2 3 7 8 14 12 11 7 4 7 10 10 11
13 13 13 14 16 15 14 13 13 13 11 7 5 6 7 5 5 5 4 6 5 7 9 8 5 6 5 1 4 4 9 12 9 2 9 9 16 16 8 9 8 11 13 13 15
13 14 13 14 13 12 14 14 12 10 9 9 4 2 4 3 4 7 6 4 5 6 6 6 2 1 4 2 6 12 7 7 5 3 2 5 13 8 7 11 12 13 15 17 18
13 14 13 11 11 12 13 11 8 5 4 5 1 5 6 4 3 6 5 6 6 4 6 5 5 4 5 10 9 2 10 11 8 5 2 6 15 16 19 15 17 18 17 18 22
11 13 12 10 9 10 9 8 8 6 2 1 2 2 3 2 3 6 7 8 7 8 9 5 7 8 9 10 9 10 10 11 12 9 9 12 15 14 20 20 18 15 17 18 12
9 10 9 11 11 10 9 3 3 2 6 9 7 6 5 2 3 9 10 8 5 8 5 7 7 8 8 8 9 10 13 15 15 8 16 16 17 15 6 9 9 9 9 8 6
7 8 9 10 9 4 2 5 5 3 4 4 4 5 3 4 5 12 13 5 5 6 7 7 5 6 6 6 9 15 14 12 12 17 15 18 19 14 8 7 6 5 7 8 6
6 9 8 7 3 1 1 1 6 3 5 2 1 4 3 5 3 11 12 8 5 4 5 5 7 6 6 6 10 14 8 13 17 18 15 12 12 10 6 13 8 6 5 5 4
3 7 8 6 2 2 2 5 3 5 4 5 3 2 5 3 0 5 8 5 3 5 6 5 3 5 8 6 10 10 13 16 17 14 9 15 7 5 11 11 10 8 6 4 5
8 4 6 9 2 3 4 3 3 4 2 2 4 2 3 5 8 4 6 3 5 7 4 4 5 7 10 6 9 10 16 19 20 14 10 4 5 11 7 8 11 11 7 5 5
9 6 6 4 4 5 7 2 2 4 1 4 1 2 4 4 4 5 4 2 2 4 4 3 1 2 7 11 13 12 17 20 4 0 3 6 2 10 6 4 5 4 6 8 7
11 7 3 6 6 6 5 0 4 2 1 5 2 2 2 4 2 4 4 10 9 6 4 6 7 5 4 12 10 15 13 4 4 2 4 14 10 11 16 0 3 7 9 5 6
7 8 8 4 4 7 5 3 3 5 3 3 2 1 3 7 5 5 8 3 14 13 10 6 3 2 6 4 6 14 7 2 4 4 10 18 6 7 4 5 6 3 3 13 8
6 9 11 5 4 8 3 2 3 6 4 6 2 5 7 3 3 4 5 6 7 12 7 6 2 7 3 3 5 6 4 6 5 9 4 5 13 14 6 7 10 11 14 6 11
4 2 10 5 6 5 3 4 2 4 4 3 3 3 5 6 5 5 5 6 4 7 9 4 7 9 2 9 13 7 7 3 1 3 6 8 15 10 13 17 21 17 14 18 16
4 3 8 5 4 4 1 3 4 4 5 6 5 2 3 5 5 5 4 8 8 9 12 6 2 8 13 2 11 3 6 6 8 5 4 6 6 11 22 24 12 19 25 26 19
2 0 7 3 2 4 2 2 1 4 2 4 4 6 5 5 5 5 4 6 7 10 7 6 4 5 18 17 3 5 8 8 3 8 9 12 14 17 13 9 34 29 21 22 18
4 5 8 4 2 2 5 4 4 1 4 3 3 4 3 4 3 4 5 4 7 7 7 9 3 5 8 5 3 12 19 18 16 2 8 7 10 12 26 27 29 26 23 24 18
3 3 4 3 2 6 5 4 3 4 3 2 2 1 2 4 2 5 7 3 2 6 3 2 6 6 8 15 18 19 22 24 20 12 17 15 28 21 20 20 20 18 22 23 24
3 3 2 2 2 5 3 1 4 2 1 2 1 2 3 3 6 4 5 9 12 2 2 3 6 11 17 19 20 23 25 24 23 21 19 24 22 23 19 18 17 21 23 28 29
6 3 2 3 2 1 2 1 2 4 3 3 3 4 4 5 3 11 12 11 8 13 5 4 4 3 7 19 20 19 22 25 25 22 21 20 21 16 24 21 23 28 31 28 22
3 3 3 1 2 1 2 2 1 4 3 3 7 9 6 8 10 12 16 19 21 17 15 14 3 2 8 9 11 11 14 16 13 17 17 16 21 18 15 18 23 31 28 18 24

GFSSW_850_spd_009.txt.gz
Wind_Speed
8 8 7 8 7 6 7 10 11 11 11 13 13 12 10 10 10 11 11 9 4 7 12 14 7 5 8 12 11 14 4 4 6 7 4 2 5 5 5 2 3 9 16 18 17
6 5 5 5 5 7 11 13 14 13 13 13 11 8 8 9 10 10 10 8 6 9 11 11 14 18 2 6 12 12 5 5 6 7 5 12 10 3 4 9 5 18 19 18 12
2 2 4 5 8 11 14 15 14 14 14 14 9 7 7 9 4 12 8 7 9 14 14 14 13 14 4 7 8 8 4 5 11 14 11 11 11 7 1 2 12 13 19 15 14
2 3 6 9 12 14 16 16 14 13 13 14 8 4 7 7 4 7 10 11 11 11 15 18 17 11 4 3 7 6 11 10 6 6 5 4 7 8 7 1 7 8 14 14 10
7 9 11 13 15 16 16 14 12 10 11 11 6 4 4 8 9 8 9 11 12 12 11 18 14 11 5 6 9 5 4 2 5 8 8 6 10 10 10 9 5 6 7 8 9
10 12 14 16 16 15 14 13 11 9 8 7 3 4 4 3 4 7 9 9 10 14 9 8 8 9 9 4 3 3 7 4 6 8 6 6 9 12 17 12 10 9 8 9 9
13 14 15 16 15 15 15 15 14 11 8 5 4 8 7 3 5 7 4 8 6 9 9 5 4 9 5 1 2 8 5 7 9 11 4 3 8 5 21 20 13 13 15 15 15
14 15 14 14 13 12 13 12 11 8 5 3 2 4 3 4 5 6 6 2 6 5 5 5 4 7 4 7 3 4 1 2 8 9 6 6 8 6 14 19 19 19 19 20 21
13 14 13 11 11 12 11 9 8 7 3 2 4 4 3 3 5 3 7 8 9 9 11 10 7 6 1 2 4 7 4 6 8 5 2 2 6 12 21 15 25 25 24 24 24
12 12 12 11 10 11 9 7 9 6 2 4 6 4 1 2 1 8 7 7 11 11 15 11 7 1 5 7 3 6 6 6 4 5 8 8 7 8 25 21 7 5 15 18 14
10 10 10 11 9 7 5 2 3 1 2 7 8 7 7 2 6 6 10 8 11 13 3 3 6 3 3 3 2 5 6 5 5 10 11 6 10 12 9 18 20 20 20 17 15
8 8 9 9 8 4 3 2 3 1 1 3 4 5 3 5 6 16 13 9 6 5 4 7 4 3 5 8 7 8 5 6 4 11 7 11 16 10 9 10 18 18 15 14 12
8 8 8 6 3 1 4 1 4 3 2 3 1 1 2 6 3 8 14 9 5 6 7 3 3 5 6 6 8 6 5 6 7 10 10 5 9 7 4 17 15 11 10 8 7
7 10 9 6 2 2 5 1 3 6 3 4 5 1 2 3 1 4 12 4 4 3 5 2 4 5 7 3 5 4 8 9 11 7 3 5 4 5 6 7 8 13 17 15 12
5 7 10 9 5 5 1 0 3 4 4 1 3 1 0 5 9 2 8 2 4 5 3 3 2 4 4 4 5 7 6 13 14 8 2 7 3 5 5 4 6 13 17 14 11
7 6 8 9 5 3 3 3 2 5 1 3 1 2 2 5 2 9 3 6 4 4 3 5 4 3 1 7 6 7 7 11 5 3 3 6 4 5 3 3 5 11 14 13 6
8 6 4 6 4 6 5 1 4 5 2 3 3 3 3 4 3 3 4 13 6 6 5 5 5 3 3 5 7 11 7 4 6 4 4 12 6 8 8 5 10 8 6 3 2
9 9 9 3 5 7 5 4 2 3 6 2 2 4 3 4 1 4 5 4 9 7 3 5 5 6 7 3 4 6 3 4 2 2 5 8 3 4 10 23 17 7 4 13 15
9 12 12 5 6 8 3 4 5 4 5 6 3 3 3 2 2 3 5 5 5 7 5 6 4 8 4 1 3 7 4 3 1 3 3 4 7 15 3 13 19 16 15 12 9
5 2 10 6 8 3 4 1 4 7 8 4 4 5 5 6 7 5 5 6 2 9 12 4 5 5 7 4 5 4 1 5 3 2 4 4 5 6 10 16 18 8 20 14 11
4 3 7 7 3 2 3 3 5 5 7 6 6 5 6 4 5 4 5 5 9 8 15 5 3 7 7 1 3 2 3 2 2 1 3 3 5 5 17 17 10 28 19 16 13
4 3 4 4 3 3 3 4 2 3 4 2 6 6 5 6 5 6 4 4 6 9 3 4 2 3 10 16 10 5 6 5 2 5 4 4 10 15 11 14 30 25 15 17 18
6 6 8 5 3 2 4 4 9 7 7 5 3 5 3 2 3 5 3 5 5 3 3 2 3 3 8 6 7 5 14 13 9 1 9 3 8 9 22 21 10 16 21 22 24
3 3 4 4 4 7 5 5 4 4 4 3 3 3 4 6 6 4 4 4 4 2 7 5 2 5 5 5 6 10 18 20 12 3 8 11 22 17 18 6 13 19 21 21 16
4 2 2 2 6 10 8 4 6 4 2 2 2 3 4 3 5 4 6 6 14 5 7 7 5 6 8 7 10 16 20 21 16 16 13 24 19 17 8 7 12 17 20 17 16
3 3 4 4 8 8 4 5 6 6 5 4 3 7 6 3 2 4 5 4 4 3 5 2 5 1 6 12 11 8 21 21 20 15 12 13 18 7 14 22 24 23 23 22 22
5 5 3 2 3 4 2 3 5 6 2 3 5 3 4 1 4 6 9 13 16 9 4 5 3 2 12 3 5 7 13 4 6 12 11 7 4 19 18 24 25 26 17 16 25

GFSSW_850_spd_012.txt.gz
Wind_Speed
8 9 8 8 8 8 8 11 11 12 10 11 11 10 11 9 10 10 9 8 9 12 15 14 10 14 7 6 3 5 5 3 1 3 3 9 4 6 4 6 4 6 7 8 23
6 7 7 7 7 8 10 14 13 12 12 11 11 7 10 8 15 12 9 11 12 16 19 25 22 17 4 8 10 9 4 2 3 5 1 4 6 1 2 11 10 13 13 19 17
2 2 4 5 7 9 13 14 15 13 12 13 8 6 8 4 7 9 9 10 14 17 20 21 19 8 6 8 4 4 3 3 2 4 4 4 6 3 4 4 20 23 21 17 13
3 4 5 7 10 14 15 15 14 12 14 11 6 7 8 7 3 6 11 16 17 14 15 19 19 10 6 5 4 5 2 3 1 2 2 2 5 5 2 5 8 14 14 18 17
7 9 11 13 15 16 17 15 12 12 11 6 3 5 7 9 9 10 10 15 13 15 16 14 19 10 5 2 4 2 1 2 4 6 6 4 4 5 9 7 12 18 20 19 16
12 14 16 18 17 15 14 13 12 10 7 3 3 5 3 4 6 9 10 11 10 10 15 9 12 14 4 4 3 4 5 6 10 10 9 5 5 2 12 8 16 19 23 21 20
16 17 17 17 16 15 14 13 13 14 10 6 5 7 5 2 6 9 5 4 7 9 12 10 10 11 9 5 5 5 4 7 13 6 4 4 3 5 8 8 20 24 21 21 20
15 16 16 15 15 15 15 15 13 11 7 3 4 5 2 5 5 6 10 2 5 5 8 7 8 10 4 7 6 3 4 3 7 5 4 2 7 7 10 11 25 25 23 21 20
15 16 14 13 13 14 14 12 10 8 3 1 3 3 1 2 7 7 10 12 5 5 6 11 11 3 4 4 5 6 3 4 7 8 3 1 7 10 18 8 25 26 25 23 23
14 14 13 13 12 11 11 8 7 4 1 5 6 1 2 4 5 8 13 10 8 14 13 3 2 3 5 5 0 5 5 5 1 6 5 5 7 9 17 3 19 26 22 18 20
12 12 12 12 10 9 7 3 0 2 5 4 7 6 4 2 5 11 12 7 7 7 3 4 6 1 4 3 2 1 3 3 4 4 8 5 9 14 4 14 18 20 24 19 13
10 10 11 10 9 6 5 4 4 2 3 5 6 7 4 7 3 12 14 3 4 3 5 6 3 2 5 4 3 6 3 4 6 6 3 9 10 7 9 7 21 24 23 21 19
8 8 8 8 5 3 6 3 7 2 0 1 2 3 5 5 3 9 13 5 2 5 4 5 2 3 5 5 7 3 2 4 6 7 3 6 7 6 4 10 14 14 17 15 12
9 9 8 6 4 2 3 4 3 4 4 2 2 1 3 1 2 7 10 4 5 3 2 1 2 3 6 3 4 5 4 4 6 4 2 4 3 3 3 3 3 8 11 11 10
8 10 9 8 5 5 2 2 3 1 4 2 1 1 2 3 2 7 7 2 2 4 5 4 1 4 3 3 2 7 7 8 5 4 3 9 3 5 3 4 0 9 10 12 10
6 9 11 10 7 4 3 2 1 5 1 2 1 0 1 2 3 6 16 5 4 4 2 3 2 3 1 4 1 6 6 4 3 3 3 4 1 4 5 4 5 6 9 10 8
7 6 8 8 8 6 6 2 5 5 1 2 1 3 3 3 4 5 5 10 5 5 6 6 4 4 3 5 7 8 6 4 5 5 3 6 5 2 1 5 6 6 2 2 7
9 7 5 7 7 7 5 4 5 3 3 1 1 2 3 3 2 5 3 4 7 5 3 5 6 6 5 2 2 4 4 4 1 1 5 7 3 3 7 18 20 10 6 12 6
10 11 7 5 9 6 2 5 5 3 3 4 4 3 3 5 3 5 4 3 5 7 4 5 4 5 4 5 3 4 4 1 3 2 3 4 6 6 10 5 14 11 23 10 7
6 9 8 6 9 3 5 3 2 2 4 4 3 4 3 5 4 4 3 5 2 7 1 3 4 1 6 6 3 2 1 4 4 2 3 5 5 6 8 14 18 17 13 15 16
4 3 5 6 3 3 4 3 3 2 4 4 4 4 4 3 4 3 3 3 4 6 9 3 3 7 4 3 1 5 4 4 0 4 3 2 5 5 12 11 9 11 12 10 8
3 4 3 4 3 3 2 2 4 1 5 5 5 4 3 4 4 3 2 2 0 2 2 3 3 3 5 9 4 1 4 5 3 5 3 4 10 13 6 19 8 9 11 13 8
4 4 6 4 3 2 2 4 7 3 6 4 3 3 3 3 3 3 3 2 2 1 2 1 2 3 7 6 7 4 6 3 3 2 6 3 5 7 28 23 13 16 19 15 10
3 3 4 7 3 6 4 2 3 5 5 5 2 5 4 4 5 2 4 2 2 4 5 5 3 6 5 4 3 9 14 9 4 2 5 15 17 22 9 7 12 17 16 15 20
4 2 2 2 6 6 4 3 4 2 2 3 4 3 4 2 4 2 3 4 7 2 2 4 5 4 6 8 5 16 17 17 11 14 6 15 12 13 3 2 9 14 14 19 23
4 3 3 4 3 5 5 2 3 3 3 2 5 4 6 3 4 3 0 1 5 3 2 3 4 2 9 7 8 18 15 13 13 14 11 10 13 2 12 13 14 20 27 27 20
8 6 3 3 2 4 2 2 2 6 4 7 6 3 4 1 5 5 7 8 12 5 4 3 3 2 6 4 5 10 7 5 6 7 8 7 5 5 9 12 17 31 29 29 21

GFSSW_850_spd_015.txt.gz
Wind_Speed
9 8 9 7 8 7 8 10 11 11 12 9 9 8 7 7 9 8 10 10 14 18 18 14 6 6 8 6 4 4 5 2 1 2 3 5 3 6 8 8 1 1 3 7 23
6 6 7 7 8 8 10 13 13 12 11 11 9 8 4 6 12 12 13 16 18 17 18 18 12 12 9 8 5 7 5 5 1 3 2 3 4 2 4 5 2 5 6 20 24
3 4 6 7 8 11 14 14 14 12 13 10 7 6 3 4 10 14 18 19 20 14 17 17 10 13 11 9 6 3 4 4 3 4 5 3 0 2 13 1 9 13 17 24 22
3 5 7 9 12 15 15 14 13 12 11 7 5 7 8 3 4 11 14 16 16 15 13 17 18 11 6 5 6 5 1 4 1 5 3 2 1 0 2 4 7 12 13 22 22
6 9 11 14 16 16 16 13 12 11 9 5 5 7 9 11 7 10 10 10 11 13 15 14 22 7 5 3 4 4 2 4 4 3 4 3 4 3 7 5 13 16 21 20 18
12 15 18 18 18 17 16 13 11 10 6 6 5 3 5 6 10 11 8 11 7 14 15 15 11 7 6 4 4 4 6 9 5 9 6 1 4 2 4 8 16 23 24 21 20
15 18 19 18 17 15 15 14 12 10 10 7 7 5 6 5 9 10 9 6 8 10 11 11 13 9 7 3 8 4 5 7 4 6 2 1 5 6 4 4 21 26 26 25 22
18 18 18 17 17 16 16 15 14 12 8 6 6 5 3 7 5 5 6 3 6 6 9 7 10 5 5 4 5 5 5 5 7 2 5 2 10 10 5 8 22 25 29 29 26
18 17 16 15 15 14 13 11 10 8 4 3 3 4 2 6 9 9 16 14 5 4 6 5 6 5 4 4 5 7 2 3 6 5 4 2 8 13 13 13 17 26 30 29 26
16 15 15 14 13 11 9 9 9 5 2 3 5 4 5 7 8 12 15 7 6 10 5 5 3 4 5 6 0 3 3 4 4 5 7 5 9 11 9 13 20 19 25 24 23
13 14 14 13 12 10 7 10 6 4 8 5 4 4 5 6 6 12 15 6 6 6 4 5 6 2 1 2 3 1 1 3 4 3 7 5 9 11 13 4 5 2 12 12 9
11 12 12 11 10 8 9 7 6 4 4 5 7 5 5 7 5 16 13 4 6 3 3 6 3 2 4 5 5 3 2 4 6 5 2 7 10 8 9 5 6 18 18 17 13
10 11 11 10 8 5 7 9 8 3 3 2 2 3 5 5 5 11 15 5 6 5 4 5 1 5 4 5 6 3 2 3 5 7 2 6 5 6 6 10 9 10 12 14 14
10 10 10 7 6 5 9 8 3 1 4 5 3 3 5 3 6 11 11 5 6 3 1 2 3 3 6 3 1 4 3 2 6 4 2 5 3 5 4 4 7 5 7 11 12
11 11 10 8 6 6 6 4 1 0 5 4 1 2 5 4 2 10 10 2 3 3 4 2 3 5 6 4 2 6 7 4 3 3 2 8 4 6 6 4 4 3 7 7 6
9 11 10 8 6 6 4 3 1 6 1 1 1 2 3 5 4 7 17 5 5 4 5 4 3 3 2 2 3 8 4 5 4 3 2 1 3 6 3 3 3 0 4 3 4
8 9 10 9 7 4 5 3 5 5 3 1 2 3 3 4 6 5 5 10 5 5 6 6 4 5 4 5 6 8 6 4 4 4 4 2 2 5 3 2 1 7 9 19 15
8 7 7 7 6 7 6 5 6 1 2 3 3 3 4 5 5 6 3 5 6 5 3 4 5 5 6 1 3 3 3 4 3 1 4 6 2 4 6 16 16 18 16 12 6
9 10 8 7 8 7 3 5 6 5 2 2 3 4 5 5 3 4 4 2 3 5 3 5 4 4 1 3 1 3 5 1 5 3 2 4 5 6 6 7 9 13 7 9 12
9 13 10 8 7 4 5 2 1 0 1 2 3 1 2 5 3 4 3 3 4 7 1 2 4 2 6 3 4 4 2 4 4 2 3 5 6 5 5 11 18 17 11 11 9
4 5 7 6 3 4 4 3 2 3 1 3 2 3 2 2 2 2 0 2 2 4 8 2 3 6 3 4 2 4 4 5 3 3 3 3 5 5 5 8 10 7 11 12 4
4 4 4 3 4 3 2 3 3 4 7 5 4 3 2 2 4 3 3 2 0 2 2 1 3 3 3 7 4 4 5 4 3 3 2 3 7 5 5 10 7 11 14 15 9
4 4 7 3 3 2 1 4 4 3 5 3 2 3 4 2 3 2 3 2 3 2 1 1 2 3 6 6 4 4 3 3 3 2 6 3 5 3 20 7 5 11 15 17 21
3 2 5 5 5 6 4 2 3 5 4 5 3 5 4 5 5 2 3 5 7 3 1 2 2 5 5 5 4 6 4 3 5 3 4 11 17 17 8 4 13 18 19 22 26
3 2 2 1 4 4 3 2 4 2 3 6 5 4 3 2 2 2 2 5 4 3 3 3 2 3 5 7 7 13 12 16 7 10 6 10 11 12 5 5 14 19 22 25 26
3 5 4 4 3 3 4 1 5 2 2 2 6 1 4 4 4 3 3 2 4 2 3 2 3 3 4 7 9 15 13 11 12 9 8 9 9 0 6 11 14 20 23 27 26
5 7 4 2 3 4 2 1 3 7 4 6 11 4 2 3 5 5 7 7 7 5 3 2 4 1 5 5 9 6 7 4 4 5 5 5 5 3 7 13 20 26 29 26 30

GFSSW_850_spd_018.txt.gz
Wind_Speed
11 10 10 8 8 8 8 8 9 9 9 9 7 7 4 7 11 15 18 16 15 13 10 4 4 11 12 8 7 5 5 2 2 2 2 2 2 2 3 6 3 2 7 4 22
8 8 8 8 8 10 10 10 11 10 11 9 6 8 4 11 17 20 18 22 14 15 12 11 13 13 8 5 6 7 5 2 3 3 1 2 2 4 3 1 2 2 4 14 22
6 6 7 8 9 10 11 12 12 12 12 7 8 5 1 9 11 15 16 16 16 15 16 14 17 17 12 11 6 3 4 2 3 2 1 3 2 2 10 1 8 11 11 20 21
4 5 7 9 11 12 13 13 13 14 10 7 7 5 4 3 4 11 11 13 15 12 13 12 16 13 6 6 7 6 3 3 2 3 3 2 3 2 7 5 5 8 11 18 20
5 7 9 11 13 15 16 14 15 13 9 7 6 7 11 11 10 13 10 10 13 12 13 15 15 8 4 4 5 4 2 2 1 5 4 3 3 4 12 8 7 10 17 19 19
9 12 14 16 18 17 16 15 13 11 9 7 5 7 8 11 12 13 8 7 10 15 15 18 11 9 7 4 5 2 2 3 3 2 1 1 3 2 3 5 11 16 20 22 21
15 17 19 19 18 17 15 15 12 11 9 7 8 8 12 8 10 11 10 8 10 12 12 14 14 7 3 3 6 3 5 6 10 6 4 2 5 5 9 6 9 17 23 24 21
17 18 18 18 17 16 15 14 12 11 8 9 8 7 5 9 7 8 11 4 5 8 9 9 8 9 7 3 7 6 6 5 5 8 4 3 8 11 9 6 12 18 23 27 24
16 17 17 17 17 16 14 12 11 9 7 7 7 5 4 6 11 15 18 9 6 8 6 6 7 7 7 5 5 7 1 2 7 5 5 4 9 11 18 18 22 16 22 27 27
16 17 17 16 14 12 11 11 11 7 5 6 8 5 9 8 11 13 9 8 5 5 5 7 6 5 5 6 1 1 2 3 3 5 6 4 7 9 17 12 14 12 13 20 23
15 16 16 14 12 10 11 12 7 7 14 10 6 5 7 7 14 17 8 7 6 9 4 7 8 2 3 1 2 1 2 3 3 2 6 5 6 9 13 15 14 11 5 4 12
13 15 14 12 10 10 9 7 7 6 9 8 11 8 9 10 9 21 11 5 7 3 2 6 4 1 6 5 2 1 2 4 5 3 1 6 7 6 10 8 12 14 13 11 10
11 12 12 10 9 8 8 12 9 5 5 5 6 6 5 6 7 13 14 5 6 6 6 5 1 4 4 5 6 4 2 2 5 7 1 5 5 7 4 10 12 13 11 11 10
10 10 9 8 5 10 13 9 6 3 5 7 4 4 5 3 5 17 9 4 6 3 2 3 3 5 5 4 2 3 1 3 6 3 1 4 2 5 6 5 7 4 4 5 5
11 10 9 7 6 7 8 5 3 2 5 3 3 2 6 5 2 17 11 5 4 3 4 1 3 5 6 2 1 6 4 2 2 3 3 7 4 6 5 4 5 9 6 4 3
12 11 9 6 7 8 6 4 2 6 2 2 1 4 4 9 5 9 16 7 7 5 6 1 2 3 2 2 2 5 4 5 4 2 3 1 3 5 3 3 4 6 12 13 10
11 12 10 8 6 6 5 3 5 5 3 2 2 3 4 6 6 7 6 9 4 4 6 6 3 5 4 6 6 9 6 3 3 4 3 3 1 4 4 6 6 12 19 19 15
8 9 10 8 6 6 6 5 6 1 1 1 2 4 4 3 4 6 3 5 6 5 3 4 5 5 6 1 2 3 4 4 2 1 4 4 3 5 3 20 13 10 11 11 15
9 9 10 9 8 8 3 5 6 5 1 2 3 4 3 3 4 4 4 2 3 4 3 4 3 5 2 3 1 1 4 2 5 2 2 4 5 2 4 8 16 13 14 14 13
11 11 10 10 8 6 5 3 1 3 1 2 3 0 2 5 3 4 2 2 2 5 1 1 3 1 5 2 7 5 3 3 3 2 3 5 5 3 6 8 7 7 15 13 7
3 5 5 7 6 3 4 4 2 3 2 3 2 3 3 2 3 2 1 2 2 3 7 2 3 5 2 5 2 4 3 5 4 3 3 2 6 4 4 3 2 5 8 11 9
2 4 3 5 4 3 3 3 3 2 6 4 5 3 3 3 3 2 2 2 5 3 3 2 4 3 4 3 1 3 3 4 4 2 1 3 6 2 7 2 2 5 12 15 20
4 4 6 3 3 2 0 3 4 3 4 3 3 3 4 3 4 2 3 3 5 3 2 1 2 4 8 5 5 5 1 4 5 3 6 3 6 3 13 13 6 10 15 23 30
3 2 4 5 6 6 4 2 3 5 5 7 4 5 4 5 6 2 2 3 5 4 4 3 2 5 5 7 3 4 4 4 5 2 3 11 17 18 14 6 11 17 21 27 30
3 2 2 0 4 5 4 2 4 2 3 6 4 4 4 3 2 2 1 4 4 4 3 3 2 4 6 9 7 9 11 8 9 8 7 13 8 11 7 3 11 18 22 27 27
3 4 4 4 4 4 4 1 4 2 2 1 6 2 3 4 4 5 3 2 4 2 2 3 3 0 4 5 5 8 12 13 10 6 13 14 16 8 4 8 17 23 21 22 17
3 7 4 3 3 4 2 4 5 7 4 3 12 5 3 3 4 2 5 4 2 3 3 0 2 2 5 3 8 7 6 5 3 5 5 6 9 4 4 14 20 18 18 11 17

GFSSW_850_spd_021.txt.gz
Wind_Speed
12 12 11 10 10 11 10 8 9 11 11 9 6 6 7 11 14 16 17 14 12 7 3 2 8 12 11 10 6 5 4 3 4 5 3 3 3 2 5 7 4 5 6 7 21
10 10 10 11 11 11 10 10 12 12 12 9 4 5 10 13 14 17 14 13 12 8 7 10 12 9 7 5 4 6 4 2 2 3 3 3 3 4 3 3 3 4 5 12 21
9 10 11 12 12 11 12 14 15 15 12 7 4 3 12 9 9 13 11 13 12 12 14 16 17 16 10 9 6 3 4 4 2 5 4 3 3 2 6 2 4 5 7 17 22
8 9 10 11 12 13 15 17 17 15 10 6 5 6 6 1 3 10 8 10 11 12 13 9 10 9 6 6 5 6 4 3 5 5 4 3 3 2 7 2 3 6 8 17 22
7 9 11 12 14 16 18 18 17 13 8 7 7 10 10 14 10 10 7 8 9 9 12 13 13 10 4 4 6 5 2 3 2 6 2 3 1 1 8 9 8 9 13 16 18
8 10 12 15 18 19 19 19 16 11 9 7 9 11 10 12 10 11 5 4 9 12 12 11 9 15 8 3 5 3 3 4 6 2 5 2 1 2 1 2 7 10 16 17 15
11 14 17 19 20 20 19 18 14 12 11 8 9 15 15 7 10 8 6 5 8 9 12 12 12 5 4 3 4 6 4 2 12 5 5 4 1 3 7 8 4 7 14 20 19
16 18 19 19 19 19 19 17 15 12 10 9 9 8 7 10 7 6 6 4 7 8 11 11 9 16 6 6 7 5 5 3 4 7 4 6 5 6 11 11 11 10 11 21 23
16 18 18 18 18 18 18 16 14 10 8 7 7 6 3 6 10 10 8 9 7 10 11 8 11 10 6 4 4 8 2 3 4 4 7 5 7 6 19 9 12 11 9 14 23
18 19 19 17 17 16 16 14 11 7 5 8 8 6 8 8 14 8 8 9 7 7 6 9 8 4 4 4 2 1 1 1 3 4 6 4 7 11 14 7 6 5 2 6 16
18 18 17 14 13 14 14 14 9 10 16 10 8 9 9 4 15 12 8 9 9 9 4 8 7 4 2 1 3 3 2 2 3 1 5 3 4 10 11 13 14 15 14 8 3
16 16 15 14 13 13 11 9 7 9 9 11 11 9 11 13 8 18 10 5 7 4 2 5 4 1 5 4 2 1 2 2 2 1 1 5 7 4 12 9 11 16 17 14 11
14 15 13 12 11 10 9 10 10 7 6 7 9 9 6 11 11 16 11 6 7 6 5 5 1 2 2 4 4 1 2 2 3 6 1 2 3 6 5 8 13 15 12 12 10
12 12 11 9 7 11 11 10 6 4 4 7 5 6 8 3 7 17 9 4 6 3 3 5 3 3 3 3 1 2 2 4 4 1 1 3 3 6 5 8 12 13 14 13 10
10 9 8 7 7 9 10 7 4 1 5 4 4 4 12 8 1 20 11 10 4 3 2 0 2 4 4 2 1 3 2 1 0 2 2 3 1 3 4 9 10 13 16 14 10
10 9 8 6 6 9 8 4 2 5 2 2 3 4 5 12 6 8 8 11 6 5 5 2 2 2 2 2 1 4 2 3 2 2 1 1 1 2 3 4 6 9 15 17 15
12 11 9 7 8 7 6 2 4 5 3 1 3 4 5 5 5 7 6 9 4 2 5 5 3 4 4 4 2 8 4 1 0 2 1 1 1 5 9 5 6 9 13 17 16
11 11 10 8 7 7 6 4 6 1 2 1 3 4 4 3 4 6 3 4 5 4 3 3 1 3 5 2 2 3 2 2 2 1 3 0 4 6 8 8 10 11 11 14 16
10 11 11 9 8 8 3 4 6 5 3 4 3 4 2 2 4 4 4 2 3 4 3 2 2 3 3 3 1 1 4 1 4 1 2 2 1 3 5 7 7 8 10 9 9
9 10 9 10 10 9 5 3 1 3 2 2 3 0 3 3 3 3 2 2 1 6 1 1 2 2 3 1 7 2 4 1 3 1 2 5 3 3 9 4 2 4 5 6 7
6 5 6 9 9 3 4 4 3 2 2 3 3 3 3 3 3 2 1 2 2 1 6 1 1 2 0 4 2 2 2 5 3 1 1 3 5 4 7 2 5 2 1 4 9
3 3 5 9 4 3 3 5 4 2 4 4 4 3 3 3 3 3 3 1 3 1 2 1 2 2 1 1 1 2 2 3 2 2 1 1 7 3 8 1 3 4 4 11 17
4 5 5 6 3 1 1 3 4 2 4 2 3 3 3 3 4 2 3 1 4 3 1 2 2 3 2 3 2 3 1 3 4 2 6 3 6 1 8 3 5 9 14 20 22
4 2 3 3 6 7 5 2 4 6 5 6 4 4 4 4 5 3 2 2 3 3 3 2 2 4 3 4 1 5 4 4 4 3 4 12 17 19 18 10 6 9 16 16 19
2 1 3 1 2 6 4 3 4 3 3 4 4 3 4 3 2 2 1 2 3 2 2 3 2 3 5 10 4 8 12 11 13 13 8 16 16 19 12 8 5 15 19 19 18
3 5 5 4 4 5 4 2 4 3 2 2 6 2 3 4 3 4 3 2 3 2 2 2 1 1 4 5 4 8 14 14 13 14 13 18 22 20 10 6 10 14 15 15 12
4 7 4 3 2 4 2 4 5 8 5 4 13 5 4 4 5 3 4 3 2 3 3 1 3 2 4 4 8 7 4 4 3 6 5 7 10 4 7 7 14 16 13 9 9

GFSSW_850_spd_027.txt.gz
Wind_Speed
16 15 16 15 15 14 12 11 10 10 10 10 7 6 7 6 6 3 1 3 3 5 5 5 6 6 6 4 3 5 6 7 6 10 8 8 7 3 3 8 1 3 9 16 17
15 15 14 14 15 14 12 11 11 12 12 10 7 8 10 6 4 2 4 5 1 3 5 6 10 10 7 6 5 12 4 10 5 7 11 9 5 8 8 8 10 9 8 14 17
13 14 13 14 13 12 12 12 13 14 14 9 8 12 9 4 5 8 5 6 1 7 5 5 8 7 7 10 5 4 10 8 6 3 7 8 5 5 5 7 9 12 12 16 16
12 12 11 12 11 11 13 14 16 16 12 8 8 12 8 4 1 3 5 8 5 9 5 6 9 9 11 7 5 8 8 6 7 4 1 6 8 6 5 12 7 8 11 15 16
10 10 10 10 12 14 15 17 18 15 10 8 10 10 6 6 5 3 5 7 5 1 4 3 6 6 4 7 8 11 9 10 9 7 2 3 5 3 6 11 7 7 10 13 14
8 9 10 12 14 16 19 19 17 12 9 9 12 10 7 5 1 4 4 5 2 2 1 2 2 3 6 11 5 9 10 8 8 7 5 7 7 9 8 5 7 8 11 12 12
7 9 12 14 17 19 21 20 15 11 10 11 12 8 9 5 1 3 4 2 4 3 1 1 3 7 10 6 7 10 8 9 8 9 3 8 10 12 6 5 6 8 11 12 12
8 11 15 18 22 23 22 17 13 10 12 12 12 10 1 2 2 4 2 2 2 1 3 5 4 6 2 8 8 11 9 11 7 6 5 11 12 10 4 6 11 12 10 12 12
11 15 19 22 24 23 20 16 12 11 11 12 6 5 3 2 2 3 3 5 4 4 3 5 5 5 6 11 10 8 9 2 9 4 3 6 5 11 5 9 13 13 15 13 12
14 17 20 22 23 22 18 14 12 12 10 8 3 6 3 1 3 4 4 5 7 8 6 5 7 9 11 10 7 7 5 5 4 6 5 4 2 6 2 1 3 5 6 5 9
16 18 20 21 21 20 16 13 8 5 7 4 9 2 7 3 5 5 5 6 9 10 10 6 11 2 11 7 7 4 4 3 4 4 6 3 1 4 4 8 9 10 10 10 10
17 18 19 20 19 17 15 7 2 10 10 7 8 7 3 4 8 6 3 9 10 8 4 8 4 5 2 4 3 2 5 1 1 3 5 3 8 6 8 8 12 14 17 17 16
14 15 16 16 15 13 6 4 18 10 8 6 4 3 3 5 4 5 2 3 4 4 6 6 9 2 3 1 5 2 6 5 9 4 8 10 10 10 9 12 13 14 13 12 12
15 14 16 16 11 10 5 8 12 4 5 6 5 3 2 2 4 6 3 2 1 3 6 6 4 2 1 1 7 8 3 7 9 8 9 13 6 12 13 10 10 10 9 8 8
12 12 13 13 9 8 9 10 8 5 3 4 5 2 3 2 4 5 5 2 3 6 5 6 4 2 2 5 6 6 7 8 9 10 13 12 9 13 13 11 9 8 8 9 10
13 10 9 7 10 10 10 9 5 5 3 6 4 6 9 9 6 5 5 6 3 4 5 8 3 4 6 4 4 7 9 9 8 7 7 8 6 12 12 10 7 7 7 10 11
14 11 9 10 7 11 9 7 5 4 3 7 8 5 6 7 8 6 5 5 1 6 6 6 4 4 6 10 5 8 8 5 4 5 4 7 6 8 9 7 7 7 7 8 7
15 12 10 9 10 12 9 6 7 5 5 3 7 9 4 7 4 4 6 9 10 5 2 4 7 5 5 5 6 4 6 3 5 4 6 6 5 7 10 10 8 6 5 4 3
15 12 8 9 10 10 10 7 2 6 6 10 12 9 7 4 2 4 8 7 7 9 3 3 4 5 5 5 6 4 2 4 5 2 4 8 7 8 10 9 6 4 1 0 3
10 9 7 10 9 9 7 2 2 2 3 12 7 4 6 7 6 3 2 2 4 8 5 3 2 0 2 4 3 5 3 4 2 3 4 4 7 6 13 10 7 6 3 3 6
10 11 8 10 10 10 6 2 3 6 3 3 3 5 5 5 3 3 3 5 2 4 4 5 2 4 4 2 7 2 1 3 4 3 4 5 4 7 2 5 9 3 5 9 10
8 5 10 14 10 6 4 5 3 9 4 3 2 3 5 5 3 3 5 5 2 3 3 5 2 2 4 3 4 5 5 5 4 6 3 5 8 6 3 1 3 7 10 8 11
5 6 10 14 5 6 4 6 4 8 4 5 3 1 3 5 3 6 6 4 3 3 6 5 0 3 5 6 5 4 2 4 5 3 11 8 7 1 4 5 9 14 8 10 10
6 3 6 8 4 10 10 9 7 3 4 3 7 6 8 6 4 7 7 4 2 3 3 2 2 3 5 9 8 8 10 10 10 8 12 12 17 16 13 12 15 18 12 10 13
2 2 4 7 7 10 10 10 10 6 3 7 4 4 8 4 7 5 7 6 4 3 1 3 3 4 7 11 12 14 13 14 16 16 15 18 19 16 17 13 18 14 10 14 18
4 4 2 3 7 10 4 9 12 5 8 8 7 8 6 8 2 7 5 3 3 4 2 1 1 4 4 6 12 17 16 16 17 13 12 14 15 11 15 16 14 17 18 21 21
3 8 5 4 8 8 7 9 9 10 2 2 11 8 9 9 9 9 7 5 3 2 4 1 1 2 4 9 14 6 3 7 7 7 11 11 12 15 11 14 21 25 22 19 14

GFSSW_850_spd_030.txt.gz
Wind_Speed
17 17 17 17 16 15 12 11 11 10 10 10 9 7 6 7 8 7 5 5 7 7 8 7 8 9 11 20 16 21 3 8 8 11 9 7 5 6 6 10 7 6 9 23 19
17 16 16 16 15 13 12 11 11 11 12 11 8 8 8 9 10 11 6 5 4 7 8 8 9 11 16 11 6 9 7 13 12 11 11 8 12 8 7 9 10 10 18 18 18
16 16 14 14 13 12 12 11 11 12 13 11 8 8 9 8 8 7 0 3 2 4 5 7 8 13 17 8 8 14 12 11 9 9 12 8 11 6 8 9 14 17 15 17 17
14 15 13 12 11 11 11 12 13 13 13 9 8 11 9 5 2 6 6 7 3 4 1 5 10 17 7 7 2 6 8 12 12 6 6 6 12 3 2 17 9 17 15 18 17
13 13 11 10 11 12 12 13 14 15 11 7 8 10 8 7 1 4 5 5 2 3 7 11 13 8 9 5 5 8 9 12 11 6 7 6 5 3 8 11 6 11 13 16 15
11 11 10 11 12 12 13 15 16 13 8 7 10 10 7 12 2 2 5 5 1 6 2 4 6 4 5 7 7 9 11 11 9 7 4 4 6 5 10 11 10 8 12 14 14
10 9 10 12 13 14 16 18 16 11 9 10 11 7 8 5 0 2 3 3 4 7 8 2 4 5 5 5 4 8 7 6 7 8 7 7 8 12 13 6 9 10 10 14 14
7 9 11 13 15 18 20 18 13 9 10 10 12 10 7 3 5 2 3 4 2 2 4 1 2 9 3 6 4 6 7 9 10 7 6 6 13 15 12 8 10 12 12 12 13
6 10 12 16 20 21 19 14 10 10 10 12 11 10 6 3 3 2 4 3 2 1 1 1 2 3 0 7 7 9 8 9 9 6 1 9 5 13 6 6 13 14 13 11 11
8 12 16 20 22 20 16 12 9 10 11 8 6 11 5 2 1 2 2 2 3 3 3 2 5 5 8 10 2 10 8 4 1 8 6 9 9 10 2 6 8 12 9 17 12
11 15 18 20 21 18 16 12 6 3 11 6 12 1 3 2 5 2 4 3 4 6 9 8 9 4 11 10 6 9 7 4 7 8 4 9 8 9 4 5 5 7 5 17 21
12 15 17 19 19 18 14 5 4 3 7 1 4 2 1 1 6 4 4 5 5 11 7 4 5 8 4 7 6 3 4 3 4 6 5 7 8 10 3 9 10 15 17 16 16
12 14 16 17 15 14 9 4 4 8 6 6 3 5 2 4 3 5 4 10 11 12 7 8 10 6 4 2 6 5 5 8 7 8 8 10 8 13 11 9 11 15 15 16 14
12 13 15 14 9 8 4 4 7 2 5 7 7 5 5 4 4 1 5 4 3 2 3 8 3 2 1 3 7 5 7 6 8 9 9 13 8 16 14 11 12 12 11 12 12
9 12 14 13 4 9 6 6 5 5 3 6 6 4 6 4 10 3 3 5 4 2 3 7 4 1 2 7 7 5 6 8 9 10 12 12 6 13 18 14 12 11 9 8 9
9 10 12 4 4 4 6 5 3 5 4 6 7 8 8 5 1 5 4 3 3 3 5 8 4 7 7 4 2 8 10 11 11 9 8 13 12 9 11 13 14 12 9 10 10
10 9 9 6 4 7 8 7 4 4 6 8 10 9 10 7 5 7 5 5 2 5 7 6 6 6 5 10 8 6 8 4 2 4 3 11 2 7 9 11 16 14 11 10 8
11 9 7 8 6 10 8 6 6 5 4 8 10 9 7 7 4 2 10 9 9 10 2 7 6 5 4 6 6 6 6 2 4 5 7 6 5 8 12 13 13 13 11 7 5
11 8 3 7 7 10 6 7 2 2 8 7 10 9 5 4 1 3 11 7 7 9 6 3 6 6 5 5 7 8 5 4 4 1 2 5 5 8 11 9 9 10 7 7 1
10 8 7 8 8 8 5 8 2 6 2 10 9 5 8 8 7 7 4 2 4 8 7 4 3 2 4 3 2 4 2 2 0 2 3 8 8 7 9 7 7 5 9 4 2
11 7 8 10 8 7 6 4 3 3 3 3 4 4 1 6 3 4 4 5 4 4 6 7 2 6 5 6 7 1 2 3 4 3 2 3 1 8 8 1 5 3 2 2 6
8 3 9 12 7 11 8 1 1 7 2 2 4 1 4 4 3 4 8 7 3 3 5 4 2 1 7 6 4 3 4 3 1 5 3 4 8 7 4 10 10 9 13 11 9
7 6 13 17 5 6 3 5 5 8 8 5 2 1 2 5 3 5 8 3 4 6 4 4 1 3 8 5 4 1 4 5 4 3 4 4 5 6 5 16 16 13 9 12 10
6 3 6 10 12 12 7 7 6 3 6 1 5 4 5 5 3 6 9 4 4 8 3 3 1 1 2 6 7 7 10 10 10 3 6 10 15 15 13 8 3 11 11 12 13
5 5 10 7 8 6 11 9 10 6 4 6 5 6 6 3 6 6 10 8 4 3 2 3 1 5 6 9 9 10 13 13 15 13 11 12 15 12 6 8 13 22 23 19 21
5 3 4 7 15 10 5 6 11 8 9 9 5 7 8 7 3 7 6 5 4 4 2 3 1 4 3 6 9 16 17 11 8 11 11 9 12 12 13 17 18 18 18 20 16
2 2 5 0 4 6 6 8 9 10 2 4 7 7 9 12 14 13 12 10 5 4 4 2 1 2 3 9 10 3 2 11 11 10 7 7 9 9 15 17 18 17 16 15 15

GFSSW_850_spd_033.txt.gz
Wind_Speed
18 18 18 17 16 14 13 13 13 12 11 11 9 8 9 10 10 12 12 6 10 9 9 8 9 5 4 12 21 21 3 10 17 8 5 7 9 16 17 20 20 12 30 30 25
18 18 17 16 15 13 13 13 13 11 11 9 8 9 10 10 11 15 9 12 9 9 11 12 9 7 10 12 10 10 4 5 7 10 7 7 16 6 10 17 25 31 30 27 25
18 17 15 14 13 12 13 13 12 11 10 10 10 10 9 7 10 8 3 6 6 7 6 6 7 15 16 21 5 6 5 5 13 22 17 17 14 10 15 7 29 32 30 24 22
16 16 14 12 12 11 12 12 11 11 11 10 10 10 6 6 2 4 4 3 1 6 5 5 10 14 4 5 3 7 15 16 11 20 17 9 8 7 18 18 27 27 26 24 21
15 14 12 11 11 12 12 12 11 12 11 9 9 7 5 6 9 4 3 1 3 4 6 7 16 16 7 5 16 10 7 14 8 15 13 12 6 5 19 19 24 25 26 24 20
13 12 11 11 11 12 12 12 13 13 10 8 8 5 4 7 0 1 2 6 10 7 18 17 7 7 3 6 7 11 14 14 7 9 3 1 3 4 19 19 25 22 25 22 21
11 10 11 11 12 12 13 14 14 12 8 8 7 5 9 13 5 1 0 6 7 10 13 3 7 8 7 7 14 13 7 6 7 12 4 5 2 6 22 19 20 16 24 22 21
8 8 10 11 12 13 15 17 13 9 8 7 7 8 8 4 9 3 3 2 5 6 6 4 4 11 7 10 3 5 6 5 6 11 9 8 6 8 18 14 12 18 15 22 20
5 7 9 12 14 16 17 14 10 8 7 8 10 8 8 2 7 1 6 6 3 2 4 0 4 5 4 4 3 2 4 6 4 13 5 4 6 10 15 10 5 8 14 13 15
5 9 13 15 18 18 16 11 9 7 8 8 7 5 12 2 5 7 3 5 2 3 3 2 3 2 5 4 3 4 3 6 8 3 3 4 3 5 6 5 6 2 9 26 27
6 11 15 18 19 18 15 10 6 1 11 10 7 12 6 2 9 6 4 2 3 8 4 10 4 2 4 3 3 3 4 9 5 5 3 4 4 6 8 20 30 29 32 29 26
9 14 15 18 18 17 15 5 3 1 7 16 3 2 2 3 6 8 8 3 4 6 7 3 4 5 3 2 3 6 6 5 4 5 4 3 1 7 13 13 30 31 29 27 22
10 14 14 15 14 15 13 4 7 6 5 5 3 8 3 4 1 8 1 9 7 5 7 7 3 2 4 7 10 9 6 6 4 6 3 3 2 6 7 26 26 26 25 23 21
9 12 14 13 10 8 9 4 8 6 4 3 3 3 4 4 4 4 4 5 4 3 10 6 5 4 5 8 8 5 7 6 6 5 3 3 3 4 8 8 15 24 25 24 20
9 12 14 13 3 9 6 8 2 5 4 7 5 8 7 1 11 2 3 4 4 4 7 1 4 7 9 4 4 2 3 4 4 4 3 8 1 5 12 11 10 20 24 21 18
10 13 14 4 3 5 6 2 1 5 2 3 5 5 5 4 1 6 3 2 2 6 8 5 11 4 4 3 2 5 4 6 5 3 2 6 4 2 9 12 9 18 21 19 17
10 12 10 6 2 3 3 4 5 2 6 5 4 7 7 2 5 6 5 3 3 3 3 3 4 4 3 4 2 3 5 4 4 4 4 4 8 6 11 13 17 18 23 18 15
10 11 7 7 3 5 4 4 1 1 4 5 6 4 7 3 4 3 6 4 8 6 4 5 1 4 5 4 2 4 3 4 0 1 4 7 4 1 10 22 21 19 19 16 11
10 8 6 5 4 7 2 2 3 4 4 6 5 5 4 3 1 4 7 3 5 7 4 3 3 4 6 4 3 6 4 2 3 5 3 1 4 5 9 8 18 16 15 14 14
12 8 5 6 5 5 4 4 1 7 4 5 5 6 6 8 4 3 3 5 2 5 6 3 4 2 4 1 2 4 2 5 3 1 2 4 3 3 3 7 7 10 10 7 1
12 5 8 7 6 3 2 5 4 6 12 6 2 2 1 7 6 4 4 4 7 2 9 4 4 3 2 4 4 4 3 4 2 5 4 1 3 4 8 10 7 12 11 6 5
11 1 10 12 4 4 2 5 2 4 2 3 3 5 3 4 5 5 4 4 5 8 3 3 3 3 4 3 3 1 3 4 4 4 1 4 5 7 8 15 15 7 9 9 7
6 5 10 15 3 2 7 2 1 5 4 0 5 6 5 4 5 9 5 7 11 5 1 3 2 3 3 4 4 1 2 2 4 4 5 5 5 4 11 4 8 12 9 17 21
4 2 4 9 9 4 5 4 2 7 3 4 5 4 1 5 5 4 4 3 7 4 3 3 2 5 5 2 1 2 5 4 2 3 4 6 6 9 5 2 14 19 21 18 16
5 4 10 4 6 5 6 8 5 2 1 3 1 3 4 3 5 5 5 4 3 1 1 3 2 4 5 6 4 3 5 7 5 6 3 7 3 6 10 9 14 17 16 15 16
4 3 12 11 22 4 6 5 9 8 6 4 3 6 8 4 3 7 8 5 4 4 2 4 1 3 3 7 7 4 8 8 4 2 3 4 4 14 15 17 20 16 14 13 12
1 0 1 3 5 3 4 2 3 10 3 4 4 11 13 7 22 19 19 17 10 6 3 3 3 3 3 5 6 4 3 4 3 5 3 3 3 12 15 16 15 13 12 13 15

GFSSW_850_spd_036.txt.gz
Wind_Speed
20 21 21 20 19 17 16 14 14 13 12 11 10 10 11 12 12 14 14 7 7 7 5 6 6 6 8 5 6 2 3 2 8 10 11 9 13 18 20 22 5 6 32 35 28
21 21 20 20 18 16 15 14 14 12 10 9 10 10 10 10 13 17 5 10 8 9 8 7 7 6 4 3 6 5 3 5 6 8 5 9 25 14 9 20 18 26 33 33 29
20 21 20 18 16 15 14 13 13 11 10 10 10 8 7 7 13 13 6 3 5 9 9 8 8 6 10 7 5 9 4 1 6 12 20 11 11 6 20 4 29 35 35 33 29
19 19 18 16 15 14 13 12 12 11 10 10 8 6 4 6 4 5 2 4 3 4 7 8 8 6 4 5 3 6 2 11 6 15 15 12 10 6 17 13 26 32 33 32 30
18 17 16 14 13 13 11 12 11 11 10 9 6 4 3 6 9 2 4 7 9 6 8 8 9 8 4 1 7 8 4 11 12 12 12 14 9 6 17 23 30 31 30 31 30
16 16 14 13 13 11 11 12 11 10 10 7 5 2 5 6 3 6 3 7 8 7 8 4 4 10 10 12 5 9 13 9 6 7 6 7 5 7 11 33 33 32 31 28 27
15 14 13 12 12 10 11 12 11 11 9 6 4 4 9 15 6 1 4 3 4 10 8 9 8 10 5 6 18 19 6 4 1 3 3 6 3 7 24 36 38 36 33 29 26
13 11 10 10 10 11 11 12 13 11 7 4 4 5 9 6 7 5 5 3 2 4 7 6 6 9 8 7 6 5 5 3 4 5 1 5 5 4 26 33 34 36 34 31 30
10 9 8 10 11 12 13 14 11 7 5 4 2 4 10 8 7 4 3 5 2 3 5 4 5 4 5 4 5 5 4 4 2 11 3 3 5 7 20 25 21 9 11 14 14
6 7 10 12 14 15 15 12 8 5 5 4 3 3 11 6 7 6 8 6 2 4 7 6 6 4 4 5 3 6 5 4 5 3 4 4 4 4 9 13 25 27 26 26 26
6 9 11 15 17 18 15 11 6 3 9 8 7 6 7 7 8 8 6 5 1 3 1 6 6 2 6 5 6 3 2 9 2 1 4 4 5 1 17 28 25 31 32 33 32
7 11 14 18 19 17 15 6 5 3 3 18 13 15 12 4 1 9 6 2 1 2 3 6 3 5 5 7 7 6 9 4 5 5 4 4 4 5 3 12 30 33 32 28 24
10 13 16 17 16 17 13 6 3 3 3 3 8 12 5 1 2 7 2 2 2 2 3 6 5 1 6 6 9 5 6 2 3 3 3 7 3 4 6 20 21 24 28 24 22
11 14 16 15 13 11 8 3 6 4 3 3 2 4 5 5 3 4 3 0 2 1 8 4 4 6 6 5 2 3 1 3 3 4 2 4 2 3 2 8 12 20 26 26 23
13 15 16 13 5 7 3 3 4 3 3 3 2 9 5 2 6 2 4 1 1 1 6 1 4 6 6 1 1 4 1 1 2 3 3 6 4 4 7 7 8 15 25 24 19
13 15 15 5 8 7 2 3 3 5 2 4 6 5 4 2 3 5 3 1 2 5 6 5 3 3 2 3 1 2 3 7 4 3 3 4 4 2 4 5 6 12 22 21 16
15 15 12 8 6 4 2 3 4 3 2 5 4 5 5 4 3 3 4 6 4 4 3 5 4 4 4 5 7 8 5 3 4 4 4 3 4 1 8 10 11 15 21 19 14
16 16 11 7 5 4 4 4 3 2 4 3 5 5 5 3 3 3 3 3 5 4 3 4 2 5 7 3 0 2 5 4 3 2 4 5 3 4 2 22 20 19 18 13 10
15 13 9 7 3 6 3 2 5 3 7 6 5 5 2 2 4 6 3 2 2 4 5 4 1 2 2 2 3 4 4 4 5 2 3 0 3 4 2 14 21 21 14 17 18
14 11 9 8 5 6 4 5 3 3 3 5 5 5 5 6 4 4 2 3 1 4 2 2 4 2 1 5 6 5 2 4 4 2 1 4 3 4 5 4 2 8 11 10 7
15 7 10 9 6 4 3 5 3 6 6 4 1 5 5 7 6 3 3 3 5 4 7 2 4 3 4 3 2 4 3 5 4 3 4 0 4 2 9 7 6 9 9 5 5
13 2 13 12 4 1 3 3 2 4 5 5 3 4 4 4 4 4 3 2 7 2 3 2 4 3 1 2 0 2 3 4 4 2 2 3 5 6 8 12 14 12 14 7 6
11 5 11 14 4 2 4 4 2 2 1 2 2 4 4 4 6 3 4 4 9 4 2 3 2 3 6 6 5 2 1 5 6 3 6 5 5 6 6 18 20 24 22 20 15
9 3 4 7 2 6 3 3 3 4 2 4 3 5 5 5 6 4 3 4 6 4 3 2 3 5 6 4 3 1 2 4 4 3 3 6 6 4 4 9 15 19 15 11 7
6 4 9 4 4 3 4 5 3 1 2 4 4 3 5 3 3 4 3 2 4 2 2 3 3 2 2 3 2 1 1 4 2 5 5 5 5 3 5 8 14 12 8 7 9
4 4 8 8 13 7 5 7 8 3 4 1 3 4 4 4 5 7 7 3 4 1 2 3 1 2 2 6 6 3 5 4 4 2 4 8 5 4 12 12 10 8 7 8 11
6 4 10 1 6 4 4 7 9 10 3 4 12 7 9 4 18 18 9 11 9 6 2 3 4 3 3 4 5 5 5 3 3 2 3 4 4 7 4 9 9 5 5 7 8

GFSSW_850_spd_039.txt.gz
Wind_Speed
21 22 24 23 21 19 18 17 16 16 15 14 12 10 12 12 13 15 15 6 6 4 5 5 6 5 3 3 4 1 4 3 6 5 4 7 3 10 7 20 2 4 19 31 30
21 22 24 22 21 19 18 16 15 14 14 12 11 10 10 10 14 17 4 9 11 10 7 8 6 5 2 2 4 3 4 10 9 17 19 19 15 13 6 7 9 21 22 32 29
22 22 23 22 20 18 17 15 14 13 12 10 9 7 6 8 12 6 3 8 11 11 10 7 7 4 3 3 7 6 4 7 14 31 30 15 10 6 19 3 25 28 35 34 31
21 21 21 21 18 17 15 13 12 13 11 9 8 5 5 6 3 3 3 1 1 3 5 6 3 1 4 5 6 2 4 4 8 16 19 12 13 12 8 13 24 27 33 35 32
20 19 20 19 16 15 12 11 12 12 10 7 5 4 5 6 9 5 4 6 5 4 7 8 12 8 4 5 6 2 2 8 10 13 11 12 6 9 8 22 29 32 34 33 32
19 19 19 17 15 12 11 10 12 10 8 6 5 5 5 5 2 6 6 6 7 1 3 12 8 8 7 5 4 6 7 9 8 11 6 6 4 5 7 29 34 36 35 33 31
18 17 17 15 13 11 10 9 10 9 7 6 5 6 8 13 7 4 6 7 4 1 4 2 4 8 9 3 7 12 6 4 3 2 4 13 3 5 21 33 35 35 33 33 30
16 16 14 12 11 9 9 9 10 8 7 6 5 5 9 6 10 6 2 2 3 2 3 1 5 5 5 14 4 5 5 4 3 3 2 3 6 2 27 34 31 26 21 23 22
15 13 11 10 10 10 9 9 10 8 6 4 4 4 9 6 7 4 3 1 1 1 2 3 5 6 5 5 4 7 3 2 4 3 1 3 4 0 25 20 14 13 13 15 14
12 10 9 10 10 10 11 11 7 5 5 5 4 3 7 3 3 5 4 2 0 4 5 5 4 4 4 5 4 4 3 3 5 4 3 1 2 4 15 17 14 14 14 15 12
10 8 8 9 12 14 15 11 5 3 9 8 4 4 3 5 6 7 6 4 3 5 5 6 6 1 3 1 3 3 2 4 1 3 4 2 5 8 9 25 21 22 25 27 25
8 7 10 12 16 17 15 5 3 0 4 17 9 12 12 7 4 6 4 2 3 2 2 6 2 1 6 4 5 6 6 3 1 4 5 5 7 7 9 5 15 26 29 29 27
8 10 14 16 18 17 13 5 1 2 0 4 14 12 7 4 2 5 3 1 3 2 2 4 3 4 6 6 8 5 4 3 3 5 6 4 5 5 6 12 15 21 23 22 20
11 14 16 18 15 15 9 1 2 4 4 4 3 4 7 6 3 4 4 2 3 2 6 4 6 5 6 6 4 3 1 3 3 3 4 2 3 2 1 4 5 13 16 18 19
14 17 17 17 7 11 5 0 2 1 3 3 3 5 5 3 5 1 3 2 3 4 5 2 3 5 6 1 2 4 2 2 2 3 3 4 4 3 7 2 3 6 16 18 17
17 18 20 10 11 11 3 1 3 5 3 3 5 3 4 2 2 3 3 5 6 5 6 3 3 3 2 2 1 2 4 6 4 3 2 4 4 3 5 5 4 8 15 17 16
18 20 18 11 10 8 3 3 5 3 1 4 4 4 3 2 3 3 4 5 3 5 3 5 3 4 3 2 3 6 5 2 2 3 4 5 3 4 5 7 10 14 19 17 13
20 22 14 11 10 8 5 5 1 3 5 3 5 4 4 4 4 3 3 3 5 4 3 4 4 4 5 2 3 2 4 4 5 3 2 5 2 5 2 20 25 23 19 16 11
22 20 14 10 8 8 7 3 5 5 4 6 5 4 2 2 5 5 3 2 0 2 5 4 1 3 2 2 3 0 3 3 6 3 3 2 2 4 4 10 20 25 23 10 8
22 17 13 10 7 9 5 4 4 4 2 6 4 4 5 4 4 4 2 3 1 4 3 5 4 1 2 3 5 5 4 3 4 2 1 3 3 4 8 8 4 6 10 4 4
20 10 13 12 10 8 4 6 5 5 2 4 5 4 5 6 4 3 1 3 4 2 5 3 4 3 2 3 0 4 3 6 5 3 4 1 5 5 9 8 6 8 10 12 12
16 3 14 15 4 2 3 5 4 3 7 4 4 3 6 4 4 3 4 1 4 0 2 2 5 3 1 4 2 2 3 4 4 2 2 3 5 4 5 1 16 18 17 16 16
14 5 14 15 4 2 3 4 1 3 3 2 2 2 2 5 6 3 3 1 2 3 4 2 2 3 6 6 4 2 3 5 5 3 4 4 5 2 8 9 11 18 17 17 14
10 3 4 6 3 7 4 3 1 4 3 4 3 4 5 5 6 4 2 2 2 5 4 3 3 5 6 4 3 4 3 3 5 3 4 6 4 2 3 6 12 16 15 11 7
7 4 8 4 3 4 5 3 3 2 2 2 3 2 5 4 3 4 2 2 4 3 3 3 4 2 4 4 2 1 4 5 6 5 6 5 8 5 9 9 14 12 9 5 2
7 6 6 7 16 6 3 6 6 2 3 0 5 3 2 6 6 8 6 3 3 2 3 4 1 2 1 5 6 3 5 7 5 4 5 3 3 5 13 13 13 11 6 1 2
7 5 6 2 5 6 5 6 8 7 5 2 9 5 5 2 5 9 5 9 7 5 3 3 4 3 3 4 4 6 8 8 4 2 6 6 7 12 6 12 12 8 2 3 1

GFSSW_850_spd_042.txt.gz
Wind_Speed
21 22 23 23 23 23 22 21 19 18 16 14 13 13 14 12 12 16 19 8 3 4 5 6 6 5 3 3 3 1 4 2 5 2 2 15 17 20 3 12 2 5 12 23 28
21 22 23 23 22 22 21 20 18 16 15 12 11 11 11 11 14 18 6 8 11 10 6 5 5 5 3 3 3 4 4 7 6 11 8 17 8 8 5 5 4 8 12 32 27
22 23 23 22 22 21 19 19 16 14 13 10 10 9 7 9 13 3 1 7 10 13 12 6 7 6 5 4 5 4 4 6 9 22 23 12 8 4 13 2 13 26 33 31 28
22 22 22 21 21 19 18 17 14 12 10 9 8 5 6 7 3 4 0 2 3 9 11 8 7 5 4 5 6 2 11 11 14 23 13 11 12 5 8 8 22 24 32 33 29
21 22 21 20 20 17 16 15 11 10 8 6 5 5 6 6 8 4 8 6 6 4 8 10 13 8 2 6 6 4 2 7 16 16 12 16 6 9 6 13 19 27 31 31 28
20 21 20 19 18 16 14 12 10 8 5 5 6 6 6 4 4 5 10 8 8 5 7 15 7 9 4 2 2 3 8 12 15 13 15 8 5 9 5 20 24 30 31 30 29
19 19 19 18 16 14 12 10 8 5 5 7 7 6 9 11 3 11 8 7 6 4 6 8 12 10 4 4 5 8 5 6 5 5 4 10 2 2 16 24 25 30 28 27 27
17 17 18 16 13 11 9 7 6 6 7 7 5 6 9 4 9 7 4 3 6 4 6 5 5 3 1 10 6 5 5 4 3 4 2 3 5 1 20 28 22 21 20 21 23
16 15 16 14 11 9 7 6 6 7 6 5 4 6 7 3 6 5 5 3 3 3 5 3 9 4 4 5 5 6 3 1 2 2 3 2 1 10 18 24 16 17 15 16 18
14 14 13 11 9 8 8 8 8 6 6 4 5 3 6 1 1 6 5 3 2 2 3 1 5 4 5 5 4 4 3 1 3 1 4 4 4 7 4 14 11 11 11 12 14
12 12 10 9 9 10 13 11 4 3 10 8 5 4 1 9 2 4 3 3 1 5 2 5 7 3 3 3 4 4 4 2 1 2 6 5 4 7 7 9 9 11 14 15 10
10 11 9 9 12 15 16 6 4 1 5 17 14 12 15 10 3 5 3 2 3 2 1 6 4 4 4 4 6 5 5 2 2 6 5 6 6 5 9 6 8 15 21 23 24
10 10 10 13 16 17 16 5 3 4 3 4 13 9 5 3 2 3 3 3 3 3 4 6 0 2 5 6 8 5 6 0 4 2 7 5 3 4 5 11 14 17 20 20 20
11 12 14 16 15 15 12 4 3 2 4 4 3 2 4 3 2 4 3 1 5 4 5 4 4 5 6 6 3 3 1 2 4 4 2 2 3 2 3 4 5 10 14 14 15
13 16 17 19 6 15 5 4 3 2 3 3 3 2 5 4 5 1 3 1 5 4 5 1 2 5 7 1 3 1 5 4 4 5 4 4 4 5 4 4 4 6 10 13 14
17 19 20 16 11 14 6 3 5 6 4 2 6 4 4 2 2 2 2 5 5 6 6 2 2 3 2 3 3 4 5 8 5 3 2 2 4 4 4 5 5 8 13 16 15
20 22 23 14 11 13 6 6 5 3 3 3 3 3 3 2 4 4 5 5 3 5 4 6 4 5 4 4 3 6 5 3 3 2 4 3 2 5 3 5 12 17 18 16 15
22 23 22 15 14 12 8 4 3 2 5 1 4 4 4 3 4 3 3 3 5 5 4 4 3 3 6 2 4 3 5 4 4 3 3 4 3 4 5 9 20 22 20 18 17
23 23 21 15 14 12 6 3 6 5 3 6 5 5 1 2 5 4 3 2 1 2 5 4 1 2 2 2 2 2 3 3 6 3 2 2 4 3 5 3 17 23 22 19 15
25 23 17 17 15 12 4 5 4 5 1 4 4 4 4 4 4 4 1 2 2 3 2 5 4 2 2 3 6 2 5 2 3 3 3 3 4 4 5 7 6 8 19 19 14
24 10 16 17 15 7 4 6 4 8 6 5 5 4 4 4 4 2 2 1 1 2 4 3 4 4 1 3 2 2 2 5 5 3 4 1 5 4 10 11 10 15 19 14 14
15 3 18 19 4 2 4 5 1 4 0 4 4 3 5 3 4 3 4 2 2 1 3 1 5 3 2 2 3 2 3 4 4 3 2 3 5 2 2 8 12 11 13 13 13
10 6 15 19 4 1 3 2 1 3 2 3 3 3 3 4 5 2 3 1 1 2 6 5 2 3 6 5 3 2 3 4 5 3 5 5 5 2 4 9 12 18 17 16 14
13 3 4 7 4 7 4 3 2 2 2 4 4 5 5 4 5 5 3 1 1 3 5 4 3 5 7 4 3 4 3 4 5 3 4 6 3 4 4 6 12 17 16 14 10
9 4 8 4 2 3 4 6 4 3 2 3 5 4 4 4 3 3 2 2 3 3 3 3 4 2 2 3 2 2 4 6 6 5 5 4 7 6 9 8 18 18 14 9 4
9 6 5 4 17 6 2 6 7 2 3 2 6 2 2 6 6 8 6 4 4 2 3 3 2 2 2 4 6 3 5 7 5 3 7 3 7 5 8 17 16 16 12 7 3
9 10 11 2 4 5 6 6 7 6 4 3 8 5 3 2 5 12 8 11 7 6 3 3 4 3 4 4 4 6 9 9 5 5 7 6 8 9 4 14 20 16 11 7 5

GFSSW_850_spd_045.txt.gz
Wind_Speed
18 19 21 22 22 21 22 20 20 19 17 15 14 13 13 13 13 16 19 11 2 6 5 6 5 6 6 6 5 3 1 4 6 6 5 9 6 2 5 7 3 4 7 13 28
19 20 21 22 22 22 21 20 19 17 14 13 12 11 10 11 14 17 9 6 8 6 5 3 5 6 3 4 4 4 2 7 6 12 9 8 5 10 1 5 2 4 8 28 26
19 20 21 21 21 21 20 19 17 15 13 11 10 8 8 9 13 1 3 5 9 10 10 4 7 7 4 5 7 4 2 6 6 16 20 32 11 6 9 6 6 14 27 28 25
19 20 21 20 20 20 19 17 15 12 10 9 8 6 6 7 2 1 6 2 4 12 14 11 10 7 5 5 7 4 3 8 16 18 4 16 12 5 9 2 5 20 33 28 24
19 19 20 20 19 20 18 15 13 10 8 7 6 6 6 6 9 1 6 7 2 6 13 14 13 7 5 6 5 3 3 8 16 11 6 15 7 3 5 1 10 23 27 27 24
18 19 19 18 19 18 16 13 11 7 6 6 6 6 6 4 5 2 9 9 6 5 10 17 9 12 3 4 3 7 5 6 10 14 8 6 4 7 3 12 15 26 25 24 23
17 18 18 17 17 15 12 11 8 5 6 6 6 6 9 14 4 7 9 9 6 4 6 10 14 5 2 3 8 12 7 5 5 11 4 10 3 2 11 18 22 23 24 23 22
16 17 16 15 16 12 10 8 6 5 6 6 5 6 8 3 9 8 7 7 5 4 4 8 10 10 5 6 4 4 4 4 1 6 5 4 5 6 12 20 18 18 19 19 18
16 16 15 14 13 9 7 6 6 6 6 5 4 5 7 4 7 5 5 5 5 2 2 5 11 5 3 4 3 7 4 3 4 3 5 1 3 8 4 9 11 13 16 17 18
15 14 14 13 9 6 6 7 7 7 6 4 5 3 5 1 3 7 4 4 3 4 5 4 3 3 2 3 4 4 5 2 4 1 7 5 3 6 6 10 9 9 12 13 13
15 14 12 10 7 8 10 9 5 3 11 8 3 3 2 9 4 6 3 2 4 2 1 3 4 3 2 2 3 4 4 4 1 2 6 4 4 6 5 9 9 8 9 8 7
14 12 11 9 9 12 15 8 5 1 5 15 16 15 13 8 2 3 3 2 2 1 2 4 3 1 5 4 5 3 6 3 3 4 4 3 6 6 7 4 5 10 10 10 12
14 11 11 10 12 16 19 7 4 4 2 4 14 10 3 5 3 5 6 5 3 2 2 4 2 3 4 4 8 5 5 3 4 4 7 3 2 2 6 8 9 10 14 16 17
13 11 12 12 14 17 18 6 2 2 3 3 4 4 6 4 1 5 6 4 3 4 4 5 3 4 3 3 2 4 1 4 5 2 2 3 2 2 3 5 8 12 13 15 17
14 13 14 16 10 19 8 7 4 3 3 3 4 5 6 5 5 2 3 4 5 3 3 1 2 3 5 1 2 4 3 4 3 4 3 2 1 3 5 6 9 11 11 14 14
16 16 18 23 15 18 8 6 5 4 3 2 5 5 4 2 2 2 3 6 6 4 5 3 2 2 2 3 4 8 5 6 4 2 0 1 2 2 4 5 11 12 13 17 18
19 18 21 25 11 17 10 7 3 3 2 2 3 4 3 2 3 3 4 4 3 4 3 4 3 3 3 4 3 4 4 2 0 1 3 0 3 4 3 6 18 21 20 21 19
20 20 23 28 10 13 10 3 3 1 5 1 3 3 5 4 3 2 3 2 4 4 3 3 0 3 4 2 4 2 3 4 4 3 1 2 4 2 3 6 10 18 22 22 21
22 21 24 27 13 10 7 2 7 5 3 6 3 4 2 1 4 3 2 2 0 1 5 4 1 1 3 1 1 3 2 2 6 1 1 1 3 4 1 2 12 20 19 21 20
25 22 26 24 15 14 3 5 4 5 3 2 4 3 4 3 3 3 1 1 2 2 1 5 3 1 1 1 7 1 7 3 2 4 3 2 4 4 3 6 9 16 20 15 14
24 13 17 20 16 9 4 6 4 6 6 6 5 4 3 5 3 2 4 1 1 2 4 3 3 2 0 0 5 2 2 5 4 1 3 1 3 3 7 9 15 18 12 12 12
21 3 18 23 5 1 4 5 4 1 3 5 4 3 5 3 3 3 6 2 2 2 4 1 4 3 2 0 1 1 3 4 3 4 1 1 4 1 4 9 9 9 11 13 12
18 5 21 24 4 2 2 3 3 2 2 4 3 3 3 4 4 2 3 1 3 3 6 5 1 3 2 2 1 3 3 4 5 2 5 4 3 2 1 3 9 14 14 16 17
17 3 6 10 4 8 5 4 3 2 2 3 5 4 4 3 4 5 3 1 2 3 5 4 3 4 6 3 2 4 4 5 4 3 5 6 3 5 7 7 10 15 17 18 17
11 4 9 4 3 4 4 6 5 2 2 2 3 3 6 4 2 3 2 2 3 5 3 3 3 2 2 2 1 2 4 9 8 4 6 4 9 5 11 13 17 17 18 18 16
11 6 7 5 18 6 3 6 7 3 1 0 7 3 3 6 6 8 7 4 4 2 2 2 3 2 3 2 3 3 4 7 6 4 10 4 12 7 2 11 17 20 19 17 14
10 13 16 1 4 6 6 5 7 8 3 3 9 5 4 2 4 9 8 11 7 5 3 2 5 3 3 2 3 5 9 12 6 6 7 10 8 8 6 14 21 22 21 19 14

GFSSW_850_spd_048.txt.gz
Wind_Speed
17 17 19 20 21 21 21 20 20 20 19 15 14 13 13 14 13 17 18 9 4 11 10 7 5 7 6 7 6 3 5 4 6 9 10 7 7 4 4 9 6 5 1 7 24
17 17 19 20 21 21 21 21 19 19 17 14 12 11 11 13 15 16 7 7 10 7 9 8 9 9 8 8 6 8 8 4 1 13 14 9 4 7 6 3 4 6 9 19 27
17 17 19 20 20 21 21 20 18 17 14 12 10 8 9 10 12 1 3 5 13 12 8 7 9 9 8 8 9 7 9 4 8 10 12 15 8 11 8 5 4 9 18 23 22
18 18 18 19 20 20 19 19 16 15 12 10 8 7 8 7 1 3 7 2 9 15 12 9 10 10 8 8 11 7 3 3 13 13 7 23 23 11 13 8 1 9 24 25 23
18 17 18 19 19 19 18 16 15 13 9 8 7 7 6 7 9 4 2 6 3 10 14 12 11 11 11 11 7 10 4 2 10 10 4 14 15 3 4 4 12 19 22 20 17
18 17 17 18 17 18 17 14 13 9 7 7 7 7 5 9 6 4 4 8 3 9 13 14 8 11 4 4 9 6 12 12 5 9 9 13 7 5 5 9 15 20 17 16 15
18 16 17 17 17 16 15 12 11 7 6 7 7 6 9 14 3 5 9 10 6 6 9 13 10 9 2 3 4 10 6 7 7 12 6 10 9 6 4 11 17 17 15 15 14
18 16 16 15 16 15 12 10 8 6 7 7 5 6 9 4 8 8 8 5 3 5 10 6 9 8 5 4 5 5 9 7 6 13 4 10 12 4 5 11 16 16 15 14 11
17 15 15 14 14 12 9 8 5 6 6 6 4 5 8 5 6 5 3 2 4 2 4 3 9 4 5 9 7 6 7 9 7 2 6 8 9 4 4 11 14 14 14 14 10
17 15 14 13 13 9 7 6 3 6 7 5 8 5 6 3 4 5 3 2 3 7 6 4 5 7 7 10 8 7 12 10 11 6 12 9 7 5 6 12 13 12 12 12 11
16 15 13 12 11 7 8 4 3 2 12 8 1 5 4 7 6 5 4 3 2 3 6 7 7 9 14 5 5 3 8 13 8 4 7 5 6 3 5 11 12 13 12 9 8
17 14 13 11 10 9 13 7 5 1 7 17 16 14 14 11 4 4 4 5 4 2 4 6 4 4 5 3 5 6 7 7 6 5 4 10 9 7 9 9 11 11 10 9 8
16 14 13 10 10 12 18 16 5 3 6 5 12 8 5 6 3 6 3 3 2 4 1 8 5 4 5 7 8 5 5 10 7 7 2 8 6 8 5 8 7 7 8 9 10
17 15 13 11 7 13 18 14 5 3 4 7 7 5 7 4 5 2 5 3 2 2 2 4 3 5 7 6 4 6 3 6 11 12 7 6 5 10 9 8 8 10 12 13 14
18 16 14 14 6 12 7 11 4 3 5 10 7 6 7 6 5 3 4 2 6 4 4 4 6 6 5 3 2 4 4 5 5 5 5 9 7 8 9 9 11 13 14 15 14
18 17 16 18 16 13 6 7 5 6 6 8 8 10 10 5 4 3 3 4 4 2 2 6 3 2 4 5 3 12 8 6 3 3 8 3 6 6 5 8 12 16 17 16 15
20 19 19 19 13 13 10 7 5 8 3 8 10 12 12 6 6 5 7 8 7 10 9 7 4 4 3 9 6 6 6 3 5 5 6 3 6 10 4 4 12 18 20 18 18
21 21 21 25 16 12 12 5 10 5 7 3 8 13 12 9 4 4 7 9 4 7 9 9 6 5 1 3 3 3 4 3 4 3 1 2 5 3 3 1 7 17 19 20 20
22 23 25 28 24 10 9 9 11 6 6 10 10 14 8 7 4 7 6 7 3 3 7 6 4 4 2 1 3 4 5 3 2 1 3 3 3 6 3 4 10 16 20 22 21
24 23 22 28 27 8 5 13 9 3 4 10 12 12 13 12 9 9 9 4 4 2 3 4 4 2 4 2 7 4 9 3 3 3 4 4 4 2 7 8 12 17 22 21 18
17 11 16 25 23 11 9 14 7 8 6 10 11 7 10 9 8 10 9 4 4 4 1 5 3 6 3 7 6 5 5 1 1 2 2 2 3 3 4 9 14 18 21 20 18
18 7 17 26 14 15 12 12 5 6 6 4 5 7 12 11 8 10 11 3 5 5 6 2 1 4 7 3 1 3 6 9 4 5 1 2 2 5 3 5 9 15 19 17 17
20 8 21 28 12 11 9 12 5 8 6 8 8 5 6 9 5 5 6 2 4 5 6 6 4 4 5 5 5 7 9 5 3 1 6 3 2 4 4 5 11 14 17 18 17
24 7 9 13 14 16 16 15 9 5 5 4 5 4 7 6 1 7 7 3 3 3 3 4 3 7 9 2 0 6 11 12 11 4 5 10 9 8 9 9 11 15 17 18 18
18 10 16 12 14 13 18 13 14 7 2 8 5 8 8 5 6 5 5 5 3 6 3 3 6 4 1 0 3 4 7 13 15 13 8 10 11 9 9 11 13 16 17 18 18
16 9 15 24 21 14 15 14 17 5 6 8 7 10 7 5 9 10 10 7 5 7 5 2 3 3 4 2 2 6 8 11 15 16 15 18 18 10 8 8 14 18 20 20 20
18 15 24 10 11 13 12 14 12 11 2 1 11 9 6 4 5 7 7 8 6 7 6 4 6 4 2 2 2 6 16 18 13 13 14 14 14 7 7 11 17 20 21 21 20

GFSSW_850_spd_051.txt.gz
Wind_Speed
18 18 18 19 21 21 21 22 23 23 21 20 18 17 15 14 15 16 17 12 9 9 9 6 7 10 11 14 13 13 12 13 8 10 9 10 17 18 8 13 7 6 6 11 24
19 18 18 19 22 21 21 21 21 22 21 18 17 14 13 14 16 19 15 10 13 8 15 10 10 11 16 14 14 14 12 5 11 10 7 8 12 9 4 6 1 10 11 15 22
19 19 18 19 21 21 21 21 21 20 20 17 15 11 11 12 13 0 5 5 12 12 11 8 8 11 17 12 16 16 15 6 9 13 13 13 14 6 7 4 12 9 14 19 20
19 19 18 19 20 20 20 20 20 18 17 15 12 8 10 7 3 3 4 1 9 14 10 9 9 13 14 12 14 11 12 7 8 14 7 13 13 18 17 22 3 16 17 19 19
18 18 18 18 19 20 20 19 19 17 15 13 10 8 7 7 12 5 2 3 6 13 14 12 12 14 13 12 7 10 2 9 14 14 5 13 13 10 13 4 10 19 21 21 18
18 18 18 18 18 19 19 18 17 15 12 12 8 7 7 13 4 6 4 4 2 12 12 14 10 12 9 6 10 8 10 6 3 3 3 14 7 11 11 11 19 21 20 19 18
18 18 17 17 17 18 18 17 15 13 9 11 7 6 10 18 2 5 6 5 6 10 9 10 12 9 4 6 2 8 8 8 7 8 6 10 9 11 11 15 19 17 17 17 18
18 17 17 16 17 17 16 15 13 10 8 8 4 4 9 6 9 12 10 10 8 9 9 3 9 9 7 1 5 10 11 13 16 12 6 14 13 9 13 15 16 17 17 17 16
18 17 16 16 16 15 14 12 10 8 8 5 3 4 8 6 9 7 8 5 4 5 7 3 6 7 4 8 10 10 10 12 6 16 9 11 13 13 13 16 17 17 17 17 16
18 17 15 15 14 13 10 9 7 7 6 5 9 7 9 9 4 8 6 6 5 8 6 3 8 8 10 11 9 8 12 11 14 12 10 11 13 11 13 16 17 16 16 15 14
18 17 15 15 13 11 7 3 3 6 12 15 2 10 3 4 8 11 7 7 8 9 10 19 8 12 19 13 7 3 9 10 9 10 12 12 8 9 15 15 13 13 14 14 13
18 17 15 14 12 10 9 7 6 6 12 20 19 14 14 8 7 13 8 10 13 8 14 11 11 18 9 5 9 5 5 10 8 10 8 7 10 10 12 14 15 17 17 16 13
18 17 15 13 12 13 13 13 3 10 8 10 16 14 12 9 10 16 10 12 11 11 16 4 6 6 6 8 9 7 5 10 12 10 13 9 12 12 11 12 12 14 14 14 15
19 17 14 10 9 8 11 9 10 6 5 12 11 9 12 8 9 9 8 9 5 7 14 11 15 7 12 9 4 7 2 0 4 13 14 16 11 13 13 13 12 15 14 15 15
20 18 15 13 5 9 4 7 4 2 5 14 15 8 14 15 4 11 8 10 12 8 6 12 12 10 10 3 7 12 3 4 7 11 12 16 8 21 17 16 16 17 18 17 17
20 19 17 18 19 14 5 7 5 5 9 8 11 13 13 15 7 6 10 9 2 5 12 6 4 2 7 2 3 5 4 6 7 10 8 14 10 8 14 12 16 16 18 19 18
22 21 21 13 9 13 10 10 6 9 5 10 15 17 18 10 9 10 12 14 11 10 10 8 8 4 6 7 4 7 7 7 6 6 9 4 4 15 9 3 10 16 19 19 18
23 23 22 22 12 11 12 9 11 6 14 2 14 16 19 13 12 11 10 15 18 14 10 12 8 11 7 8 5 9 9 5 5 8 6 6 7 3 9 4 5 16 19 20 19
24 23 24 27 22 14 19 13 14 7 12 7 10 17 17 13 6 11 14 14 14 14 13 12 5 7 1 2 5 5 7 5 5 3 6 10 5 7 7 8 10 16 20 21 22
25 16 22 22 25 12 14 18 19 9 5 8 14 15 16 14 11 11 14 13 6 4 8 2 3 5 5 5 6 9 3 4 5 3 7 9 7 6 10 10 11 16 20 22 22
21 13 15 21 26 17 14 20 18 9 9 10 15 13 16 14 15 14 12 6 8 9 8 8 9 8 5 11 12 7 9 7 4 3 4 4 2 8 7 9 12 16 20 23 24
26 11 21 27 18 18 16 22 23 16 10 7 8 13 14 12 12 11 14 10 11 8 11 4 4 9 11 3 5 9 8 9 6 7 5 4 4 4 6 7 11 14 18 21 22
26 18 22 30 14 14 21 22 23 16 12 10 12 12 11 11 10 11 10 6 6 7 6 6 7 9 7 7 6 8 10 8 9 2 9 4 3 6 8 6 8 11 16 19 19
26 9 10 22 32 22 25 20 18 19 9 12 14 14 10 12 12 9 9 4 5 5 1 1 12 10 10 8 5 12 12 12 11 7 11 12 11 9 10 9 10 12 14 16 18
23 16 18 15 22 18 23 17 22 16 12 14 11 16 14 12 14 9 9 6 6 6 6 5 10 13 15 5 7 8 8 11 16 17 15 13 16 8 4 10 11 11 14 17 19
23 21 25 21 33 23 20 26 25 19 16 14 17 19 16 11 12 11 11 9 8 9 8 5 6 4 5 7 8 11 12 13 14 17 18 19 17 16 10 5 9 11 15 18 19
28 21 25 21 24 19 19 24 21 20 5 9 20 17 13 2 7 9 6 1 3 8 10 5 4 4 6 3 5 6 15 17 17 17 14 16 15 11 2 6 12 11 14 17 18

GFSSW_850_spd_054.txt.gz
Wind_Speed
18 18 18 18 20 21 22 23 24 26 25 23 22 19 18 19 19 16 18 9 11 8 9 5 9 11 13 16 17 18 11 14 18 15 5 24 16 21 12 6 8 16 15 19 19
19 19 19 18 20 22 22 23 23 25 24 22 21 18 16 17 20 21 13 10 14 13 12 11 11 11 15 18 18 13 11 16 16 7 7 7 12 9 3 11 26 24 25 27 26
18 18 19 19 20 22 22 23 22 24 24 21 19 16 13 16 14 2 4 4 8 10 12 13 11 12 14 20 16 16 14 13 17 21 14 12 7 29 6 13 3 15 26 27 23
17 18 19 18 19 21 21 23 22 23 22 19 17 14 12 11 2 6 5 3 4 10 8 12 12 13 14 16 15 15 17 6 15 12 9 11 22 17 4 4 0 23 24 25 25
17 17 18 18 19 20 21 22 21 21 20 17 14 12 9 8 18 8 7 4 4 10 11 10 10 10 14 15 14 10 7 13 7 14 3 14 25 8 13 12 20 23 21 23 21
17 17 18 17 18 19 20 21 21 19 17 14 12 9 7 13 4 5 3 4 2 7 10 12 12 11 18 18 6 6 2 15 14 10 17 6 23 10 14 4 18 19 20 20 25
17 17 17 17 18 18 19 20 19 17 14 11 9 8 9 22 6 3 6 6 4 7 10 11 11 9 9 12 7 10 5 6 14 25 15 12 14 9 17 18 16 16 17 12 15
17 17 17 17 17 17 18 19 17 14 11 9 7 6 9 8 10 14 10 12 10 7 9 7 5 8 8 9 2 11 3 2 7 7 16 13 6 13 17 18 16 16 16 16 15
18 17 16 17 16 16 16 17 14 11 9 6 4 5 10 6 13 12 10 11 3 2 4 3 2 6 6 8 4 3 5 14 13 12 12 14 9 17 18 16 17 17 17 17 15
18 17 16 16 16 15 14 14 11 9 7 7 8 8 12 11 9 10 7 6 6 7 4 4 4 5 3 9 9 13 15 14 12 10 11 13 6 13 20 23 21 17 17 18 17
19 17 16 15 15 14 12 8 8 2 11 12 7 8 4 4 7 12 12 9 11 9 4 4 2 8 12 11 14 10 7 15 13 11 8 9 15 13 15 19 18 25 23 21 16
19 17 15 14 14 13 11 7 6 7 11 19 21 18 16 10 10 13 15 11 15 11 9 2 14 10 14 15 21 14 4 7 8 9 10 11 11 11 15 13 16 18 18 20 20
20 17 15 14 14 14 14 16 8 14 8 16 24 21 16 13 16 16 14 15 7 10 10 7 14 27 21 11 11 5 6 11 4 8 8 8 11 14 11 10 11 16 20 20 21
20 18 15 11 10 9 11 10 10 7 5 11 15 15 16 11 15 18 22 16 9 14 5 2 18 21 20 8 13 12 6 17 9 16 7 7 1 3 13 15 16 23 26 26 22
22 19 16 13 7 6 4 2 4 4 5 11 16 9 17 18 2 14 8 14 13 9 4 11 19 16 17 6 8 1 11 13 12 7 7 7 7 16 15 15 14 14 15 17 18
24 20 18 18 19 11 5 5 5 5 7 7 11 12 19 18 14 5 13 15 9 10 6 3 4 12 3 2 3 6 6 14 9 9 6 13 13 4 10 12 14 17 17 17 16
26 22 23 15 10 8 8 4 5 8 4 9 13 14 17 14 15 10 10 16 11 9 10 5 13 11 6 8 5 11 9 4 6 6 5 7 13 8 20 17 26 18 21 20 20
27 23 25 25 16 3 9 7 12 12 19 3 11 15 20 17 14 12 13 14 17 16 11 11 13 14 9 6 4 17 8 2 2 5 5 13 5 7 11 9 17 20 20 21 22
28 25 27 27 22 13 16 12 11 12 16 8 11 14 17 18 10 14 15 16 17 18 12 5 3 6 8 4 14 8 3 5 6 5 2 5 11 5 10 10 13 18 21 22 23
30 20 28 28 25 14 10 20 16 26 6 12 12 13 16 18 13 11 14 13 16 16 16 5 6 15 14 4 4 6 7 4 2 2 5 10 13 6 10 10 10 14 18 22 22
26 12 14 24 24 19 13 18 23 26 18 10 13 13 17 14 15 13 9 10 16 6 5 9 25 9 8 7 10 6 8 8 10 4 2 3 4 8 10 11 10 13 19 22 23
23 10 23 35 16 17 15 21 30 28 12 9 10 16 13 15 14 16 14 13 13 8 6 11 5 6 11 5 5 10 10 9 4 7 2 3 6 3 3 8 11 12 17 20 23
19 17 31 37 12 13 19 25 29 25 16 14 12 12 13 14 11 13 9 4 7 7 3 4 4 6 11 8 8 8 12 10 9 2 4 3 3 5 5 7 10 10 17 19 23
24 8 13 31 24 20 23 22 25 31 18 17 12 15 12 12 8 9 9 4 4 2 3 4 6 10 7 11 5 6 11 11 10 2 4 10 14 8 11 9 8 8 7 17 19
22 12 18 9 17 17 21 20 25 23 20 18 16 17 14 9 12 11 11 7 4 3 2 3 9 12 15 15 7 10 12 7 10 10 10 11 15 12 4 12 14 11 10 10 11
23 17 22 12 27 22 22 25 24 25 18 20 13 16 13 13 12 10 11 8 7 7 8 5 6 6 9 10 12 11 15 14 14 15 14 14 14 12 11 12 4 3 9 11 14
30 28 24 16 21 21 21 22 25 18 23 29 17 14 15 10 5 9 2 17 7 11 10 7 3 2 3 6 7 5 10 16 16 15 11 12 11 8 3 2 4 6 10 6 9

GFSSW_850_spd_057.txt.gz
Wind_Speed
17 17 17 18 18 19 20 21 23 24 25 26 24 24 23 21 19 18 17 8 7 4 7 6 8 6 6 13 15 19 2 7 9 2 5 3 2 7 3 6 13 18 10 18 26
15 16 17 18 18 18 20 21 22 23 24 25 22 21 21 20 21 11 7 4 7 10 11 8 8 11 18 15 14 2 2 6 0 6 5 9 9 8 2 4 9 20 2 21 25
16 16 16 17 17 18 20 21 21 23 24 23 20 18 18 17 14 3 7 5 3 8 11 11 14 19 17 18 22 16 8 4 6 13 17 8 7 4 11 2 9 24 30 27 28
17 16 16 17 17 18 19 20 20 22 23 22 18 16 15 12 0 3 8 9 3 6 7 8 11 16 6 8 24 7 5 12 6 7 10 4 1 3 12 7 13 28 29 24 26
17 16 16 16 16 18 18 19 20 21 21 19 16 14 12 7 11 6 6 6 4 6 7 9 18 15 6 8 15 10 9 17 11 6 17 10 9 4 7 19 19 24 27 25 23
18 17 16 16 16 17 17 18 19 20 19 16 13 11 10 7 1 2 6 5 3 2 5 5 12 16 16 14 8 10 22 22 11 14 16 5 5 7 17 19 11 27 26 23 31
18 17 17 17 16 16 17 18 18 19 15 13 11 11 14 19 6 4 6 8 6 7 4 9 17 17 10 6 17 13 6 5 11 13 2 3 8 6 9 26 24 29 21 23 38
18 17 17 17 16 16 16 17 17 17 12 10 8 9 11 3 8 9 5 12 17 10 9 10 11 6 5 11 9 5 4 1 11 19 6 4 7 4 16 15 23 27 27 41 40
20 18 17 17 16 15 15 16 16 14 10 8 6 7 13 4 12 10 11 17 7 3 5 8 3 1 5 1 3 5 1 3 5 19 13 6 5 6 15 13 18 21 29 30 26
21 18 17 17 15 15 15 14 13 13 9 9 8 9 10 6 4 5 8 15 3 6 5 3 3 1 2 3 3 3 3 5 8 8 13 7 8 7 21 19 20 20 23 25 26
21 18 17 16 15 15 13 10 8 3 6 11 5 13 17 11 2 5 11 9 7 6 3 3 4 3 6 8 8 9 8 11 10 10 9 9 10 13 18 19 13 12 21 21 25
22 20 17 15 14 13 12 8 3 11 12 20 24 28 28 17 9 9 15 14 3 3 9 5 1 4 12 11 13 12 6 24 16 6 6 8 8 10 14 17 18 20 15 25 26
23 21 17 14 13 13 13 16 10 11 5 16 22 22 23 11 14 18 14 21 6 7 8 7 7 4 6 12 15 5 4 2 5 6 2 3 3 6 7 19 21 29 27 33 30
24 21 18 12 10 5 6 8 3 1 3 7 9 13 17 14 11 20 20 14 3 9 8 5 8 9 8 10 9 1 5 5 6 4 2 4 3 3 6 6 16 24 29 32 29
28 22 19 13 7 9 2 3 3 3 4 6 12 7 14 16 4 9 19 23 9 8 6 10 3 4 7 7 1 6 8 5 4 6 3 3 6 6 5 3 7 13 25 32 32
29 24 21 18 19 8 4 2 9 1 6 4 11 8 9 19 15 10 13 6 6 5 7 9 4 7 7 9 7 6 4 2 5 2 2 9 5 5 8 12 5 14 22 27 31
29 28 25 18 18 4 8 6 1 4 5 8 12 10 9 6 8 5 7 5 4 3 3 4 6 4 7 5 2 6 3 3 5 6 4 5 4 8 4 13 13 15 21 24 28
31 28 27 25 15 8 10 2 7 11 11 3 9 9 12 7 9 11 5 5 9 5 4 6 2 3 2 5 5 3 3 4 4 2 5 4 5 4 7 15 28 27 23 24 25
30 29 31 27 23 10 8 9 8 6 10 4 8 9 9 11 7 10 8 7 9 10 7 3 4 5 7 6 2 1 4 6 2 2 3 4 3 6 6 3 15 18 26 28 28
32 33 36 27 26 17 6 13 7 15 10 9 8 7 8 11 8 7 8 7 8 13 10 1 3 4 8 7 8 7 12 3 3 1 3 4 3 4 6 6 9 10 23 27 27
31 16 22 29 25 16 12 13 14 29 19 6 4 6 7 7 10 7 6 7 8 4 12 6 5 4 4 5 13 1 3 3 4 5 5 1 5 5 10 9 9 15 28 30 30
22 7 22 35 11 8 14 12 15 24 27 10 6 2 3 8 6 9 7 8 6 11 8 8 4 3 13 23 10 6 5 5 5 5 3 5 5 2 8 10 19 22 32 33 32
14 13 30 40 12 13 10 15 26 15 13 7 2 3 4 4 4 3 7 7 6 4 5 2 2 2 2 2 3 3 6 4 3 4 4 5 5 2 7 9 20 16 27 32 32
14 7 15 31 29 20 16 16 22 27 22 25 8 10 6 5 4 6 3 2 6 5 5 6 0 5 6 6 3 4 4 6 3 4 4 5 4 9 7 7 9 10 14 29 33
14 11 15 11 18 11 18 13 20 20 20 17 11 11 8 4 3 6 3 3 1 2 2 4 4 1 4 6 4 5 0 5 4 6 6 8 7 10 5 11 18 15 11 18 29
12 11 23 7 26 18 17 22 25 19 15 15 10 8 8 6 7 6 7 5 5 1 4 1 2 3 1 5 8 4 5 6 6 6 4 3 5 4 9 17 15 9 10 11 22
26 26 25 13 17 18 16 19 21 20 16 26 10 7 5 8 3 4 3 18 11 9 7 6 4 3 2 4 6 6 6 6 6 5 4 4 7 5 5 9 10 9 6 7 19

GFSSW_850_spd_060.txt.gz
Wind_Speed
14 14 15 16 16 17 18 19 21 21 22 23 24 24 23 23 20 16 11 8 1 5 5 4 5 7 7 6 9 6 3 4 5 6 4 9 6 8 2 3 8 4 6 19 21
14 14 15 15 15 16 17 18 19 20 21 23 23 22 21 21 17 5 7 5 3 6 4 4 8 7 6 7 3 4 3 5 4 5 4 7 5 8 2 7 6 10 17 28 25
15 15 15 15 15 15 16 17 18 19 21 22 21 19 18 16 9 4 8 7 1 1 1 5 9 9 6 12 9 3 4 7 1 5 11 7 6 4 5 1 9 19 26 28 27
15 15 16 16 15 15 16 17 18 18 20 21 19 17 15 11 1 2 6 6 4 1 1 3 4 2 4 5 7 4 9 14 14 11 8 5 12 3 3 7 7 9 24 29 33
16 16 16 16 16 16 16 16 17 18 19 20 17 16 13 7 8 6 4 5 5 4 1 4 10 9 3 8 12 6 5 9 15 13 8 7 6 6 5 3 8 17 22 28 28
18 17 17 16 16 16 16 15 17 17 18 18 15 13 11 6 3 2 2 1 5 4 2 8 6 11 12 6 6 2 10 16 8 11 7 2 4 10 3 9 23 19 19 28 29
19 19 18 17 17 16 16 15 16 16 16 15 14 13 15 16 3 5 7 6 5 4 5 7 9 8 4 6 9 9 6 5 7 8 1 6 5 4 20 15 26 22 23 33 35
22 19 18 18 18 16 16 15 16 16 14 13 12 13 11 3 11 11 12 8 8 12 12 11 10 8 3 7 7 3 4 4 3 1 4 8 2 4 20 27 22 25 27 34 37
22 20 18 18 18 18 16 15 16 15 13 11 10 8 11 6 9 13 14 8 8 10 13 9 11 1 4 3 4 5 1 6 1 8 2 5 3 4 26 21 23 29 35 39 35
23 18 19 18 18 18 16 16 15 13 12 10 11 8 8 1 12 9 14 7 6 6 3 3 3 2 3 5 2 3 2 3 5 5 4 3 6 6 25 22 26 30 37 37 34
23 20 19 19 17 17 15 11 8 3 6 10 5 13 18 7 6 4 10 7 13 4 3 5 4 3 4 5 4 6 11 10 10 8 4 8 6 10 15 23 25 29 34 37 37
24 20 18 18 17 15 14 10 2 4 12 19 21 27 28 21 10 8 9 4 5 4 3 5 3 4 1 5 1 5 8 17 16 6 10 5 7 6 9 19 32 35 32 34 32
26 22 17 17 16 14 12 9 8 10 6 18 20 21 23 11 11 14 6 10 6 6 5 6 7 1 2 4 4 10 8 6 7 3 6 5 3 2 3 2 15 25 37 41 41
27 22 18 16 14 12 4 6 2 3 2 7 6 8 14 11 6 18 16 5 4 7 3 4 3 4 2 2 5 7 7 5 2 3 5 2 4 4 7 10 5 15 25 34 40
27 25 20 18 9 10 2 3 7 3 3 4 6 5 13 15 2 9 18 10 6 6 6 7 7 6 4 9 6 10 3 4 2 4 4 2 4 6 5 9 14 20 30 33 43
27 27 21 23 22 13 6 4 10 2 7 4 9 8 7 12 4 2 11 16 8 6 4 6 2 7 7 6 6 8 3 7 7 3 3 2 5 5 5 12 9 13 30 35 41
26 30 26 23 22 14 10 6 2 5 5 5 6 7 7 7 5 4 5 6 5 4 2 2 3 2 3 4 4 4 6 3 4 4 4 6 3 8 6 9 8 11 25 33 41
26 28 28 28 19 12 12 1 9 8 7 4 6 8 9 7 6 6 4 4 1 4 3 5 4 2 1 3 1 4 4 5 3 3 5 3 5 5 7 14 8 22 24 31 37
24 29 28 34 23 15 8 12 8 6 4 4 4 6 5 7 5 5 8 8 8 8 7 4 4 5 2 3 5 2 2 7 4 1 1 3 5 7 4 3 2 12 21 27 36
28 27 35 31 27 21 6 13 6 9 6 5 5 5 9 9 8 7 6 6 7 10 9 6 1 4 5 2 5 5 6 3 3 2 3 4 4 5 4 3 3 8 19 29 31
29 16 25 33 27 15 12 12 9 30 7 3 3 3 8 9 9 6 7 7 8 3 11 6 4 4 3 5 9 3 2 1 4 4 4 1 5 5 8 7 9 13 27 35 35
31 8 27 38 14 7 15 12 13 22 14 6 3 6 5 9 8 9 10 9 6 13 9 6 5 4 8 4 3 4 5 6 5 4 1 4 5 4 10 10 19 23 29 34 35
24 14 32 41 11 12 8 18 19 13 5 4 5 5 4 2 2 7 6 0 4 6 8 8 2 2 8 7 4 2 6 5 4 4 6 5 6 2 3 9 19 24 28 35 36
15 8 12 31 29 19 18 18 21 22 21 10 7 7 6 2 4 5 3 3 1 5 13 10 5 7 8 7 3 4 5 5 6 3 4 6 6 6 7 7 12 19 27 33 38
15 11 21 13 20 17 19 12 17 15 19 13 8 15 9 5 3 5 2 3 2 8 4 5 5 4 5 3 3 1 3 2 4 4 5 7 7 8 7 8 20 23 15 27 32
10 8 24 7 27 20 21 22 25 20 10 17 15 13 6 8 8 7 7 4 5 1 4 2 2 2 3 3 3 3 3 5 4 3 5 5 6 5 5 3 13 19 14 20 28
40 23 21 23 18 18 21 22 24 22 18 29 16 14 10 10 18 17 21 20 13 10 6 7 6 3 4 3 4 6 6 7 5 5 5 5 6 2 5 9 6 7 7 11 21

GFSSW_850_spd_063.txt.gz
Wind_Speed
13 14 14 14 15 16 17 18 19 19 21 22 23 25 25 23 18 11 5 7 2 5 4 3 3 1 4 2 6 6 4 3 5 3 4 4 2 2 2 2 3 3 6 18 19
14 14 15 14 15 15 16 17 18 18 20 22 22 23 23 21 12 4 6 6 3 4 3 3 2 1 3 1 2 4 4 7 5 3 4 4 4 2 2 1 5 11 15 24 21
16 15 15 15 15 15 15 17 17 19 19 21 22 21 20 17 8 1 5 6 3 2 3 1 1 2 2 3 6 6 5 6 6 11 3 6 5 5 3 3 6 16 26 26 21
18 17 17 17 17 16 16 16 17 18 19 21 21 19 17 12 2 2 3 3 2 2 2 4 4 2 1 4 5 2 14 6 6 6 6 7 9 2 6 4 1 16 25 24 22
19 18 18 18 18 18 17 16 16 17 19 20 20 17 16 9 8 6 3 1 2 1 1 2 1 1 1 5 7 2 2 3 10 10 5 8 4 3 3 8 10 25 23 23 22
21 20 18 18 18 18 19 17 17 17 18 20 18 15 14 6 4 6 4 2 1 2 2 2 3 7 7 5 3 1 9 5 7 10 11 6 1 4 6 15 19 24 22 17 26
23 21 19 19 19 19 19 18 18 18 18 19 17 15 18 18 6 9 8 6 6 6 6 5 7 4 7 5 7 9 5 5 1 4 4 12 4 1 16 18 21 19 19 25 30
24 23 21 19 19 20 20 18 18 19 18 18 15 14 12 7 11 13 9 8 9 8 8 10 11 9 4 4 4 5 4 1 5 2 5 3 3 4 19 21 21 22 24 25 37
25 24 22 21 20 21 21 19 18 19 19 16 13 8 12 5 7 13 12 10 7 10 10 5 5 5 1 3 4 2 3 1 6 3 2 4 3 5 19 21 21 23 29 30 36
24 24 21 20 19 20 21 20 17 17 15 14 13 8 11 2 3 7 18 15 8 2 2 1 0 2 3 3 2 2 3 2 4 4 2 2 1 4 23 21 23 26 27 32 33
23 23 21 19 18 19 19 15 10 5 8 10 3 8 11 10 7 5 11 16 11 4 3 2 5 1 3 5 5 3 4 4 6 6 5 7 5 8 19 12 15 22 27 32 35
23 22 20 18 18 18 16 11 6 3 12 19 25 30 28 25 9 8 8 9 7 5 1 3 3 5 1 4 1 3 3 7 9 7 8 6 5 3 9 15 28 31 30 36 36
25 22 19 17 17 18 15 8 9 13 7 15 19 19 28 17 11 14 8 11 5 6 5 6 5 4 3 2 5 5 4 6 9 2 2 5 0 6 6 9 18 25 37 39 39
26 22 20 16 16 17 12 1 6 4 2 6 5 8 15 10 6 21 10 11 2 9 6 5 3 3 2 5 4 4 4 7 5 2 3 2 3 5 8 12 9 23 30 39 41
22 21 23 19 10 9 6 4 3 3 3 4 4 3 17 19 3 11 21 14 8 6 6 6 4 5 6 10 6 7 5 4 2 1 3 1 3 5 7 9 15 20 31 37 43
22 20 24 23 26 17 7 6 7 3 7 4 8 7 7 7 2 3 12 11 6 5 2 5 3 6 6 1 5 3 2 5 5 2 2 2 4 4 6 16 17 22 30 39 41
23 21 30 28 26 17 16 3 2 5 5 4 5 6 6 6 3 2 6 6 6 4 4 0 3 2 2 2 1 4 5 3 4 4 4 1 2 8 7 5 9 19 33 38 45
24 21 31 33 26 12 10 3 8 6 7 5 2 5 7 5 5 6 5 6 2 4 3 5 5 4 1 3 3 3 5 5 3 3 4 2 4 6 3 13 7 22 31 36 41
25 26 30 38 29 20 7 10 7 6 4 4 3 5 4 4 6 3 7 7 8 8 7 5 4 3 2 1 5 1 1 1 5 3 2 3 6 9 7 4 4 7 16 28 37
29 28 36 39 31 23 5 17 7 6 5 4 8 6 8 7 6 7 7 4 5 10 7 7 1 2 2 2 2 3 7 3 2 3 3 4 4 5 7 5 3 4 14 24 30
28 14 17 39 31 18 11 11 15 23 7 3 3 2 7 8 9 5 7 5 7 4 5 5 5 4 1 5 7 2 2 1 4 4 4 1 5 6 7 6 7 11 21 25 29
28 7 22 44 14 9 14 8 9 21 19 4 4 4 4 7 7 9 10 8 10 11 9 6 6 6 9 3 4 4 7 6 4 4 2 4 6 4 9 8 9 10 16 23 27
18 21 29 44 13 14 8 14 12 10 7 7 5 5 4 4 3 7 8 8 8 9 9 7 1 2 6 4 2 5 5 4 4 4 6 5 6 3 6 8 17 16 16 22 29
16 8 16 33 39 20 20 16 21 20 14 4 3 4 2 3 3 4 6 2 7 11 11 14 4 7 7 8 3 3 4 5 5 3 4 6 6 6 8 7 10 20 23 24 29
22 13 17 12 25 18 21 16 23 15 19 23 5 8 2 3 2 4 3 2 2 8 5 4 6 5 4 4 4 4 4 5 6 6 6 7 7 9 8 8 16 20 24 23 28
21 10 21 5 27 24 20 22 26 22 9 9 11 7 13 10 7 5 6 4 5 2 5 1 4 3 3 2 3 3 6 5 4 3 6 6 6 7 6 7 6 11 18 25 28
33 27 22 16 19 21 27 22 24 21 23 23 22 13 10 13 16 22 16 7 7 10 6 6 6 4 5 1 3 5 8 8 6 6 6 6 9 2 2 4 6 6 6 7 14

GFSSW_850_spd_066.txt.gz
Wind_Speed
15 15 15 15 16 16 17 17 18 19 20 22 23 24 25 23 18 9 5 7 4 5 3 3 2 2 0 3 4 3 4 2 4 3 4 3 2 2 1 1 2 2 8 13 17
17 16 16 16 17 17 17 18 18 19 21 22 22 23 23 21 12 2 5 6 2 2 2 2 4 2 2 3 5 5 3 7 6 4 2 2 4 2 1 2 3 7 11 18 18
18 17 17 17 17 17 18 18 19 20 21 22 22 22 21 18 8 1 2 4 3 4 3 2 4 1 2 3 5 5 6 6 7 4 3 3 2 0 1 2 5 13 19 20 20
21 19 18 18 18 18 18 19 19 20 21 22 23 22 19 12 2 4 2 5 3 4 5 7 5 1 2 3 4 2 9 6 1 5 5 5 4 2 2 4 3 14 22 23 19
22 23 20 19 19 19 19 19 19 19 21 22 23 22 18 9 9 8 5 3 1 2 5 5 3 2 3 2 3 3 3 3 6 8 6 6 2 3 7 7 10 21 21 20 19
24 23 24 21 20 20 20 20 19 20 21 22 23 21 16 7 5 8 6 4 1 1 1 4 3 5 4 3 1 1 5 3 7 7 6 3 2 3 4 12 14 14 14 14 18
25 25 25 23 21 20 21 20 19 20 21 22 22 20 20 21 8 11 11 8 6 3 4 4 5 5 5 3 2 3 4 5 1 3 3 6 3 4 15 20 15 18 12 15 10
24 25 24 23 22 22 22 21 19 21 22 22 21 17 13 10 12 15 12 10 8 5 9 8 9 8 1 1 4 4 5 3 3 4 1 4 1 4 17 23 14 13 17 16 20
22 23 23 22 22 22 23 22 20 22 21 21 16 10 13 5 8 12 15 13 5 7 9 10 7 1 1 4 4 6 1 1 6 4 3 3 2 6 17 18 17 17 17 18 25
23 21 22 21 19 21 21 21 19 19 17 13 13 7 13 3 5 8 16 14 9 3 2 4 2 3 3 4 4 4 2 3 5 3 3 1 3 5 17 16 20 21 18 20 28
25 22 20 19 18 19 19 16 8 5 6 11 3 8 9 7 7 5 11 13 9 2 1 2 4 3 6 5 5 5 2 3 5 5 4 6 4 10 18 12 15 22 24 26 31
26 22 19 18 16 16 14 12 6 6 13 19 24 31 30 28 9 8 10 9 5 6 1 4 2 4 5 3 4 2 1 6 8 3 5 3 6 5 15 20 24 27 28 30 31
24 22 20 17 15 17 13 11 6 13 7 14 20 19 26 20 11 14 13 12 5 5 5 5 5 4 3 2 2 3 3 4 7 3 1 5 3 5 5 12 22 23 32 30 33
21 20 16 15 14 15 14 5 11 4 3 6 5 8 16 14 6 22 15 13 2 10 7 5 2 7 5 4 6 3 6 3 3 2 2 0 4 5 5 10 9 23 30 36 36
20 18 16 19 8 5 5 4 3 2 4 3 4 6 13 19 10 14 18 7 8 6 6 6 5 6 6 5 4 8 2 1 2 3 2 1 3 6 1 6 13 18 32 38 39
20 18 16 22 25 14 10 3 1 2 8 4 8 7 6 5 4 6 14 12 4 5 1 5 2 5 7 2 5 3 2 6 5 3 1 2 4 5 5 10 10 16 26 38 42
22 20 22 23 24 17 15 6 2 6 4 4 4 5 5 6 4 5 7 7 6 4 3 2 3 2 3 2 3 4 4 3 4 4 4 1 2 8 4 6 8 13 30 39 42
24 22 26 27 24 13 10 3 11 5 7 4 1 5 7 5 4 5 7 6 2 4 3 6 5 6 4 5 7 4 5 5 2 2 4 3 4 5 5 7 13 16 27 32 39
25 27 29 28 27 19 11 7 7 6 5 3 1 4 4 5 6 5 7 8 9 8 7 5 4 1 1 1 3 3 2 5 6 2 2 3 7 9 3 0 2 5 11 24 31
30 29 34 30 31 25 5 15 9 5 4 3 5 5 8 6 6 8 8 5 6 10 6 7 1 2 3 3 4 2 6 3 3 2 3 4 5 5 8 9 2 3 9 18 25
28 14 17 32 31 19 12 11 15 17 3 3 2 3 5 7 9 6 9 3 7 5 5 5 4 3 2 5 8 2 0 4 4 5 4 1 6 7 6 6 7 7 9 13 22
27 8 17 38 20 16 16 7 11 20 11 3 2 4 4 6 6 7 10 9 13 12 9 6 5 5 8 1 3 4 7 6 4 4 2 4 6 5 8 6 6 8 7 9 16
19 18 18 46 14 17 15 14 6 8 8 5 4 4 3 2 3 7 7 7 16 8 9 8 1 1 7 5 2 3 5 4 4 3 6 5 6 2 6 8 13 11 9 10 13
18 7 17 36 39 19 22 17 21 18 7 6 2 3 0 3 4 3 7 3 12 10 8 12 4 7 8 8 5 4 5 5 6 3 4 6 6 9 9 7 12 11 13 16 18
16 8 16 13 22 20 23 16 22 16 17 15 3 5 4 3 2 4 3 3 2 7 5 7 7 5 4 4 5 6 5 8 7 6 6 7 8 9 7 6 11 14 15 15 20
5 6 20 6 28 25 17 24 27 25 10 12 8 11 7 5 6 2 2 2 5 4 6 2 5 4 3 2 4 2 7 6 6 4 6 5 7 9 11 8 9 11 12 12 16
41 18 11 18 18 19 27 23 20 20 22 13 22 12 7 16 22 20 14 10 4 4 8 8 6 4 4 3 3 6 8 9 7 5 7 8 10 4 3 3 4 9 8 5 6

GFSSW_850_spd_069.txt.gz
Wind_Speed
17 16 16 16 16 16 16 17 17 18 19 21 22 22 23 23 18 7 3 4 3 7 4 5 4 4 5 5 4 4 1 2 4 2 3 1 1 1 3 4 2 1 4 7 16
19 18 17 17 17 16 16 17 18 19 20 21 22 22 22 22 17 2 1 4 3 5 4 5 8 7 4 5 3 2 3 7 5 4 3 1 2 3 2 4 2 2 3 14 14
21 20 20 18 18 18 18 17 18 19 20 22 22 22 21 21 11 4 2 3 1 4 3 6 8 6 4 4 5 4 5 2 4 9 4 3 3 2 1 3 5 7 14 17 17
21 22 22 20 20 19 19 19 18 19 21 22 22 22 21 16 2 5 4 1 1 3 5 7 7 4 3 3 4 3 5 6 4 3 2 3 3 3 0 4 6 9 16 17 18
23 22 21 22 23 20 20 20 19 19 21 21 22 22 21 11 11 10 6 2 4 4 6 5 3 2 1 2 3 4 3 3 3 3 3 6 5 1 6 8 4 15 17 16 15
24 24 24 22 23 24 21 20 20 20 21 21 22 21 18 7 5 8 7 6 5 5 5 5 1 3 2 3 3 3 1 3 3 2 3 3 1 3 3 3 7 11 14 14 14
21 22 24 23 22 24 22 21 20 21 22 22 21 21 21 20 9 12 11 9 6 3 3 2 2 3 5 2 2 2 1 3 1 2 1 3 1 2 2 5 8 7 12 13 15
21 21 22 22 22 23 23 22 20 22 23 22 20 17 13 15 11 15 14 11 8 6 6 6 6 5 3 1 3 2 3 2 0 3 1 4 3 2 7 7 10 9 11 11 12
22 22 22 21 21 21 22 21 19 23 23 21 15 10 12 7 7 13 15 12 6 5 8 8 4 3 2 3 1 4 1 1 3 5 2 5 2 7 12 9 8 12 12 9 13
22 22 21 21 20 20 20 19 17 19 19 12 13 6 12 3 4 9 11 12 9 4 4 5 3 1 2 2 5 4 2 1 3 1 3 4 4 8 16 13 10 10 12 13 16
22 21 21 19 18 18 18 13 9 6 5 11 3 7 5 3 6 8 10 14 10 5 3 1 2 5 6 7 4 5 4 3 3 3 3 4 4 13 18 14 14 14 13 14 22
18 19 19 17 17 15 12 8 8 7 12 18 24 30 30 25 8 9 11 12 8 6 3 1 5 4 4 4 5 4 4 5 5 2 5 2 6 7 15 20 23 22 20 20 19
18 17 16 14 16 14 13 9 8 11 6 12 20 19 28 24 14 14 15 12 5 5 6 5 2 5 4 3 5 4 4 4 6 2 1 1 2 4 7 15 15 19 22 22 26
19 17 13 10 11 13 12 4 5 8 3 6 6 7 15 13 8 25 18 13 3 10 8 5 2 5 4 4 5 3 6 3 2 2 1 2 2 3 7 13 13 22 24 28 28
22 18 13 13 6 7 4 7 1 1 4 2 3 5 9 14 12 19 20 9 9 6 6 4 6 4 5 5 6 5 4 3 1 2 1 1 2 3 3 11 18 25 28 30 33
23 20 14 17 22 12 13 1 6 1 9 4 6 7 6 7 2 9 12 7 6 5 1 4 1 4 5 4 4 5 3 4 3 2 1 1 3 3 4 5 5 20 26 31 35
25 23 21 19 20 19 12 4 3 7 4 3 4 5 5 6 3 4 10 8 6 6 4 1 3 2 3 3 1 2 3 0 1 1 2 4 2 8 5 8 10 11 21 34 37
24 22 26 26 16 16 12 3 10 6 8 5 1 3 6 5 4 3 9 12 3 5 4 6 4 7 5 5 5 3 4 4 3 3 2 2 5 4 4 9 14 15 13 18 29
23 26 30 30 27 19 12 10 8 7 4 4 1 3 4 4 4 3 7 13 13 8 7 5 5 2 2 3 3 3 3 1 6 2 0 2 4 9 3 7 10 11 10 9 18
27 27 34 30 29 23 8 21 8 6 3 1 6 5 9 6 6 8 8 5 8 9 5 7 3 1 2 3 4 3 7 3 1 3 3 2 3 4 5 4 5 8 11 9 9
29 16 14 32 28 20 15 16 14 13 1 1 2 2 4 6 8 6 9 2 12 9 5 5 3 1 3 5 9 4 3 3 4 2 2 2 3 6 6 3 4 6 10 9 7
28 9 18 40 20 17 20 21 22 24 9 4 2 3 3 5 6 6 10 6 16 16 10 6 4 5 6 2 2 2 6 6 3 4 1 2 6 4 8 7 8 10 9 7 6
15 16 20 48 14 16 14 21 18 13 12 6 4 5 0 1 3 5 6 5 18 9 11 8 2 3 2 1 1 3 4 3 4 3 7 5 5 1 6 6 9 11 10 8 8
17 7 12 37 38 21 20 21 23 29 8 12 4 3 1 3 3 2 5 3 15 8 12 14 4 6 8 8 5 4 6 7 6 3 5 7 10 8 9 5 12 10 9 10 11
21 7 14 14 22 22 20 15 26 16 19 13 6 6 5 4 2 3 2 2 3 6 5 5 6 6 5 4 5 5 5 11 10 7 7 12 11 11 10 5 6 7 8 12 12
17 9 22 7 34 23 19 22 28 27 14 14 7 13 12 4 6 3 5 3 1 0 5 3 4 6 4 3 6 4 6 8 7 4 9 8 9 11 8 7 9 9 8 11 13
36 36 20 23 18 19 26 24 18 20 20 17 16 6 10 18 14 11 9 7 4 1 3 3 6 4 5 1 4 4 7 10 5 5 7 10 11 1 5 5 4 5 4 4 4

GFSSW_850_spd_072.txt.gz
Wind_Speed
16 17 17 16 17 17 17 17 18 19 20 21 20 20 21 22 19 8 1 1 3 9 8 7 6 5 5 7 6 5 6 3 3 5 4 2 3 2 1 3 3 2 2 2 12
21 21 19 18 17 17 18 18 19 20 21 22 22 21 21 21 18 4 3 1 4 9 6 7 7 8 5 6 5 8 5 0 3 7 9 6 3 3 5 4 5 4 2 9 14
24 23 22 24 21 18 18 19 18 20 21 22 22 21 20 20 12 5 5 2 4 7 6 7 5 6 8 6 7 3 8 7 7 8 9 5 3 2 6 6 4 5 6 13 17
25 24 22 22 22 22 22 19 20 19 22 22 23 23 20 14 4 5 6 3 4 7 6 6 6 7 8 7 5 8 5 8 9 4 3 1 1 2 6 8 10 6 9 15 14
22 22 23 24 23 22 23 22 20 19 21 21 22 24 21 10 10 12 9 6 7 8 8 7 6 5 7 3 4 9 7 6 4 3 1 1 3 3 5 9 7 8 12 14 11
22 21 23 24 25 24 24 24 21 19 21 20 21 23 15 13 8 8 11 8 9 9 9 7 2 4 5 4 6 2 6 2 3 4 3 4 1 5 6 5 4 3 5 9 10
21 21 20 21 23 24 25 23 20 20 22 21 20 22 17 20 11 10 12 12 11 8 6 6 5 4 3 3 1 2 6 6 4 2 1 6 9 1 5 2 5 5 5 7 10
20 21 21 20 20 22 24 23 19 20 22 21 19 17 12 14 13 14 16 14 12 9 8 6 5 7 7 0 4 6 6 7 5 4 2 5 7 6 7 5 8 12 9 6 13
23 20 20 21 20 20 22 21 18 20 20 21 13 9 12 11 12 15 19 13 11 9 9 7 5 6 5 9 8 7 6 5 4 3 1 5 8 8 10 8 8 10 9 11 10
22 22 21 20 19 19 20 20 17 19 17 13 11 6 15 4 5 9 16 16 8 9 5 7 7 9 9 9 9 6 8 4 7 4 6 9 10 6 12 10 9 8 11 10 15
20 18 18 19 18 17 17 12 8 5 5 10 3 6 4 4 6 10 14 14 14 12 10 8 8 10 12 12 8 9 7 7 6 3 7 8 10 8 14 13 11 12 11 13 16
19 19 15 16 15 15 12 6 5 6 13 17 23 28 25 10 6 11 14 18 16 15 9 6 12 4 3 5 8 9 9 12 7 2 4 8 9 6 14 16 15 15 15 16 19
20 17 14 14 14 14 10 9 10 7 8 12 16 21 20 21 15 16 19 21 19 18 14 13 1 4 9 8 10 10 11 8 8 5 8 9 11 9 10 14 16 16 16 18 21
20 19 14 11 10 7 8 7 6 9 5 5 7 8 15 12 13 22 21 19 10 19 14 11 8 8 10 10 10 10 8 10 7 6 5 3 3 7 10 13 15 19 22 22 24
30 19 17 10 7 5 5 6 4 3 6 7 5 5 7 20 9 23 23 17 19 12 10 12 9 11 12 12 9 7 3 7 6 7 6 9 6 7 4 10 14 22 25 26 26
18 26 16 16 18 14 15 3 7 6 10 3 6 8 8 17 6 19 19 15 17 13 10 12 3 6 4 6 9 2 6 4 5 5 7 2 5 2 5 3 3 5 22 27 28
21 27 22 19 14 14 17 4 6 13 4 5 5 7 12 11 10 16 23 22 16 17 17 15 14 6 6 9 8 9 8 6 6 6 5 4 5 9 8 4 5 8 7 17 28
21 26 26 27 18 11 13 6 14 8 25 3 2 8 9 13 11 15 23 21 24 19 13 15 14 14 11 13 8 14 11 5 6 5 4 3 5 2 3 5 9 8 8 10 17
18 25 27 29 28 18 13 14 15 18 7 19 3 7 9 12 6 13 21 24 23 20 13 16 15 6 7 5 10 7 8 1 1 1 4 5 7 11 4 4 6 4 4 6 11
22 22 28 27 27 25 11 28 18 16 12 7 17 9 12 14 11 14 17 19 24 23 18 7 11 7 7 7 3 5 11 5 4 5 7 6 8 7 5 1 1 4 5 2 2
26 12 15 27 29 19 15 20 26 18 15 10 9 9 7 10 18 15 13 5 25 20 20 11 7 6 8 11 12 6 7 4 3 3 4 4 4 3 6 3 5 4 5 5 2
26 6 15 25 18 11 19 29 17 26 19 7 4 5 4 5 12 16 18 13 25 25 23 19 8 9 12 4 5 10 12 13 6 7 3 4 8 7 10 5 6 8 9 5 4
16 14 13 36 12 16 24 28 25 17 26 10 9 6 2 3 6 14 9 6 16 19 19 16 10 9 9 7 5 8 11 12 7 3 11 9 8 3 5 7 10 10 7 9 7
16 6 15 35 40 29 22 23 31 34 18 23 7 6 5 3 5 2 5 3 13 24 15 23 14 17 14 14 10 13 16 15 15 10 12 13 17 13 13 14 13 9 6 8 8
24 10 22 12 20 27 29 21 25 26 33 23 19 15 12 4 3 3 2 3 4 4 9 12 16 17 17 15 12 16 14 16 17 18 17 14 17 13 14 15 15 8 5 6 9
21 11 31 14 39 30 25 27 31 32 24 25 21 21 11 11 3 5 4 7 1 3 6 6 11 11 13 11 12 15 16 15 17 16 14 17 18 14 18 13 12 11 8 7 5
33 35 29 23 22 19 24 29 30 27 32 36 23 17 23 18 8 0 3 5 6 4 4 3 9 6 12 7 6 8 15 15 15 13 15 16 17 14 14 14 17 11 8 7 5

GFSSW_850_spd_075.txt.gz
Wind_Speed
20 22 21 21 20 19 19 18 18 19 21 22 22 24 23 23 21 13 5 7 6 8 5 6 7 8 7 12 9 10 12 11 2 6 3 5 8 2 7 15 6 8 10 7 11
24 24 23 22 22 22 22 21 20 20 21 22 23 23 24 24 21 13 12 7 5 9 6 8 8 8 13 9 6 10 13 5 9 10 12 9 4 7 6 7 8 1 2 4 10
25 25 26 25 24 23 23 22 22 22 22 22 23 23 23 22 17 3 10 5 5 8 7 9 8 9 13 8 11 14 12 6 8 9 12 9 10 4 9 14 17 14 4 9 10
22 22 24 24 23 24 24 23 23 22 23 23 23 23 21 16 7 3 8 6 5 8 7 8 11 12 12 9 11 10 14 6 11 7 9 9 9 10 5 11 13 13 4 11 10
22 22 22 22 23 24 27 26 24 24 23 22 22 22 22 9 16 13 12 9 8 10 10 10 12 12 13 5 7 12 14 7 8 7 7 5 5 6 5 8 12 7 3 7 8
22 22 22 22 22 23 24 26 26 22 24 22 21 19 14 18 8 11 12 11 9 13 11 11 9 6 12 9 10 11 10 10 7 9 7 10 4 9 10 4 9 8 6 4 6
23 23 23 23 22 21 22 24 22 21 22 23 21 20 16 26 9 9 10 11 11 13 11 10 9 10 7 11 7 13 14 14 13 11 10 5 10 30 6 4 9 6 3 2 2
22 23 23 23 23 21 21 22 21 20 22 21 19 14 14 12 9 14 14 13 12 12 11 6 9 11 12 10 12 14 18 9 6 20 4 8 6 34 8 4 12 11 8 6 6
21 22 22 23 23 22 22 21 20 20 21 20 13 8 16 13 16 16 18 18 15 13 11 9 10 15 12 11 16 16 6 16 15 3 4 7 5 2 7 3 10 12 12 9 14
20 20 21 20 22 21 21 21 18 18 16 11 9 9 20 9 6 12 19 20 18 14 12 13 14 13 13 13 13 4 15 5 10 8 8 12 12 6 9 6 6 14 17 20 23
20 19 20 21 19 18 18 15 11 7 9 13 4 15 5 7 7 10 18 21 18 18 16 19 12 15 16 14 18 10 12 9 8 5 5 13 13 7 11 9 10 9 20 21 18
19 18 18 18 17 16 12 6 9 8 14 21 27 29 27 8 6 15 20 22 23 19 19 13 15 16 6 9 10 11 14 11 12 4 3 12 13 7 13 13 16 14 15 19 23
17 22 18 16 19 15 12 11 10 8 11 20 26 29 30 25 19 18 25 30 24 22 19 18 14 10 6 9 11 14 13 11 15 5 10 13 13 12 14 14 15 17 16 20 22
18 20 20 16 11 8 13 7 8 6 7 14 9 11 19 19 16 29 27 30 20 23 22 18 18 8 12 13 11 15 10 9 12 10 3 12 6 16 15 14 16 19 20 22 25
19 17 22 16 13 5 3 4 4 4 7 6 10 4 7 21 6 27 32 31 26 21 16 19 17 12 15 14 12 13 1 8 11 12 15 9 8 11 11 14 17 18 23 24 26
21 18 18 19 20 17 9 7 7 8 15 7 8 9 10 21 23 5 35 32 27 21 20 20 17 15 17 13 10 3 7 10 11 12 10 11 10 9 7 6 4 13 24 25 26
21 18 19 18 20 12 17 12 8 16 9 16 9 10 13 11 17 17 28 27 23 23 22 21 15 14 6 11 10 11 11 8 6 7 10 7 5 7 11 4 1 4 5 19 27
22 19 21 22 20 15 10 9 17 22 28 4 4 9 11 10 17 18 24 23 27 25 15 17 20 21 14 17 13 16 15 7 6 3 6 5 6 8 4 2 5 6 7 8 16
20 20 21 22 26 26 16 15 24 30 18 32 13 6 10 12 9 19 25 26 28 26 21 19 22 24 18 15 15 13 16 13 9 4 7 8 8 10 8 4 4 7 4 9 12
27 23 26 22 23 24 7 16 28 25 27 12 24 14 11 12 11 13 22 24 26 29 23 8 15 12 13 11 13 9 13 9 8 10 10 11 12 9 9 7 5 4 4 1 3
29 13 17 23 23 18 8 18 31 31 21 22 16 14 19 7 15 15 12 11 25 26 23 18 12 15 13 17 17 12 11 10 11 9 6 9 5 10 4 2 4 4 2 2 1
28 5 20 32 17 7 13 31 35 29 37 21 19 16 18 13 11 14 14 19 15 23 26 23 11 11 17 17 20 18 19 18 10 13 8 11 12 15 9 11 6 7 7 6 3
17 12 23 39 12 14 30 37 30 29 29 23 16 16 9 10 8 16 18 12 8 22 23 20 14 13 15 13 7 12 17 14 16 13 14 10 8 11 7 7 10 11 12 7 9
16 7 15 36 33 26 33 31 28 43 32 29 21 19 15 11 10 3 9 1 9 15 25 21 16 19 15 17 15 19 19 19 18 12 13 16 18 17 12 10 19 12 14 11 8
24 13 24 13 23 27 23 24 32 32 36 37 26 24 18 11 12 11 4 5 3 4 5 15 23 19 22 18 14 17 18 20 20 19 19 17 19 18 13 9 12 15 10 6 8
19 18 34 21 34 29 26 27 29 31 30 34 24 25 18 18 12 12 9 6 3 5 10 17 16 22 19 18 18 17 15 17 17 17 18 19 20 15 17 13 14 13 14 11 10
42 44 28 22 22 20 24 28 33 28 33 37 30 22 23 19 10 14 10 2 1 9 10 12 15 15 16 18 19 16 17 17 18 17 14 17 16 16 14 11 16 17 19 9 9

GFSSW_850_spd_078.txt.gz
Wind_Speed
25 25 25 25 24 24 23 22 20 21 22 23 24 24 24 26 25 20 14 10 10 9 7 2 7 10 12 15 18 14 11 12 14 12 7 8 8 11 3 12 17 21 6 7 7
23 25 26 26 27 25 25 26 26 24 23 24 25 24 24 26 27 24 13 16 14 10 8 7 10 10 14 19 13 12 11 7 17 10 12 15 14 13 9 19 16 31 18 10 12
21 22 23 24 25 25 25 26 25 24 26 26 26 25 23 23 23 2 6 11 8 9 10 10 14 13 15 21 13 16 15 13 12 12 13 17 15 18 15 9 5 11 8 5 10
22 21 21 22 22 23 23 25 26 25 25 25 27 26 23 17 6 2 8 8 8 9 9 11 12 14 14 17 17 15 14 21 12 13 10 15 5 16 14 14 10 12 10 4 7
22 23 23 21 22 22 22 23 23 23 23 25 23 23 24 10 22 15 15 13 11 10 11 11 13 14 15 17 15 11 14 19 13 9 13 13 15 10 33 23 15 10 10 12 10
22 22 24 23 23 22 22 22 21 20 21 21 22 21 16 22 7 11 14 14 14 13 13 13 15 13 13 17 15 19 18 17 18 12 16 10 11 5 17 19 12 12 11 7 9
22 23 24 23 24 23 22 23 21 18 21 19 18 18 17 34 13 9 12 16 14 15 14 13 13 12 16 15 15 16 15 13 17 27 6 10 7 7 13 17 7 8 5 4 4
19 21 23 24 24 23 23 22 21 19 20 20 16 14 15 19 13 19 20 16 16 16 16 14 8 13 17 17 22 17 17 3 16 17 22 13 5 2 17 13 8 7 8 6 5
20 20 22 23 24 24 24 22 19 19 21 20 16 7 15 12 18 21 19 21 18 15 14 13 11 15 17 15 13 15 12 17 14 17 20 11 2 7 18 18 16 12 14 13 14
17 20 21 22 24 25 23 21 17 20 17 9 10 8 19 15 9 14 20 21 21 17 16 15 14 13 14 12 13 0 10 13 16 12 8 12 10 15 32 10 25 20 21 16 16
17 17 18 21 22 23 21 18 8 5 10 13 10 13 17 7 11 10 16 22 22 23 17 19 13 15 20 19 21 12 17 14 13 7 8 12 13 8 11 9 19 25 23 22 16
17 18 18 18 23 23 16 6 6 8 14 22 30 32 31 25 16 15 17 23 24 21 20 16 19 19 21 20 12 11 13 15 15 6 9 11 16 9 11 13 19 25 25 22 21
18 18 19 20 21 21 12 13 12 13 11 27 33 31 36 28 34 24 24 30 20 21 21 20 19 19 18 11 11 12 14 14 15 14 11 8 14 9 8 12 22 17 28 29 27
19 18 17 17 15 9 9 9 11 8 7 13 19 12 33 26 22 37 28 30 21 23 23 20 21 19 11 10 13 14 14 15 9 12 7 3 8 13 13 9 16 22 21 28 32
21 19 16 12 11 11 9 4 3 5 6 7 10 5 7 25 6 26 41 32 25 21 15 21 22 18 16 15 15 14 7 9 10 13 11 13 9 8 12 14 16 15 24 28 29
22 20 17 15 16 14 20 6 5 6 11 7 10 9 11 24 25 15 35 34 32 21 23 22 24 20 21 14 15 14 9 10 11 11 10 15 9 7 3 12 11 18 26 27 34
22 21 19 14 15 9 15 11 6 12 14 16 12 14 15 15 22 20 19 26 21 19 21 22 24 20 17 18 16 13 9 7 2 7 9 2 4 6 14 13 8 1 25 31 32
22 21 21 19 15 12 15 4 14 18 32 7 10 19 18 16 17 22 19 22 24 21 13 18 16 24 13 13 15 13 15 8 5 3 4 13 6 2 13 10 6 4 5 16 29
20 24 22 19 15 14 8 9 15 28 25 29 18 11 13 15 10 17 24 21 23 24 19 17 22 20 17 15 20 15 15 17 17 4 8 9 5 17 9 3 4 6 7 10 11
26 25 29 19 17 19 6 20 25 32 34 20 27 17 17 18 14 11 16 16 22 21 20 21 14 23 23 22 18 17 12 12 8 7 9 7 11 5 7 12 8 6 8 7 1
28 15 19 25 22 18 12 21 33 44 38 30 30 23 21 27 15 17 10 15 18 17 24 24 18 13 19 19 19 13 13 10 14 9 6 4 3 11 8 4 5 1 7 5 1
31 8 18 33 17 13 20 30 45 32 36 31 24 27 23 19 12 20 16 10 1 16 24 24 6 13 14 17 17 17 17 17 9 9 6 6 9 7 2 4 8 2 5 5 8
19 16 21 46 12 18 19 31 32 26 30 28 28 26 27 14 17 13 15 12 7 13 11 16 16 11 16 19 17 18 21 17 13 12 13 8 6 9 8 3 5 5 9 11 9
14 6 15 42 26 23 23 24 26 37 30 36 26 26 27 8 21 6 11 10 3 9 18 3 17 16 11 12 12 16 18 16 17 10 9 12 15 11 13 6 14 10 7 24 11
19 9 18 12 20 19 21 15 29 26 36 38 23 27 15 23 18 12 4 4 7 16 10 4 13 20 19 19 18 18 20 19 20 16 16 12 17 15 13 11 1 8 20 8 5
15 12 29 18 31 25 23 28 29 23 27 34 29 25 18 24 17 15 13 3 4 8 10 7 13 17 18 19 21 18 18 19 20 19 19 16 17 14 16 16 11 13 8 10 8
39 34 21 20 18 22 25 26 29 22 26 37 30 24 19 17 32 4 14 19 10 4 8 7 7 13 15 18 18 18 16 13 12 13 11 13 11 9 10 11 10 7 3 7 11

GFSSW_850_spd_084.txt.gz
Wind_Speed
19 18 18 21 19 19 20 19 19 20 21 22 24 25 24 27 25 24 26 13 7 6 5 6 4 2 7 6 8 5 2 5 7 5 7 11 0 9 10 8 2 3 2 6 10
20 21 20 19 22 21 19 20 19 20 20 22 22 23 22 25 27 24 9 6 6 6 7 9 7 5 9 6 3 4 3 7 9 10 7 6 2 11 5 5 2 4 7 13 7
21 22 23 23 21 22 22 20 19 20 21 20 21 22 19 22 23 1 3 5 2 6 9 9 10 10 9 12 6 4 6 12 22 23 14 5 3 3 12 2 2 2 4 12 7
22 22 22 23 24 22 22 21 21 19 20 20 20 22 18 18 6 5 6 6 6 7 9 11 9 4 3 4 6 1 13 15 12 4 3 2 5 5 6 5 2 4 4 10 8
24 23 24 24 25 25 23 23 21 19 20 20 19 20 21 11 22 18 22 12 10 11 11 12 12 8 5 4 9 6 5 13 8 4 2 3 1 5 13 12 7 3 7 7 3
18 22 23 27 27 26 25 24 22 20 20 19 19 19 17 10 8 5 7 13 15 13 15 14 12 11 10 10 3 7 12 18 9 12 3 2 2 5 10 15 10 4 4 4 2
16 18 20 22 24 27 28 27 25 21 18 20 18 20 20 35 16 18 13 15 16 14 16 18 17 11 7 10 13 10 7 9 10 7 4 2 4 5 9 15 11 7 4 2 1
17 18 19 20 23 25 26 28 27 23 19 20 20 15 17 26 20 25 23 28 21 16 18 16 12 15 13 12 9 6 3 3 6 4 4 8 9 8 7 14 13 10 8 4 2
17 18 19 20 22 25 26 25 24 21 21 19 18 10 18 12 10 5 8 29 22 17 17 18 18 20 11 2 5 2 6 6 9 9 4 5 8 7 11 14 18 15 11 7 3
17 18 20 20 22 25 28 22 14 14 15 12 8 7 19 21 7 10 12 14 22 11 16 18 11 5 3 4 9 6 4 4 7 4 5 4 11 3 13 15 18 18 12 8 9
18 18 19 20 21 24 27 15 5 1 1 11 9 16 16 14 17 9 7 10 19 12 8 6 4 14 12 10 12 9 10 12 10 12 6 7 9 9 15 14 14 16 14 14 14
18 17 18 19 18 19 13 10 7 12 16 26 30 36 41 34 17 23 12 8 12 11 7 5 16 16 9 7 11 14 15 17 12 7 6 5 10 7 12 20 29 28 21 19 19
18 17 17 18 17 11 13 7 13 20 8 19 30 31 42 31 29 35 18 9 6 12 11 14 9 15 12 12 13 17 15 15 8 5 4 4 5 4 6 11 15 19 25 25 26
18 17 15 17 14 10 9 7 12 14 5 6 9 13 23 14 10 36 44 23 8 14 11 11 17 15 10 15 14 13 12 7 5 2 2 2 5 4 5 9 14 21 26 29 27
18 16 13 13 16 10 14 13 9 3 5 4 6 4 9 18 4 16 34 28 18 9 9 10 15 17 18 19 12 14 19 6 4 3 3 6 1 6 8 8 13 18 27 34 34
18 15 11 14 17 9 14 9 1 1 10 6 3 6 6 14 5 2 11 10 17 7 9 11 16 7 12 11 15 19 4 4 4 2 2 3 1 6 5 10 19 21 29 37 41
17 14 13 14 16 5 14 6 2 5 5 5 3 6 6 6 5 2 3 10 7 8 15 7 19 13 6 5 8 6 5 1 3 2 5 3 3 8 10 6 19 24 34 39 44
15 14 16 19 16 9 6 2 9 8 14 14 13 21 8 9 7 6 5 5 12 6 4 13 9 16 10 17 6 8 9 6 6 4 4 4 5 6 5 17 18 29 37 40 40
13 17 23 19 16 9 4 5 8 4 5 6 11 6 6 5 8 12 8 16 8 18 8 7 15 5 18 12 8 7 5 9 6 0 3 3 5 8 6 4 2 13 27 32 40
16 19 27 14 17 15 7 11 6 9 13 11 5 4 5 9 10 11 6 5 7 12 17 5 4 12 12 9 13 13 8 4 1 7 4 4 5 5 5 4 4 6 21 32 42
19 13 12 13 21 17 13 9 6 18 20 5 7 9 11 11 8 7 7 20 7 8 13 17 2 5 2 7 10 3 4 3 6 6 6 3 6 6 9 4 5 7 22 36 36
23 7 13 24 16 10 15 10 9 12 15 7 5 14 16 10 9 8 13 9 29 23 14 11 11 13 15 6 3 4 10 10 5 5 3 5 6 4 9 8 9 9 14 21 30
21 14 22 36 10 14 13 16 26 19 13 5 5 6 2 4 6 14 9 15 18 13 7 7 9 3 11 7 5 5 5 6 5 5 9 6 5 5 6 9 13 10 12 20 21
11 5 15 31 14 18 19 18 15 14 20 22 17 18 11 12 13 10 10 8 12 22 39 11 6 21 17 2 3 3 5 14 13 7 7 7 7 6 7 10 10 25 21 21 19
20 7 11 9 15 16 16 11 22 18 20 14 9 20 18 7 5 16 14 6 2 14 13 7 5 6 7 10 10 12 14 9 17 9 11 9 11 9 8 9 14 24 24 16 18
14 8 10 2 19 18 22 16 21 13 14 15 24 17 8 13 16 17 13 4 4 10 12 9 4 2 6 10 11 6 23 19 4 4 9 7 9 9 13 14 10 19 24 23 18
34 23 17 14 13 14 18 19 18 18 21 28 16 13 11 18 26 27 20 7 5 3 9 6 4 3 5 4 10 6 10 14 6 6 5 6 9 5 6 8 16 22 18 18 18

GFSSW_850_spd_087.txt.gz
Wind_Speed
20 19 20 20 19 19 21 20 20 21 22 22 23 22 22 24 24 23 21 12 7 10 9 4 3 3 4 3 6 4 3 3 5 3 6 15 3 4 5 4 5 8 8 5 7
20 21 22 21 21 21 20 22 22 21 23 22 22 23 21 25 26 24 9 4 5 8 8 6 5 4 2 2 3 4 3 6 6 5 8 17 6 11 4 6 6 8 10 11 8
24 25 24 23 23 23 23 22 22 23 23 22 23 23 21 23 23 0 3 4 4 6 6 6 8 5 3 4 6 5 6 5 15 23 18 10 4 9 7 5 7 6 5 7 9
21 25 25 25 24 24 25 25 24 23 24 24 22 24 21 22 6 3 7 4 4 6 7 7 8 4 3 5 5 2 11 10 11 17 6 3 7 5 13 3 6 4 3 8 7
17 18 21 23 24 24 25 27 26 24 24 23 23 23 22 14 22 18 18 18 10 10 11 11 11 6 4 3 2 6 6 10 18 19 15 6 8 7 10 8 6 3 2 7 6
17 17 20 20 22 23 23 24 26 27 24 23 22 23 18 10 7 8 9 12 16 15 13 14 8 10 5 6 2 3 10 15 16 19 13 8 5 8 12 10 9 6 5 4 4
16 19 19 21 23 23 24 24 24 25 23 23 21 21 20 35 16 26 25 18 15 16 16 14 15 10 2 6 6 4 6 9 14 10 6 5 2 7 11 15 12 8 4 6 6
17 19 21 21 22 24 25 25 24 24 22 24 19 17 17 29 25 28 26 28 23 19 18 14 13 12 6 10 7 4 1 4 6 3 5 5 10 7 18 20 14 10 8 5 5
19 19 20 21 23 26 27 26 25 24 20 19 16 11 17 17 14 7 7 16 16 24 20 14 12 12 8 2 4 3 4 5 10 5 4 4 9 3 20 18 17 14 9 5 4
20 20 20 20 23 26 28 27 14 9 4 5 7 6 21 18 11 8 10 10 10 19 17 13 9 4 2 4 8 6 5 3 6 5 1 5 13 5 16 18 18 13 10 10 7
19 19 19 20 21 24 27 22 7 4 6 10 7 9 15 12 13 10 8 14 9 13 8 9 4 15 13 8 3 2 4 5 12 18 4 16 9 12 15 16 12 13 15 11 9
19 19 18 18 19 19 16 8 9 13 17 28 31 37 37 28 16 24 10 6 8 9 6 3 13 12 7 7 7 6 7 11 10 15 3 12 11 5 9 10 20 22 21 16 11
19 19 18 17 17 13 13 2 10 17 8 18 23 23 39 36 27 41 23 8 6 8 8 12 7 13 9 6 9 10 10 9 8 16 9 3 7 7 3 4 13 15 22 19 16
18 18 17 16 14 7 8 6 12 15 5 8 5 8 11 14 8 32 29 22 7 10 6 8 14 12 6 13 13 13 11 13 11 6 5 2 5 6 4 4 6 13 23 25 23
17 16 15 12 14 12 14 12 8 1 6 2 3 6 4 13 5 4 32 26 14 8 7 8 7 17 17 18 11 12 7 10 11 7 2 2 2 6 3 5 9 11 26 32 29
17 15 13 12 17 13 15 12 3 1 9 6 0 5 3 9 6 3 5 14 8 9 7 8 3 8 13 15 12 11 5 4 3 3 2 4 4 5 5 7 5 10 23 34 35
16 14 13 13 11 6 13 7 2 7 6 1 5 7 8 3 4 4 4 6 6 5 17 8 12 3 2 6 5 5 3 2 4 2 5 6 3 9 8 7 8 13 25 34 39
16 13 15 16 15 10 8 2 10 5 5 14 8 9 3 11 4 8 2 5 6 1 1 13 11 12 6 10 6 8 9 5 6 4 4 3 5 6 7 8 13 22 29 29 34
11 16 20 19 14 9 3 3 7 4 4 5 8 5 5 5 8 8 4 4 3 8 5 5 7 5 12 11 13 6 8 9 4 2 2 4 6 9 8 8 4 11 17 28 36
16 17 22 12 15 14 4 8 5 3 8 5 2 4 3 7 9 10 4 1 7 11 10 5 10 8 6 9 12 12 5 2 1 7 5 3 4 6 8 4 4 7 18 30 34
16 9 7 14 18 17 9 7 4 9 12 3 2 6 5 4 4 3 5 7 3 6 12 6 4 10 3 7 7 5 12 3 4 5 7 2 5 8 10 9 4 5 20 29 33
22 5 12 17 13 8 11 8 7 5 7 3 3 8 4 4 5 4 5 6 13 6 8 6 5 8 23 13 2 5 14 13 6 4 3 4 7 5 9 8 8 3 8 19 29
18 15 14 28 10 10 11 17 21 9 9 2 3 4 1 1 4 6 7 10 13 3 5 11 5 4 4 7 17 13 5 5 3 2 8 7 6 4 3 8 5 9 10 12 20
14 6 16 29 22 14 16 17 18 17 26 24 10 13 12 13 10 7 8 6 15 11 6 10 7 12 12 7 6 5 9 6 7 5 3 8 6 6 7 9 8 8 12 11 19
21 9 10 7 16 14 17 10 21 17 16 17 6 18 11 6 7 15 13 14 13 5 3 3 9 11 12 17 12 3 5 4 4 6 10 7 11 11 10 9 12 17 21 23 17
16 7 12 6 13 19 13 14 18 16 15 14 18 13 11 15 9 5 5 6 6 2 3 7 5 15 11 8 17 18 15 10 9 6 8 7 10 8 14 21 12 19 17 17 21
36 18 15 10 14 14 19 18 17 17 19 25 17 13 16 24 29 27 27 22 12 10 1 2 2 5 6 4 4 5 16 16 15 4 4 8 8 6 7 9 14 23 21 20 25

GFSSW_850_spd_090.txt.gz
Wind_Speed
19 19 20 21 22 23 25 25 24 23 23 23 22 22 23 27 26 24 22 14 10 11 13 7 7 7 7 5 6 4 3 3 5 4 6 9 3 5 5 7 8 8 11 10 12
22 23 22 22 23 24 25 25 26 25 26 24 23 23 22 27 28 25 6 7 5 9 13 8 7 8 3 4 5 4 3 8 7 6 6 18 7 8 5 4 9 14 15 16 14
20 22 23 22 23 24 26 27 27 26 26 27 25 23 22 24 24 2 4 4 8 9 10 7 7 7 4 4 6 5 6 5 10 15 10 5 5 7 6 5 17 11 11 13 13
17 18 20 21 23 24 24 25 27 30 28 26 25 25 21 20 6 1 3 6 8 8 10 8 8 6 4 5 6 3 11 8 10 12 3 4 4 5 12 16 7 11 9 9 7
16 18 20 21 22 23 25 26 26 26 28 27 25 25 21 12 22 19 21 15 9 9 12 11 11 7 5 5 2 5 5 7 12 19 15 10 13 8 14 21 11 8 7 7 6
17 18 20 22 23 24 24 26 26 27 26 27 25 23 17 7 13 8 9 5 11 20 16 14 7 11 4 4 5 4 8 15 15 22 11 6 3 2 12 16 13 9 9 7 7
18 18 19 21 23 24 26 26 27 29 28 25 27 21 18 32 18 23 30 28 20 12 14 13 12 6 1 4 4 5 5 7 7 8 6 6 5 9 21 17 15 12 10 8 6
20 20 21 21 24 26 27 26 27 31 29 23 23 17 15 28 26 29 27 30 24 20 17 14 10 7 5 9 6 3 3 4 4 2 3 8 8 6 10 19 18 14 11 9 7
20 20 21 23 23 25 29 28 29 23 21 14 13 11 16 18 14 3 3 8 4 15 22 17 6 7 4 3 4 3 4 4 9 3 2 3 8 5 5 16 16 19 14 11 9
20 20 20 24 25 26 28 28 18 15 8 1 4 4 17 9 6 6 5 5 4 4 13 15 9 4 0 4 9 6 4 4 7 3 5 2 11 13 13 19 18 21 15 12 9
19 19 19 21 23 24 27 27 11 5 16 9 8 13 20 9 11 6 6 7 4 8 6 10 5 9 19 6 4 4 4 4 6 6 3 9 8 14 10 15 13 21 20 15 12
18 18 18 19 20 20 18 8 10 12 17 29 30 35 40 32 13 21 8 4 6 6 5 2 13 14 7 10 8 5 6 9 9 14 7 9 15 12 5 8 17 16 22 18 15
19 18 16 17 17 16 13 6 11 19 7 18 15 14 18 25 23 28 22 7 5 6 7 13 5 13 11 6 8 7 13 5 9 8 5 3 7 8 3 7 13 17 17 20 19
18 17 15 16 12 8 10 5 14 16 5 7 5 4 2 9 6 24 34 19 9 12 6 8 11 12 7 11 11 10 9 9 7 2 4 3 5 6 4 6 5 14 18 22 23
18 17 13 13 14 14 12 14 12 3 6 2 1 2 3 7 14 7 12 20 10 6 7 7 5 12 16 6 8 11 8 9 6 5 2 4 2 7 1 6 10 10 27 24 26
19 16 13 12 13 13 15 11 4 0 9 6 4 5 5 5 4 8 3 5 7 6 5 4 1 6 8 11 11 2 3 3 2 2 5 7 7 5 4 6 5 5 23 28 28
17 14 12 13 10 8 12 8 1 6 6 4 4 6 7 5 4 6 1 6 4 5 8 5 12 2 2 3 6 5 4 2 2 2 6 4 4 7 7 9 8 10 17 25 29
16 13 14 14 14 9 8 3 8 3 5 4 5 7 3 9 4 9 5 4 3 1 2 9 8 16 5 10 6 10 9 6 6 4 4 3 6 6 9 9 13 19 22 17 26
13 15 17 14 13 6 1 3 6 4 3 6 8 5 5 4 7 9 6 4 5 10 3 3 5 3 9 12 12 5 6 7 1 2 1 4 6 8 7 8 6 10 12 20 24
15 14 18 11 10 10 4 7 4 2 4 5 1 3 4 7 8 6 5 3 3 5 3 5 5 6 6 5 9 10 8 3 0 5 5 4 4 5 6 9 7 7 12 20 21
13 6 5 8 15 13 6 5 4 9 7 1 2 4 4 5 3 3 3 5 1 5 6 6 1 6 6 4 8 4 9 3 4 5 5 2 6 8 11 9 7 9 14 17 21
14 4 9 16 11 5 10 4 5 5 7 4 3 5 5 4 4 2 4 4 21 11 7 3 3 4 9 11 5 2 8 13 9 6 2 3 10 4 8 6 8 10 10 14 17
9 10 10 24 7 9 10 12 14 4 5 2 3 3 4 1 2 4 5 5 9 4 4 2 2 4 6 4 2 4 5 5 3 3 14 7 6 3 6 7 6 10 11 9 8
8 4 13 24 17 11 13 14 13 11 18 18 5 5 4 4 4 5 4 6 19 19 8 4 6 7 5 12 14 12 7 12 10 6 8 14 4 5 7 8 8 14 14 9 10
19 6 7 6 12 15 10 7 17 11 15 10 6 18 15 7 4 6 5 6 12 18 7 5 5 8 12 16 16 27 23 15 17 12 10 6 12 10 10 9 14 26 17 13 14
16 8 13 18 8 17 19 17 19 15 13 8 11 4 10 11 12 5 3 2 5 3 3 3 4 4 12 14 18 22 21 14 9 5 4 5 6 7 11 14 8 17 19 17 19
36 26 17 13 16 12 17 20 20 20 12 26 14 11 14 21 22 23 20 21 15 15 14 4 4 2 5 5 15 8 22 20 10 6 8 7 8 4 6 7 13 27 32 29 27

GFSSW_850_spd_093.txt.gz
Wind_Speed
19 20 21 21 22 22 23 24 24 25 25 24 23 25 25 28 27 26 25 15 9 9 14 11 13 13 12 8 8 7 2 4 4 7 4 3 4 4 7 7 7 10 18 14 15
18 19 20 20 21 22 23 24 25 25 26 27 25 24 23 27 30 29 9 8 8 10 16 12 12 12 8 8 7 5 4 8 6 6 4 11 7 6 3 5 10 16 21 21 20
18 19 20 20 21 23 24 25 26 26 26 27 27 25 22 22 24 5 5 4 7 10 15 12 8 12 6 6 7 6 7 6 8 14 11 7 7 5 5 9 18 12 12 15 16
15 16 18 19 20 22 23 24 25 26 25 25 27 25 23 18 6 2 2 2 8 11 12 9 10 7 5 6 7 4 10 8 8 9 5 5 5 6 11 17 15 11 13 14 13
16 17 18 20 21 21 22 23 24 26 26 26 26 26 22 8 23 21 27 20 13 12 13 12 12 8 6 5 6 5 5 8 16 14 12 11 14 11 17 23 18 16 14 13 9
18 18 19 21 21 23 23 23 25 26 27 27 27 24 17 6 21 12 10 8 11 15 17 15 7 11 5 6 8 5 6 11 11 14 11 11 11 4 19 13 15 15 14 12 9
18 19 20 21 22 23 23 24 26 29 28 26 24 22 19 34 23 20 22 20 22 24 18 19 17 8 3 2 6 3 6 7 9 7 6 11 6 9 13 11 10 11 13 11 9
19 18 19 21 22 24 25 25 27 30 26 22 19 16 14 20 19 22 24 30 28 19 20 15 13 10 6 5 2 2 2 6 1 4 2 8 10 6 6 9 14 14 13 12 10
18 17 19 21 23 25 26 26 29 24 19 14 8 8 13 11 7 2 3 6 6 16 24 13 14 7 5 4 5 3 10 6 6 3 3 4 8 2 3 9 13 15 14 12 12
18 18 19 20 22 25 25 26 18 14 10 6 3 3 9 6 4 4 6 1 3 6 9 13 8 5 4 7 12 8 6 5 7 3 2 7 16 15 10 12 17 16 15 13 14
19 18 19 19 21 23 26 21 10 4 20 12 19 15 26 18 12 7 8 5 5 7 7 10 9 14 20 16 6 4 5 6 4 5 3 9 11 17 21 9 13 15 17 16 16
20 19 18 17 18 20 18 8 10 11 16 26 29 32 36 31 15 19 10 7 9 7 6 4 17 13 13 11 13 15 13 14 12 9 8 7 13 18 12 9 8 15 18 19 14
22 20 17 14 14 11 11 7 12 16 7 13 9 11 7 8 12 21 19 7 6 8 13 12 4 18 16 10 13 16 17 16 15 6 6 7 6 6 3 8 5 9 14 20 19
21 20 17 13 10 7 6 5 13 13 5 7 4 2 1 3 6 10 23 18 6 12 6 8 9 5 13 16 14 17 15 14 12 5 7 3 7 7 11 14 9 12 16 20 21
19 20 16 11 12 10 9 9 10 3 6 3 0 3 5 6 12 4 2 14 12 5 5 8 4 12 14 9 14 12 8 12 12 9 7 8 5 3 2 10 14 7 16 20 22
22 20 15 12 10 10 9 6 1 1 7 5 4 6 6 2 3 9 2 6 8 8 5 7 3 5 9 15 13 2 11 4 2 3 8 10 7 6 5 7 6 4 9 18 22
18 14 13 12 8 9 9 4 2 5 5 5 5 7 7 6 5 6 1 4 2 4 9 10 12 3 3 4 8 7 4 2 4 5 7 7 9 13 7 11 10 12 8 10 19
13 14 14 12 11 8 5 2 6 2 3 3 5 7 4 10 5 9 4 2 7 2 1 7 4 17 6 10 6 13 14 6 6 5 4 4 6 6 9 10 10 14 13 9 17
16 16 16 13 11 5 2 3 5 2 3 6 6 4 3 4 6 8 7 2 3 9 3 4 4 3 5 12 12 6 9 13 6 1 3 4 4 8 7 10 6 9 9 11 18
14 12 17 11 9 9 2 7 3 1 3 2 1 1 2 6 6 10 4 2 2 7 4 5 4 4 3 4 12 8 6 4 5 6 10 5 4 6 2 7 7 7 9 9 14
10 3 4 8 14 12 4 6 4 8 4 2 1 3 3 4 4 6 5 7 2 6 6 4 1 7 3 3 7 5 12 6 3 4 7 7 5 8 11 11 10 10 7 10 14
10 3 8 16 8 5 7 5 5 10 9 4 2 3 4 4 6 6 8 5 14 7 5 3 1 4 5 11 8 3 2 14 10 8 2 5 11 4 10 6 6 12 9 7 11
6 8 8 24 6 8 5 10 11 5 4 4 3 5 1 4 4 5 4 5 1 7 4 9 1 3 4 2 5 3 5 10 7 4 17 9 4 4 3 5 7 8 10 8 8
8 3 11 22 16 8 12 12 12 9 18 16 5 5 3 3 4 4 5 5 13 15 17 5 5 7 6 2 2 7 14 15 8 9 10 18 15 5 8 9 10 14 15 11 9
13 5 8 4 12 11 8 6 15 11 13 8 5 15 12 7 9 9 11 10 11 15 5 7 6 10 13 13 18 14 17 21 20 19 13 10 16 16 15 13 15 18 17 13 12
10 7 7 4 11 15 15 15 19 11 9 7 15 11 10 12 14 3 1 3 5 5 6 6 2 5 10 14 17 17 22 22 24 21 22 21 20 10 17 14 13 18 15 17 19
28 19 10 12 9 8 11 13 14 13 15 23 18 8 8 14 15 20 22 20 15 9 6 3 2 4 4 8 11 12 11 15 15 19 18 16 14 6 7 8 12 15 17 20 25

GFSSW_850_spd_096.txt.gz
Wind_Speed
16 16 17 18 19 19 20 21 22 24 24 24 23 23 23 26 27 26 23 13 12 12 15 14 13 11 12 11 10 8 8 11 12 12 12 6 5 5 6 11 9 11 16 12 11
15 16 17 18 19 20 21 22 23 23 23 23 24 23 23 24 27 29 12 12 11 12 16 17 16 15 13 13 10 13 11 14 6 9 9 10 8 12 8 12 15 17 18 16 14
14 15 16 17 18 19 20 21 22 22 22 24 24 24 22 21 20 4 4 3 5 10 12 12 12 15 16 12 16 13 17 12 10 11 12 16 15 12 14 17 18 17 19 11 13
15 15 16 17 18 19 20 21 22 23 23 23 24 24 21 15 7 3 3 3 3 8 13 12 12 15 15 13 18 14 19 20 15 15 14 15 19 17 20 25 23 19 14 9 10
15 16 17 18 19 20 21 21 23 24 25 26 25 23 19 5 19 18 22 26 17 12 15 13 15 15 15 12 16 17 18 19 19 19 19 17 22 22 27 27 24 18 11 11 9
16 16 18 18 19 20 20 22 24 26 26 26 24 22 11 11 16 12 13 13 10 17 12 14 10 15 11 15 15 8 13 18 17 18 19 17 25 22 29 19 14 13 15 12 8
15 16 17 19 20 21 21 23 24 26 26 25 21 19 13 23 19 20 16 13 12 11 11 11 16 13 7 11 18 14 15 17 19 20 20 18 22 22 26 9 12 13 14 12 9
14 15 17 19 21 22 23 24 26 28 25 22 16 11 11 17 19 18 19 25 27 28 29 17 14 19 20 10 7 10 14 15 6 8 12 11 16 7 6 7 13 12 13 12 10
16 15 17 19 20 23 23 24 26 23 20 16 9 5 10 9 8 5 6 8 8 12 19 9 10 16 12 16 14 14 15 15 11 10 10 13 15 5 6 9 14 12 14 13 11
17 18 18 19 20 21 23 23 19 17 9 7 3 5 6 4 7 7 9 7 4 4 7 14 12 11 14 15 17 16 18 15 14 5 10 14 17 16 11 9 16 13 13 14 13
19 22 18 18 18 19 22 17 9 4 9 12 21 19 27 17 20 9 5 6 7 7 7 19 13 18 22 21 22 15 14 15 12 2 7 13 17 16 18 13 14 13 14 15 14
19 23 20 16 15 15 14 5 6 8 16 20 24 24 25 22 14 14 11 9 11 14 11 9 20 20 19 22 22 21 19 17 16 14 11 17 17 14 16 16 12 11 14 15 13
19 21 21 14 12 9 7 5 11 11 8 10 6 7 5 5 7 9 14 13 13 15 17 18 9 12 20 22 19 21 22 18 19 14 13 19 20 20 17 12 10 11 13 13 16
18 18 20 13 7 6 3 7 11 9 5 2 2 1 1 3 5 6 7 17 13 14 13 13 18 14 16 21 21 21 18 20 17 15 11 3 12 14 11 16 17 18 15 15 15
16 18 19 12 9 5 7 8 9 1 6 4 4 0 5 6 10 2 4 8 18 16 7 9 10 16 19 19 17 17 15 17 16 16 16 19 10 11 10 12 12 13 15 16 16
17 18 19 9 8 9 7 6 1 5 8 1 2 4 6 1 3 7 4 4 4 15 17 18 13 8 14 14 16 7 13 10 8 9 13 17 13 10 13 11 6 4 2 12 16
16 14 10 8 6 8 6 3 5 7 3 3 2 6 6 6 1 7 3 4 3 4 10 16 22 15 13 7 10 14 9 6 8 7 8 7 12 16 7 10 11 11 10 9 15
14 13 10 11 9 7 3 5 10 3 5 2 4 8 3 8 3 8 1 3 3 6 7 5 5 23 18 20 10 20 17 7 9 10 7 9 8 11 9 11 11 8 6 8 15
13 12 13 12 10 6 6 10 5 4 2 5 8 10 8 2 5 6 5 1 4 11 4 4 5 2 17 19 18 13 16 19 18 14 7 7 7 8 9 10 10 12 5 10 15
12 8 13 12 8 9 7 14 7 3 2 3 6 3 9 1 4 7 4 4 1 7 10 5 6 2 2 9 18 19 4 8 11 9 15 12 13 7 9 11 9 8 12 7 14
11 6 6 10 14 11 9 8 8 7 4 4 8 9 8 6 5 6 5 10 1 5 10 6 3 3 6 7 8 13 16 13 9 12 11 11 9 9 13 11 9 8 7 5 12
11 4 9 17 10 8 10 4 2 8 7 7 7 8 10 11 14 15 14 10 9 14 10 5 4 6 10 10 9 9 8 18 13 17 10 13 13 1 12 9 6 11 6 2 6
8 12 9 19 7 10 8 9 11 7 8 7 11 9 9 13 12 14 13 9 4 4 2 7 4 5 5 5 2 4 2 1 6 8 19 14 3 3 8 11 13 11 7 2 5
6 5 9 17 13 12 14 14 14 8 13 16 10 7 11 13 12 9 8 6 4 10 10 7 7 9 10 7 6 6 6 9 4 5 12 16 17 18 18 15 13 19 14 12 4
12 8 10 6 13 12 11 7 15 14 12 8 7 17 15 14 15 17 18 16 18 14 10 6 12 12 14 19 18 17 18 17 16 14 14 15 19 13 14 19 19 19 15 11 11
10 8 10 15 12 15 17 18 18 11 11 10 14 11 11 16 16 10 8 9 8 4 3 1 7 6 14 16 18 20 21 21 21 19 21 22 27 20 23 23 26 25 27 24 16
21 17 9 12 15 12 13 13 13 16 18 20 15 13 14 15 12 12 20 20 17 13 7 4 4 6 11 5 12 15 22 22 22 20 17 19 20 18 20 22 24 21 20 21 20

GFSSW_850_spd_099.txt.gz
Wind_Speed
14 14 15 16 16 17 17 18 19 20 21 23 22 22 22 24 25 23 20 19 16 18 16 12 15 15 15 19 19 12 13 15 19 14 11 7 6 15 11 16 19 15 14 16 6
14 15 14 14 15 16 17 18 19 19 21 22 23 23 22 22 23 25 20 20 17 15 16 18 18 17 21 18 19 17 13 20 18 10 13 14 8 13 17 18 20 19 18 18 8
15 14 14 15 16 17 18 19 19 21 22 24 24 24 22 20 18 2 6 5 4 7 12 16 16 18 22 22 23 21 20 20 20 11 15 17 16 18 18 17 22 20 17 16 7
15 15 15 15 17 18 18 19 20 23 24 24 24 24 20 13 8 3 8 5 4 5 8 15 17 20 20 20 23 21 25 22 23 25 17 17 21 22 23 22 24 20 21 13 12
18 16 16 17 18 19 19 20 21 23 24 24 25 23 18 10 21 16 18 20 20 14 12 14 18 20 21 20 23 21 20 23 26 20 24 23 22 24 27 25 24 22 20 14 13
19 16 16 17 18 19 20 21 22 23 24 24 22 20 11 16 9 10 12 9 12 17 19 19 19 18 25 22 22 20 20 20 24 26 24 21 22 25 29 26 20 17 18 15 12
19 15 16 17 19 20 22 22 22 24 25 23 20 16 12 26 11 13 13 9 10 13 18 18 18 21 14 19 26 25 21 22 21 24 23 24 23 24 31 24 17 15 15 14 13
21 16 16 18 19 21 22 22 23 24 23 21 18 5 11 9 11 15 14 14 18 14 13 13 13 20 24 25 26 17 19 20 19 24 23 21 20 20 6 11 14 18 14 14 13
20 19 17 18 20 21 22 21 23 21 20 14 5 5 9 7 4 7 5 8 9 17 20 21 17 21 20 18 19 20 20 22 20 16 13 13 16 17 8 11 15 17 16 15 13
21 21 22 20 19 20 22 19 16 14 10 7 7 7 10 2 14 13 9 8 8 7 7 14 14 15 17 16 19 23 22 21 21 19 15 16 20 17 22 18 17 18 16 13 13
20 21 25 24 17 17 21 19 7 5 5 12 21 23 28 21 19 14 7 9 10 11 13 18 13 19 23 22 23 24 26 24 17 13 11 15 18 18 17 22 19 19 17 15 12
20 20 24 23 15 13 13 7 5 7 15 22 29 26 24 16 10 11 13 9 17 18 15 11 22 17 22 24 25 26 28 26 20 21 15 17 19 21 20 19 23 23 18 15 14
20 20 21 23 12 7 6 4 7 10 10 13 11 9 3 8 6 4 10 19 20 18 20 22 20 15 19 21 23 25 26 23 24 21 23 16 22 22 22 26 27 27 17 18 13
20 20 19 19 7 6 3 5 9 7 6 7 8 6 6 5 5 5 4 10 20 23 23 23 22 24 13 16 21 23 20 21 23 20 17 18 19 18 14 14 18 19 23 21 17
20 18 18 14 12 6 7 8 9 4 6 5 8 4 4 7 6 9 5 7 15 19 13 20 15 19 24 22 17 21 17 17 19 19 19 23 15 14 16 16 19 14 20 21 16
19 19 21 11 8 9 9 8 3 6 13 6 3 5 7 10 6 3 7 6 7 12 18 24 21 13 13 17 20 17 14 17 17 15 17 20 19 16 16 15 13 10 6 7 14
18 21 16 9 10 6 7 4 6 8 4 8 3 4 6 5 7 6 8 12 11 10 15 19 24 24 19 15 13 14 15 11 12 12 14 17 16 16 11 15 6 6 7 13 13
21 22 15 12 10 9 5 8 12 7 13 6 3 7 11 1 9 8 12 12 9 10 14 14 12 19 24 24 17 17 18 11 14 11 11 16 11 15 15 18 19 13 7 10 13
21 17 17 15 13 10 13 12 9 13 11 6 8 12 15 11 6 4 7 11 4 5 10 6 11 3 13 22 19 19 19 22 21 18 12 7 10 15 4 8 8 8 13 13 14
17 16 19 12 13 13 11 22 15 8 3 6 12 9 13 13 9 11 11 4 0 2 9 1 8 6 3 11 18 21 14 15 14 17 20 17 18 9 11 10 12 11 9 14 14
16 9 7 17 14 17 13 18 14 10 6 9 12 15 10 13 6 12 6 3 4 3 10 13 9 9 3 10 13 13 18 16 13 15 15 12 10 10 8 10 5 9 10 10 8
13 5 9 15 14 12 14 14 7 9 10 12 8 14 13 13 14 13 17 14 8 14 13 9 6 11 14 12 7 12 17 22 11 16 12 14 14 3 4 3 2 10 7 2 7
12 16 8 17 8 11 14 14 12 10 11 10 12 12 14 14 13 16 19 23 20 10 6 7 8 10 14 16 16 10 13 12 13 15 20 13 9 11 19 10 7 9 17 5 1
12 5 7 14 18 14 14 15 15 11 13 16 11 10 14 15 17 14 16 8 8 12 7 6 10 13 13 8 7 6 10 8 10 10 13 16 19 18 14 12 12 11 15 20 5
16 9 7 6 13 15 17 9 16 15 12 9 12 15 15 15 18 19 18 17 16 16 17 12 15 16 17 23 17 15 17 15 16 16 15 15 16 15 14 12 14 21 20 22 10
7 6 12 17 15 17 18 19 17 12 10 16 16 12 11 16 17 16 17 14 16 13 18 16 15 16 19 19 20 22 23 22 22 20 20 19 21 17 21 27 31 25 22 21 22
20 16 11 11 15 13 13 18 20 15 13 17 14 9 11 12 10 13 18 16 14 13 11 3 8 11 14 16 20 20 23 24 25 23 20 20 19 16 16 19 23 34 30 27 22

GFSSW_850_spd_102.txt.gz
Wind_Speed
14 14 14 14 14 15 16 17 17 18 19 21 21 22 22 24 25 23 22 17 19 18 18 12 13 16 16 21 22 23 14 15 21 20 17 12 3 9 10 13 13 14 17 16 13
15 15 14 14 14 14 16 17 18 20 21 21 23 23 22 23 24 28 20 18 21 22 21 14 17 16 20 20 24 18 15 22 21 20 17 12 15 18 10 16 17 17 18 16 14
17 16 17 16 16 16 16 17 19 20 22 22 23 23 21 20 22 2 2 4 5 6 12 14 16 18 21 23 25 24 20 22 27 30 27 16 16 21 16 16 20 13 17 12 8
20 19 17 17 18 17 17 18 19 21 22 22 23 23 19 14 6 2 10 8 9 7 4 10 17 21 20 19 26 25 27 29 28 30 26 20 24 20 22 22 23 19 17 14 6
19 19 18 18 18 18 18 19 20 22 23 23 23 23 20 10 20 19 18 18 17 13 11 12 16 20 19 20 25 24 24 30 31 31 27 29 21 23 25 26 24 23 21 17 9
22 21 18 18 20 20 21 20 21 22 22 22 21 20 14 14 5 4 12 9 11 10 14 17 17 18 22 23 21 27 30 27 29 29 29 25 23 25 28 26 26 23 21 17 12
23 23 20 19 21 22 23 22 21 22 22 22 19 17 14 28 12 15 15 15 11 12 16 16 20 24 24 21 24 27 25 24 22 28 25 28 23 22 28 31 30 22 17 14 13
23 23 21 21 23 24 24 22 21 21 21 20 16 5 11 8 12 13 10 13 14 16 13 14 10 10 11 18 25 25 23 19 18 23 27 27 24 21 28 28 11 12 12 23 18
21 24 25 25 24 25 25 23 19 19 17 14 3 3 10 7 6 4 4 6 8 13 18 17 16 18 14 15 16 18 21 25 26 22 26 24 22 18 25 18 10 14 17 19 20
20 23 25 28 28 24 24 23 15 17 8 8 8 8 14 9 9 15 14 12 11 10 8 14 13 13 14 14 18 19 19 19 21 21 24 25 21 16 24 24 17 20 21 19 11
24 24 26 28 29 19 20 23 4 3 6 13 13 19 26 23 22 24 17 13 12 15 15 16 10 16 20 21 24 22 24 19 23 29 27 24 22 16 18 20 17 18 20 18 17
22 23 26 28 26 12 10 11 6 9 16 24 32 31 31 23 15 16 12 15 19 19 17 15 19 17 19 22 20 23 21 23 23 26 26 29 23 17 16 18 19 20 21 21 16
20 23 25 26 14 9 11 6 10 14 10 19 26 22 13 16 15 13 14 20 17 18 20 20 21 18 20 20 19 20 23 19 22 25 31 29 25 22 18 19 24 27 23 22 13
19 21 22 25 12 10 9 5 10 11 6 7 9 9 14 9 9 19 12 13 16 24 20 19 18 20 21 19 17 20 19 21 20 18 16 23 18 20 15 21 22 28 27 26 16
19 18 20 19 18 13 10 12 12 7 6 9 11 13 11 13 4 15 13 13 15 15 14 20 16 21 23 23 21 20 14 16 20 20 18 25 15 15 18 14 14 13 18 23 26
17 17 18 17 13 14 12 13 7 5 9 7 9 11 13 18 13 8 13 13 13 12 16 22 25 21 16 16 17 19 13 19 17 15 16 19 19 17 15 17 19 17 21 19 20
17 16 18 16 16 9 12 10 6 8 5 9 11 11 12 13 16 13 14 16 11 11 15 19 22 22 21 19 14 16 11 10 12 13 15 18 19 14 16 19 18 14 8 9 4
22 19 19 18 15 13 10 9 12 13 20 7 1 3 11 14 15 15 12 14 17 21 13 14 17 15 19 24 19 19 15 8 10 11 7 18 8 15 19 16 14 7 6 12 18
21 20 19 17 11 12 14 13 11 18 19 20 11 11 14 17 10 13 12 17 12 5 3 11 18 5 2 9 19 22 18 19 18 18 12 9 20 21 8 1 8 11 10 9 16
18 17 24 19 18 17 10 22 21 28 24 6 14 6 12 14 17 16 15 12 5 1 3 9 11 15 12 6 11 22 14 11 10 10 10 12 16 8 8 10 4 12 8 17 19
18 8 18 13 18 14 11 20 21 34 24 5 12 16 16 16 16 16 9 11 2 3 4 11 7 15 18 10 11 12 16 15 14 15 12 9 8 7 6 18 7 8 13 9 15
16 5 11 18 11 7 14 24 28 25 16 8 11 14 15 15 13 15 14 12 5 6 11 12 8 13 20 11 21 7 13 18 11 15 10 13 15 12 12 15 7 7 14 14 10
7 12 15 16 6 11 15 22 24 21 11 12 13 11 14 15 15 15 16 16 21 16 8 5 7 11 18 18 17 14 14 11 17 14 19 12 8 12 3 17 13 3 11 20 7
6 4 13 12 18 16 13 19 19 19 12 16 14 13 13 15 14 15 17 14 16 9 8 1 12 15 12 8 5 10 18 19 14 5 12 15 18 16 8 10 14 12 9 15 16
8 7 14 5 13 15 18 12 11 15 13 15 14 18 16 14 15 16 17 19 17 15 12 9 16 18 23 26 18 18 15 18 20 16 10 13 15 13 8 7 14 21 19 17 16
6 6 15 19 9 7 15 17 20 17 13 16 15 15 13 15 16 16 18 14 11 11 13 14 16 19 23 23 24 22 22 18 22 22 19 17 17 14 14 19 16 17 17 21 23
18 25 12 6 10 10 12 12 17 17 16 21 10 10 13 10 11 12 14 14 12 11 10 9 12 16 18 20 23 22 20 20 21 21 18 17 15 16 18 15 13 18 21 21 20

GFSSW_850_spd_105.txt.gz
Wind_Speed
15 15 15 15 15 16 17 17 18 18 18 19 21 21 21 23 25 23 25 20 14 12 15 13 13 12 13 14 20 22 6 10 17 12 19 20 4 6 8 7 7 12 16 22 22
16 16 16 16 16 15 15 16 18 20 20 21 22 22 21 24 27 21 8 5 11 17 17 19 18 11 12 9 10 8 7 11 11 15 17 18 16 13 2 9 12 15 22 20 19
19 19 18 18 17 17 17 18 18 19 21 22 23 23 20 22 23 3 5 6 2 3 10 14 13 19 21 22 24 15 14 14 20 28 31 22 14 20 10 8 14 9 11 11 23
19 19 18 19 19 19 18 18 19 21 21 22 23 24 21 16 4 3 11 13 12 13 12 5 11 19 7 8 25 15 22 23 25 30 30 19 26 11 16 17 24 22 20 8 23
21 21 20 19 19 20 20 20 20 21 21 22 23 24 21 9 20 9 14 11 11 9 11 12 17 19 10 8 18 14 16 27 30 31 30 32 22 14 16 27 29 29 28 22 15
22 22 21 21 21 22 23 22 22 21 21 22 24 22 16 9 1 4 2 12 14 9 13 12 13 18 16 10 8 16 17 19 26 24 25 14 13 16 22 32 32 31 32 30 27
22 24 24 24 23 23 25 24 22 21 21 22 21 18 20 34 13 16 14 15 15 15 15 15 18 13 14 9 14 13 12 15 17 18 16 22 21 12 31 34 34 35 37 35 28
21 24 26 27 26 25 25 24 21 19 19 18 17 12 14 11 10 12 10 9 11 11 18 14 10 10 4 11 8 6 7 8 10 10 12 12 24 21 35 33 32 34 39 23 18
24 25 28 29 30 27 24 23 21 17 17 16 10 7 14 7 10 1 3 9 6 10 13 13 11 7 7 3 5 4 12 13 20 12 17 16 18 12 38 37 28 27 18 18 24
21 23 28 29 30 26 22 23 16 11 8 9 6 7 16 8 6 11 13 14 13 9 9 12 7 3 1 3 11 6 11 14 15 11 6 12 19 17 32 34 18 22 19 23 26
19 23 26 28 26 19 20 20 11 4 7 11 13 17 24 19 21 25 17 15 17 15 7 9 4 7 18 12 15 13 16 19 17 8 7 11 15 21 25 35 17 20 25 28 29
19 21 24 27 19 11 14 17 10 11 16 29 35 42 45 34 22 35 14 13 10 13 6 7 15 14 13 13 17 20 21 19 13 5 10 10 18 18 21 26 36 18 17 20 18
19 21 24 27 11 7 13 12 9 16 7 22 27 20 20 19 22 27 20 16 9 10 12 14 8 16 17 15 14 17 13 8 12 11 12 9 19 14 23 28 31 28 25 26 18
19 19 21 24 6 9 11 17 17 14 5 8 7 8 14 13 9 30 19 15 8 10 5 11 15 19 19 18 14 17 7 12 14 8 8 5 18 15 22 27 24 22 28 32 24
19 16 16 15 16 11 18 19 20 4 6 4 8 6 18 14 7 9 21 14 8 7 7 9 5 8 13 16 9 12 8 13 9 5 6 10 14 10 13 17 21 16 24 33 42
18 14 15 14 12 11 15 13 9 1 8 6 10 9 10 18 10 4 17 16 8 8 9 16 15 6 8 8 14 3 3 9 3 2 10 9 13 10 13 15 21 17 23 18 35
16 15 16 14 15 10 9 12 1 5 8 7 9 9 12 13 13 13 11 9 6 4 6 13 19 18 13 13 10 3 2 3 3 4 12 5 13 11 14 21 23 23 24 20 36
18 18 21 21 14 10 11 1 9 8 15 17 17 18 8 6 7 9 12 8 7 8 9 11 13 5 4 17 13 8 8 5 7 4 9 4 7 5 12 19 27 32 22 21 34
21 23 26 21 9 7 5 5 6 6 9 14 19 13 10 6 5 10 4 4 4 1 3 5 7 8 11 11 13 8 7 11 8 6 6 4 9 12 7 17 21 13 8 24 32
20 24 26 16 10 14 6 17 11 12 19 15 11 10 13 5 6 8 10 2 3 5 6 6 3 4 9 12 10 6 4 3 3 4 6 6 12 9 6 19 26 9 13 11 33
17 11 11 9 17 11 8 8 14 26 29 9 18 13 13 11 11 10 5 13 10 5 3 6 4 5 6 3 3 6 3 4 2 6 4 3 4 7 11 10 13 19 4 24 14
6 3 3 3 10 5 9 6 11 20 32 19 19 1 8 12 10 9 9 7 17 8 4 2 1 4 7 18 1 4 3 8 7 8 5 7 10 10 6 3 14 19 16 20 18
5 13 23 15 3 8 6 16 20 20 22 18 13 4 6 8 5 6 11 16 16 8 3 3 3 4 7 7 4 4 6 12 16 9 16 7 7 3 7 9 16 20 18 28 17
5 3 4 12 12 8 8 11 15 21 22 25 16 7 6 6 7 7 12 10 20 9 5 5 1 4 6 12 13 12 17 5 4 3 7 8 20 11 3 7 7 24 27 13 28
7 4 8 3 5 9 10 7 14 8 13 15 6 7 7 9 10 8 9 10 12 19 4 4 5 8 14 18 19 19 22 18 14 5 5 7 12 14 7 6 8 24 30 22 17
7 5 6 9 23 7 7 5 15 15 5 7 9 12 9 9 10 4 7 5 2 8 6 3 5 6 14 16 21 21 23 20 17 15 9 14 15 12 9 12 14 17 18 17 22
17 24 12 6 8 7 4 8 9 14 10 9 10 9 9 6 7 5 7 11 8 3 2 1 2 3 17 14 19 17 12 15 18 15 9 14 17 13 12 10 13 17 20 24 27

GFSSW_850_spd_108.txt.gz
Wind_Speed
16 15 15 16 16 16 17 18 19 19 19 19 20 21 22 26 26 23 27 20 12 8 12 11 11 6 12 11 15 7 2 5 10 8 12 17 6 18 23 11 13 12 13 18 16
18 18 17 17 17 17 18 18 19 20 20 21 22 22 22 26 27 24 7 2 8 8 10 13 13 10 10 6 10 7 5 9 5 7 12 20 10 27 8 10 14 17 18 13 15
16 17 17 17 17 17 17 18 19 20 21 23 23 24 22 23 25 5 3 5 4 1 3 10 12 10 13 17 9 6 10 5 12 23 24 23 14 29 8 6 15 13 13 10 21
16 17 16 18 19 19 19 18 19 21 21 22 23 24 22 19 5 4 4 9 7 9 11 6 10 5 4 7 22 8 17 12 15 28 23 15 32 12 23 21 26 24 20 10 20
20 19 20 20 20 20 20 20 20 21 21 22 22 24 23 12 24 13 16 8 6 8 9 10 9 7 6 6 14 13 13 24 26 24 20 20 12 17 19 29 30 27 29 22 20
19 22 22 24 23 22 21 22 20 21 21 21 22 23 17 10 4 6 8 9 7 8 10 10 9 8 11 10 9 14 15 14 12 10 12 14 15 11 19 28 28 27 31 33 31
21 22 25 26 27 25 23 23 22 19 19 21 20 19 20 33 14 11 16 14 13 12 15 14 4 8 5 5 7 7 7 8 3 4 5 18 17 7 19 22 21 27 38 42 38
18 20 23 26 27 26 23 22 21 18 20 18 18 16 16 18 13 16 14 15 12 12 15 20 14 12 6 5 8 5 6 7 4 3 5 5 24 8 19 20 26 29 36 37 43
22 21 23 26 28 24 23 22 20 18 17 16 14 11 16 11 12 3 5 7 9 9 10 9 10 8 3 1 4 3 11 10 9 8 7 8 21 4 24 24 22 27 35 39 44
21 23 23 26 26 20 21 21 12 9 6 7 8 8 15 9 4 9 6 8 9 11 10 12 9 4 2 4 11 7 7 5 8 4 4 8 16 8 17 17 19 30 32 37 27
20 22 21 25 22 16 23 14 13 3 14 11 10 14 20 11 13 17 14 12 11 11 5 4 4 7 20 10 13 4 5 12 8 14 4 11 12 12 10 19 21 30 29 31 34
22 21 21 25 15 11 17 15 17 16 18 29 34 38 45 36 17 35 20 9 8 10 5 5 13 17 5 9 10 10 13 17 14 13 8 14 16 18 8 12 24 32 32 28 31
20 21 19 22 12 3 12 16 12 19 8 23 26 20 24 24 26 46 20 7 5 6 11 12 8 8 11 10 10 14 12 12 16 7 6 5 16 10 10 12 24 32 31 35 29
21 23 16 19 5 6 3 11 13 12 4 8 6 9 12 9 9 28 28 17 7 10 8 11 16 17 13 11 12 19 6 13 10 6 12 7 14 15 14 16 12 22 27 30 17
22 21 13 12 11 9 13 11 13 5 5 3 4 3 7 12 7 4 23 17 8 5 5 8 3 8 14 17 11 18 8 12 12 6 1 4 3 19 5 18 18 14 25 32 29
21 17 13 11 9 12 11 10 4 1 8 7 0 2 3 11 5 8 9 12 10 6 7 8 7 4 6 7 5 4 5 3 2 2 8 5 6 21 5 10 14 17 28 30 31
17 15 12 13 12 11 7 7 2 5 9 3 11 11 16 7 5 4 4 9 6 4 5 8 10 5 6 7 11 6 4 3 3 2 13 5 8 17 9 15 12 17 26 34 36
16 17 15 16 11 8 4 3 5 3 7 18 16 14 5 10 8 4 3 8 8 4 5 5 8 5 1 6 7 8 9 7 5 8 12 4 6 6 4 7 14 19 32 34 35
17 19 21 18 5 4 2 4 5 7 7 11 18 7 5 16 11 8 2 2 8 8 7 3 6 3 2 2 3 5 5 11 6 3 5 5 14 11 18 7 12 16 26 38 14
19 21 8 7 12 8 3 7 7 4 14 8 7 6 12 16 9 12 5 12 6 8 6 3 2 4 4 5 4 3 4 1 0 4 12 5 6 8 5 11 14 14 22 40 19
14 7 6 2 14 8 5 6 7 12 19 7 12 13 14 16 4 5 5 7 13 9 7 4 2 5 3 4 6 6 5 5 3 4 7 5 5 5 6 5 11 17 27 25 28
3 2 5 7 3 4 7 6 7 12 18 12 10 15 20 6 5 1 5 4 15 10 4 3 3 3 5 7 2 1 2 4 2 6 4 5 11 7 5 6 10 14 33 27 20
4 7 15 11 2 4 4 10 14 13 12 9 12 10 17 4 4 3 1 7 12 7 6 4 3 3 6 3 8 7 2 5 4 1 3 4 6 11 8 5 13 8 26 30 28
2 2 4 7 6 3 6 8 6 11 6 11 13 16 18 7 3 5 6 1 15 7 4 2 2 5 5 2 3 7 12 9 2 2 4 7 12 17 16 3 4 13 32 21 31
6 3 4 3 4 3 6 6 13 9 12 10 7 12 8 5 2 5 5 8 7 9 2 3 6 5 6 6 6 11 15 14 13 12 7 9 15 16 11 6 6 8 21 28 21
5 3 3 6 13 7 8 6 12 18 4 5 3 15 8 3 3 4 3 2 1 5 4 4 3 3 5 5 10 16 16 14 18 17 16 17 18 9 13 17 8 2 4 13 12
10 13 9 8 3 3 3 10 8 7 8 11 8 5 9 5 3 4 4 7 7 1 3 2 2 3 9 6 9 12 15 14 17 16 10 15 10 3 5 6 11 10 10 11 14

GFSSW_850_spd_111.txt.gz
Wind_Speed
16 15 15 16 15 15 18 19 20 21 21 22 24 24 25 27 29 25 24 21 17 13 15 17 10 7 10 10 10 7 3 4 6 7 8 7 7 18 17 14 16 8 9 12 11
17 18 18 18 17 17 17 18 20 22 23 24 24 26 26 27 30 28 16 10 11 13 12 15 13 10 6 6 8 6 5 10 7 6 9 11 8 27 10 22 22 31 22 20 14
17 17 19 20 21 20 19 20 21 21 22 24 25 26 25 25 27 5 6 5 5 7 7 10 10 10 8 8 8 7 7 6 7 15 17 19 6 23 8 9 24 26 32 19 15
17 18 18 19 20 21 22 22 22 23 23 23 24 27 25 20 6 2 5 3 2 6 7 7 10 7 5 6 12 5 6 6 5 21 19 7 25 6 21 20 25 28 29 19 17
20 20 21 22 22 22 22 23 23 23 23 24 23 25 24 13 24 16 19 15 8 7 8 11 11 12 5 5 7 6 6 18 23 28 28 28 15 17 17 29 23 28 21 18 19
19 20 21 23 24 25 24 25 24 23 23 22 22 25 18 8 10 6 15 16 15 11 10 9 8 7 7 6 6 7 6 10 12 16 14 10 15 9 15 26 25 19 16 16 13
19 21 22 22 24 24 25 24 24 24 24 23 22 23 20 33 14 11 18 12 10 13 14 13 10 4 3 4 8 5 5 5 6 10 7 6 19 9 23 15 15 19 22 27 26
21 23 24 24 25 25 25 24 23 23 24 24 22 18 15 25 19 22 20 28 18 16 19 19 16 14 7 7 6 2 2 4 4 6 5 6 33 1 18 19 20 25 28 29 33
21 23 24 25 24 26 25 24 21 20 19 15 13 10 16 12 15 8 9 15 13 11 11 11 11 9 5 3 4 1 9 6 4 6 5 7 19 2 11 29 21 24 28 32 38
21 23 24 25 23 20 25 24 17 13 10 8 5 6 15 10 5 7 4 5 7 10 8 8 9 4 2 4 11 6 6 5 4 4 3 6 19 9 19 25 22 25 31 37 38
23 23 24 24 20 15 24 22 12 4 13 9 13 18 33 23 23 16 9 8 6 4 4 3 3 7 11 15 8 2 4 7 2 4 5 16 17 14 15 19 16 26 31 37 37
20 23 25 23 17 8 12 9 12 13 18 30 33 37 43 37 19 36 22 9 6 6 4 3 12 8 8 4 6 6 8 13 9 10 6 11 20 17 7 9 19 22 31 35 38
19 23 25 20 12 7 5 11 11 16 8 18 24 18 16 19 20 35 22 8 7 8 9 11 7 5 12 5 6 7 9 4 12 6 5 8 19 12 7 7 16 24 31 34 38
19 22 23 20 6 13 3 11 11 14 5 7 4 6 5 7 7 17 25 21 8 15 8 11 9 13 6 8 9 13 8 13 11 3 9 6 15 20 6 9 6 15 27 32 31
17 20 19 14 13 11 14 11 10 4 6 3 3 9 7 4 15 6 8 16 10 7 6 8 3 8 14 11 10 11 8 9 11 8 2 5 2 16 8 16 13 10 21 25 19
16 15 17 14 12 9 13 9 6 3 7 7 5 10 17 11 11 7 3 8 11 4 4 6 2 4 6 5 7 3 2 3 1 1 6 6 6 23 4 9 7 10 26 24 25
13 14 14 16 15 12 10 7 3 3 7 4 7 11 17 14 10 3 3 6 3 3 6 0 7 4 5 4 4 4 5 2 3 2 11 5 4 15 8 9 8 8 19 24 30
14 14 15 16 12 7 3 3 3 2 7 10 12 13 6 17 9 17 6 4 5 4 1 5 4 7 4 6 6 5 8 5 6 5 7 4 6 5 4 3 12 15 15 26 38
15 15 15 11 7 5 1 1 4 3 4 10 10 5 4 9 10 10 8 13 5 7 8 2 4 3 4 2 2 2 4 4 4 4 3 5 7 6 4 7 7 12 20 23 34
14 15 3 6 6 6 2 4 3 3 7 6 3 4 6 12 12 13 7 8 12 10 6 1 5 0 3 2 4 4 3 2 3 3 6 5 3 5 7 5 8 12 15 25 41
10 5 6 2 10 3 2 5 4 7 7 4 6 8 8 9 9 7 4 5 13 14 9 3 2 2 2 4 0 4 3 4 1 1 3 4 5 2 2 1 7 10 19 30 43
2 2 3 5 0 3 2 3 4 9 16 10 7 9 12 13 10 12 9 2 14 9 8 5 1 3 2 4 1 4 4 3 3 4 2 3 5 5 12 2 3 2 12 27 38
1 3 5 7 1 3 4 6 8 12 6 3 4 7 8 6 5 7 3 1 12 6 5 4 1 2 2 4 7 5 2 4 4 4 5 5 5 14 15 8 2 7 10 14 26
1 2 2 3 4 2 2 5 4 7 13 14 6 10 13 10 8 10 2 1 4 4 15 5 3 4 3 2 2 2 1 4 0 1 3 5 15 15 18 12 3 2 9 11 24
5 4 2 3 3 3 3 6 13 7 6 15 4 8 3 5 12 8 1 2 3 6 5 3 3 1 3 5 3 4 7 3 6 9 6 12 16 17 19 9 8 13 4 11 23
3 2 1 4 9 3 4 4 11 12 8 7 6 9 9 5 2 4 1 3 3 2 3 4 2 2 4 4 4 8 10 11 11 13 13 17 21 17 19 13 13 6 6 12 17
9 10 5 5 3 0 3 5 7 9 7 4 5 7 7 10 11 8 7 7 6 4 4 2 3 2 4 1 5 9 10 10 7 10 9 14 16 6 6 9 3 10 6 5 9

GFSSW_850_spd_117.txt.gz
Wind_Speed
15 15 16 17 17 18 19 21 23 23 23 24 26 26 25 26 26 26 26 23 23 18 14 18 13 16 15 11 10 8 4 8 9 7 4 4 3 5 3 2 7 3 8 12 12
15 17 17 19 19 20 20 21 21 23 24 24 24 24 26 27 28 30 10 12 16 16 15 19 17 18 11 9 8 6 6 11 8 8 6 4 3 7 4 8 9 12 13 14 16
16 17 18 19 20 21 20 21 22 23 23 24 25 25 24 23 24 3 5 3 2 8 9 13 14 17 7 8 9 7 11 6 7 16 9 4 7 6 10 12 11 18 23 18 19
16 17 18 18 19 20 21 22 23 23 23 25 25 24 23 18 6 3 3 2 2 6 9 11 13 8 5 8 10 6 9 14 8 14 9 9 9 11 13 13 23 19 19 21 20
15 17 18 19 19 19 20 21 23 23 23 24 25 24 22 5 20 21 22 18 11 6 10 11 14 10 6 6 7 7 7 11 16 17 14 15 17 16 14 22 21 17 17 21 23
14 16 17 18 18 20 21 22 23 23 24 23 23 21 15 5 14 10 11 11 13 20 19 15 10 14 5 6 7 3 7 17 13 16 19 17 19 9 12 18 16 19 21 18 12
14 16 19 21 22 22 22 23 24 26 26 24 22 18 14 24 21 25 25 25 16 14 17 18 15 9 4 3 8 6 8 9 8 8 8 10 11 11 25 20 14 6 7 13 17
16 19 21 22 23 22 22 23 24 25 23 21 21 16 10 19 17 10 10 15 20 21 16 17 14 11 7 6 2 3 3 5 4 9 8 11 15 8 5 3 7 15 16 16 18
17 19 21 22 23 22 22 22 22 18 16 16 13 11 11 2 4 7 12 13 9 16 24 17 13 10 5 6 7 4 11 10 3 7 2 11 5 7 6 8 17 19 20 21 19
17 18 19 21 22 21 21 22 15 11 9 8 5 8 5 9 24 28 24 15 4 4 9 13 9 6 5 8 12 11 9 6 8 2 3 11 12 8 17 15 15 17 22 21 18
14 16 20 22 21 22 25 18 13 3 23 13 26 13 34 26 22 24 11 10 11 5 6 6 7 15 15 17 13 9 8 8 3 3 6 16 19 14 17 13 17 19 18 16 17
14 16 17 19 16 19 17 14 13 11 13 25 18 19 15 9 8 14 10 7 7 12 4 5 16 10 12 12 14 15 17 17 8 11 7 13 18 11 14 11 15 13 12 15 16
14 15 15 16 9 15 12 15 12 14 4 13 8 6 11 7 4 16 2 5 7 12 13 16 8 6 13 10 14 16 18 15 13 2 6 8 13 6 3 5 4 9 12 12 10
13 13 14 15 6 13 8 12 12 10 3 5 3 6 23 12 6 20 10 4 3 9 8 12 13 14 10 14 13 17 12 16 12 5 6 2 7 3 3 5 4 6 5 7 12
10 12 14 16 10 12 13 10 8 2 5 9 4 6 22 12 15 13 16 5 6 7 4 7 4 8 17 24 15 13 8 14 12 11 2 7 5 4 4 2 1 3 7 7 10
9 11 13 12 12 12 10 6 3 1 5 7 6 13 14 12 10 20 13 5 8 3 9 16 5 5 8 10 18 7 5 3 3 4 6 12 10 4 5 5 2 3 7 9 13
10 10 11 12 12 9 7 4 2 2 6 7 8 12 5 10 9 13 13 6 9 7 4 5 18 12 4 3 3 7 7 4 4 5 5 8 9 1 6 3 3 5 10 13 17
8 9 8 10 11 5 2 2 2 4 4 7 9 10 5 14 7 15 13 8 5 7 4 5 6 10 11 15 9 14 13 5 8 7 4 2 6 5 8 10 7 6 9 13 19
9 6 7 9 8 5 2 3 1 3 4 8 9 4 5 8 7 9 8 4 3 7 6 8 5 9 3 2 9 6 8 11 6 2 2 4 2 7 8 10 14 18 16 16 19
8 7 13 8 8 6 4 3 2 3 5 3 4 4 6 8 8 10 4 4 9 4 2 4 5 2 8 8 4 1 4 4 2 7 8 6 4 5 7 9 11 14 17 18 19
6 5 9 7 7 7 3 1 3 6 8 5 3 7 7 6 4 6 5 13 5 13 5 5 1 11 3 2 5 3 1 3 4 1 5 5 3 8 6 6 10 12 16 15 17
5 3 6 7 5 3 2 2 5 5 8 5 4 7 8 6 5 5 6 5 19 10 8 2 2 4 11 4 2 3 1 3 4 5 1 1 4 11 4 6 10 14 19 17 13
5 4 5 4 3 2 4 3 4 2 4 3 4 6 3 6 5 8 8 10 15 8 3 5 1 3 6 4 9 5 5 4 3 2 3 3 3 4 9 15 19 17 19 20 13
4 2 4 6 4 2 2 3 4 6 9 7 8 10 11 10 9 7 8 7 14 14 18 4 5 5 5 9 3 6 5 4 2 1 1 7 12 14 15 14 16 24 19 19 13
4 2 3 2 3 2 2 3 6 5 5 5 4 8 9 5 7 13 13 13 14 8 5 3 10 10 12 9 7 7 9 7 10 8 7 12 11 17 20 16 19 21 22 17 18
4 4 3 0 2 3 2 1 7 6 4 7 8 12 9 8 5 15 5 3 5 3 1 1 8 3 8 6 9 12 11 12 15 13 15 18 20 24 25 20 20 19 21 16 10
6 7 3 1 1 0 1 2 9 15 9 11 12 7 11 10 10 21 21 17 15 9 10 3 3 4 13 7 7 8 19 17 16 15 14 15 19 16 17 13 15 21 15 8 6

GFSSW_850_spd_120.txt.gz
Wind_Speed
14 15 15 15 15 16 16 17 19 20 20 21 20 21 22 23 22 23 21 19 19 21 17 16 16 13 14 16 15 12 10 16 19 16 14 6 10 10 6 7 3 6 7 7 6
14 14 15 15 16 15 16 16 17 19 20 20 21 21 21 22 24 26 6 10 14 15 14 16 17 18 17 17 12 15 15 22 18 15 9 6 9 10 7 11 13 14 13 10 9
14 14 14 14 15 16 16 17 18 19 19 20 20 20 20 19 18 3 3 5 5 3 10 13 13 19 20 16 20 14 22 16 10 18 17 16 15 17 16 17 17 16 14 11 10
12 12 13 13 15 16 16 17 18 19 20 20 21 20 17 11 7 4 5 6 4 3 7 10 14 19 14 17 22 16 17 21 16 17 18 17 21 19 21 21 17 17 17 15 13
10 11 12 13 14 16 18 19 19 20 21 21 21 20 15 4 14 17 19 21 18 7 11 13 16 18 17 13 21 19 19 21 18 22 23 23 23 23 25 16 21 22 20 18 16
10 11 12 14 15 17 18 20 20 20 22 21 20 19 9 10 14 12 9 10 7 13 15 15 11 16 15 17 17 12 14 18 21 21 22 20 23 26 21 17 18 19 18 19 18
10 13 15 16 17 17 18 19 20 21 21 21 18 13 9 18 18 17 17 18 19 13 15 21 19 14 7 13 20 17 18 18 19 20 16 17 21 23 24 23 22 19 16 11 11
11 13 14 14 16 16 17 19 20 20 19 18 17 9 9 16 11 4 4 7 11 16 21 13 14 18 22 16 12 12 17 17 15 18 24 19 20 7 8 6 11 9 10 12 14
11 12 12 13 15 15 16 18 17 14 12 12 8 4 7 5 4 9 12 13 13 11 15 10 12 16 13 15 15 18 18 19 16 9 12 17 13 6 7 9 11 11 13 14 14
9 10 11 12 13 15 16 16 12 6 9 9 5 8 1 16 27 25 16 15 11 4 7 15 11 12 14 14 19 18 18 17 19 15 16 18 18 14 11 14 14 17 17 16 14
8 9 10 12 13 16 19 7 8 2 9 6 12 6 12 19 8 10 9 9 10 10 11 16 14 22 22 20 20 19 19 19 17 9 13 18 18 13 13 20 19 19 18 15 12
7 7 10 12 11 14 15 10 8 5 8 6 4 6 13 13 7 17 14 3 7 16 14 11 21 20 19 20 20 22 22 24 19 9 13 19 23 21 14 18 19 18 14 10 7
7 8 9 11 7 12 14 12 9 8 5 5 1 7 16 8 9 20 10 7 9 13 17 22 11 10 16 17 20 21 22 18 18 14 15 17 21 21 14 16 12 10 7 2 2
6 8 8 8 5 8 4 10 10 3 4 4 2 6 19 15 4 11 15 8 5 8 12 17 17 17 11 15 17 19 16 16 16 10 14 11 10 8 9 9 11 7 5 4 0
5 6 8 11 5 5 6 7 5 2 4 4 4 5 17 13 15 14 17 6 10 10 9 12 8 14 19 23 16 16 11 10 15 15 18 16 8 11 7 15 10 7 5 3 2
3 6 8 9 7 5 5 4 2 5 1 3 5 12 18 14 13 16 12 9 13 12 13 15 21 11 12 13 16 19 13 10 11 11 15 17 14 10 15 17 8 9 7 4 4
4 6 8 8 5 5 4 1 4 3 4 5 7 12 16 13 9 13 14 8 7 7 9 13 15 16 16 14 7 13 12 8 9 10 16 11 11 14 9 7 7 7 5 4 6
5 5 7 7 5 2 2 4 2 4 5 6 11 13 7 11 8 13 12 11 1 11 11 8 8 1 7 17 13 17 17 10 12 14 16 10 9 7 10 10 9 5 2 4 7
7 7 9 5 4 2 4 3 5 4 4 9 14 6 3 8 8 8 11 13 5 7 9 9 9 4 7 5 17 15 16 20 15 9 8 8 8 8 10 10 8 7 5 6 9
9 9 7 6 6 4 1 5 2 3 6 5 5 2 9 11 9 9 7 6 8 6 12 6 11 4 2 12 6 13 12 14 10 17 21 18 17 9 16 10 7 8 9 9 10
8 5 4 6 8 7 3 4 1 1 7 4 5 9 9 10 7 10 6 13 5 11 13 11 8 14 7 4 4 5 8 5 9 15 16 16 13 14 16 8 4 6 10 11 12
5 2 5 7 4 4 3 2 3 5 4 4 7 9 10 10 11 11 12 10 18 15 15 7 7 10 12 4 6 8 5 3 4 14 11 8 4 13 11 4 4 6 10 10 13
4 4 8 9 3 3 2 1 1 2 3 3 5 7 11 14 9 8 11 12 18 16 7 10 4 8 12 8 7 5 7 2 1 6 10 9 8 10 6 6 9 10 15 13 15
4 3 6 10 6 4 3 2 4 4 10 6 10 12 11 13 13 10 15 11 17 23 20 14 10 10 12 8 8 5 7 11 6 4 5 10 8 6 7 10 11 18 16 16 18
4 3 3 3 3 3 1 1 1 6 3 9 6 7 12 6 13 14 12 15 20 13 13 6 13 14 15 16 14 13 15 13 12 12 11 14 14 13 15 15 17 18 18 18 18
4 5 3 4 4 3 3 2 3 7 4 6 6 17 13 13 14 15 15 14 9 3 5 5 9 11 15 16 14 16 17 17 17 16 17 18 18 19 16 13 14 19 18 20 17
7 8 4 4 3 3 3 3 4 9 4 6 9 14 13 10 22 28 27 25 18 16 13 9 7 10 14 10 13 13 17 17 20 17 15 15 19 18 16 16 19 21 20 18 10

GFSSW_850_spd_123.txt.gz
Wind_Speed
12 13 13 13 13 13 14 15 15 15 16 17 18 19 19 21 22 19 18 17 15 21 17 12 14 18 18 25 25 20 15 20 23 23 15 16 7 13 15 16 9 14 15 7 3
12 11 10 11 12 13 13 14 15 16 16 17 18 19 19 20 22 24 18 15 12 15 13 16 18 19 24 20 27 20 16 26 21 19 15 13 6 13 11 16 17 16 15 14 11
11 11 10 10 10 11 12 13 14 15 16 17 18 18 17 17 17 1 4 4 7 7 6 12 18 20 25 26 26 25 25 22 20 23 17 18 15 17 17 17 18 19 20 20 15
11 10 9 9 10 12 13 14 15 16 16 16 17 17 16 11 6 3 10 13 15 9 8 11 17 22 22 24 29 26 28 25 26 29 14 21 26 22 24 24 24 23 17 16 18
8 8 8 10 12 14 15 16 17 18 18 19 19 17 13 7 18 15 17 15 12 12 12 13 17 21 22 20 26 25 23 29 25 24 26 25 25 25 30 26 23 24 25 21 21
6 7 8 10 12 14 15 16 18 18 18 18 18 15 9 16 8 8 13 11 10 11 17 17 18 20 24 22 23 24 24 28 28 31 26 25 27 30 32 27 27 27 29 27 24
7 9 10 12 14 15 16 18 19 20 20 18 15 11 11 18 13 12 14 16 15 16 17 19 21 22 15 19 26 26 23 23 22 22 20 21 27 29 30 29 30 29 24 22 22
9 10 11 12 14 15 16 17 18 18 15 13 11 2 9 8 9 5 6 10 7 10 18 22 18 25 29 27 31 18 20 22 22 24 25 22 30 23 28 25 28 28 28 20 19
8 8 10 11 13 12 13 13 13 12 5 9 6 3 5 6 3 13 17 20 18 15 12 15 17 23 21 20 20 21 22 24 22 21 19 20 29 22 30 17 18 15 17 21 18
8 8 9 10 11 11 11 9 10 3 12 5 2 5 2 12 19 12 14 12 15 15 9 12 14 16 17 16 21 19 22 22 23 19 17 19 26 17 18 16 15 19 19 16 17
6 8 9 9 9 10 10 6 5 3 4 2 4 3 9 14 5 8 12 7 11 13 14 17 14 19 21 23 26 24 24 24 22 14 15 22 18 19 20 22 20 21 18 19 19
6 8 8 7 6 9 9 5 4 4 4 1 2 5 8 9 8 11 12 6 7 13 15 15 19 18 20 23 24 25 24 26 25 21 17 18 22 20 21 17 19 24 22 21 17
7 6 6 4 1 7 10 5 4 3 7 5 2 5 10 11 7 16 16 13 11 12 14 21 23 11 14 20 24 24 25 23 24 19 15 20 24 24 26 26 26 23 22 15 10
6 3 3 1 3 2 2 6 7 1 5 8 4 2 12 15 6 15 15 13 12 13 13 15 15 22 24 20 18 21 20 23 22 17 18 22 21 23 21 20 20 24 17 12 13
4 2 0 2 3 1 5 7 5 1 5 4 6 3 14 7 16 9 19 12 15 16 13 19 20 12 19 22 20 22 16 14 13 16 19 24 16 17 12 15 12 15 15 13 8
3 2 0 3 1 3 4 3 0 6 2 4 2 8 13 16 14 12 17 15 19 20 17 24 25 19 19 17 18 20 23 19 15 15 16 27 22 19 15 18 18 14 14 11 9
3 2 2 2 4 5 2 1 6 3 1 4 5 10 15 9 12 11 17 13 12 12 16 20 19 17 21 19 17 15 14 11 10 12 20 20 20 17 10 15 19 16 12 8 6
4 4 4 2 1 3 1 6 4 6 5 6 9 15 9 9 8 14 14 13 13 9 12 15 17 7 9 15 16 20 17 12 15 13 16 24 16 16 22 7 12 14 10 7 5
7 3 1 2 0 1 5 3 6 5 4 8 14 7 4 7 9 14 11 15 10 10 13 13 19 7 7 8 10 12 15 20 22 20 10 10 16 6 9 14 11 13 11 5 4
4 5 2 2 3 1 2 4 1 3 6 6 7 3 10 14 12 11 11 9 11 12 13 16 19 18 19 10 12 7 14 10 8 6 19 15 14 8 17 15 13 11 7 4 1
6 4 4 6 8 1 2 5 2 1 5 5 8 12 14 15 12 13 12 12 10 10 13 17 17 19 21 14 11 1 11 13 11 10 12 15 13 16 18 16 13 10 4 0 5
3 2 3 7 1 0 4 3 0 2 1 3 5 10 11 13 15 17 18 16 17 14 16 17 8 12 20 11 4 6 5 2 6 17 14 16 8 16 20 14 11 9 2 3 7
5 4 4 4 2 4 4 3 1 2 2 3 8 9 11 15 16 13 15 14 14 14 9 10 6 9 14 16 9 2 3 2 6 3 10 13 5 11 9 14 11 3 3 6 9
4 2 3 5 5 6 3 2 1 1 6 5 9 13 12 13 14 9 15 10 13 18 21 10 15 16 12 15 5 14 6 10 7 7 8 8 7 2 6 13 1 4 9 10 11
3 1 1 4 3 4 2 4 2 3 2 8 5 6 14 8 15 13 16 17 19 24 13 14 16 17 17 22 21 17 16 12 10 13 14 16 7 11 14 9 10 10 10 14 13
3 4 2 8 6 4 3 3 1 4 1 5 7 12 13 10 7 15 19 17 11 13 10 8 8 16 17 18 21 21 20 15 15 14 17 18 19 14 15 9 11 14 15 17 18
3 5 5 5 4 5 4 3 2 4 3 5 7 11 12 14 24 28 27 26 20 17 16 14 12 12 16 16 14 14 17 18 18 16 14 16 17 16 14 13 15 18 19 21 20

GFSSW_850_spd_126.txt.gz
Wind_Speed
12 11 11 11 11 11 11 12 12 13 14 15 16 17 18 20 21 19 17 15 16 18 18 18 15 15 17 23 24 24 15 17 24 24 22 28 20 7 9 15 18 13 17 4 8
11 11 11 12 12 13 13 13 13 13 14 14 15 15 16 18 22 24 19 20 19 12 13 13 16 18 22 22 27 20 17 25 22 22 21 25 19 7 12 16 22 15 16 18 6
9 9 9 9 9 10 10 11 12 13 14 15 16 16 15 17 19 3 1 2 5 12 12 9 14 20 25 27 29 28 25 22 26 30 27 25 26 13 14 14 16 20 19 21 22
9 8 8 8 10 11 12 13 14 15 16 17 17 17 15 12 6 1 12 16 19 18 11 12 13 19 20 22 29 27 31 31 28 30 31 23 26 24 21 20 21 20 17 21 25
8 8 8 9 11 12 13 15 16 17 18 18 19 18 15 9 17 11 10 11 10 10 11 14 17 18 20 20 27 26 26 35 32 31 29 30 24 24 28 28 25 25 26 28 19
7 7 9 10 12 13 14 16 18 19 19 18 17 15 11 13 4 7 11 11 11 12 15 15 19 20 25 24 21 27 30 29 32 32 31 24 24 25 32 29 33 31 28 24 27
8 8 10 11 12 13 15 17 18 18 17 14 11 9 9 19 15 14 14 13 13 13 17 17 17 23 23 21 25 28 27 24 24 27 23 24 27 29 31 33 36 35 32 30 28
9 9 10 11 12 13 14 16 18 15 12 7 6 2 8 5 6 5 8 12 12 9 10 14 19 22 22 23 29 26 22 19 20 24 27 24 29 23 32 34 35 35 33 31 30
9 10 10 11 12 12 13 14 14 10 10 6 6 2 4 8 6 17 13 15 17 18 16 13 15 21 20 16 16 18 20 26 28 23 20 23 30 23 32 31 28 31 33 30 31
10 9 9 11 11 11 10 9 8 5 9 6 4 6 4 10 15 9 8 14 15 14 15 15 10 13 14 13 19 19 20 22 24 21 21 21 20 21 17 29 25 21 20 17 15
10 9 8 9 9 8 8 6 3 1 4 5 3 5 6 11 7 7 11 11 5 11 13 15 13 12 17 20 25 25 25 28 25 21 20 10 18 24 22 21 19 15 15 19 19
10 7 7 7 6 5 7 5 6 4 6 4 3 4 4 6 11 10 14 11 12 12 12 12 16 19 19 20 23 25 26 27 23 22 18 10 22 22 24 23 20 24 22 24 19
9 6 6 5 2 4 8 6 5 5 5 11 8 5 6 9 11 8 13 16 14 15 13 14 18 20 22 21 19 21 24 23 25 23 17 13 24 24 23 27 30 33 32 21 21
8 6 5 2 4 3 1 6 6 2 4 10 8 4 5 12 6 10 7 16 16 17 18 16 16 16 17 24 22 24 19 23 21 18 15 15 18 21 18 20 21 30 34 21 13
8 6 5 7 6 1 3 6 5 3 3 3 6 2 8 7 11 2 16 16 17 19 17 21 21 21 23 23 17 25 20 20 17 17 18 21 14 18 16 24 26 23 38 23 17
9 7 5 1 1 3 5 3 2 4 3 6 2 4 9 14 6 16 12 17 19 19 19 24 26 21 25 26 23 19 17 20 19 13 14 22 16 22 16 20 9 13 7 19 20
9 8 8 6 1 7 3 1 5 5 4 5 2 8 12 12 10 9 15 14 12 14 16 17 17 20 25 21 19 25 16 11 6 10 17 9 13 23 14 19 11 10 18 19 18
8 7 3 1 3 1 1 5 7 5 3 4 5 12 14 4 6 10 16 13 16 15 15 15 16 16 15 14 11 17 8 12 21 13 16 14 13 20 21 18 5 17 27 19 15
8 3 3 7 3 2 5 8 6 4 3 6 11 8 5 3 12 13 12 13 12 15 12 16 19 21 24 18 7 9 11 13 18 21 13 10 20 15 10 11 10 17 22 17 15
7 2 2 4 2 0 5 3 1 2 3 4 4 2 8 12 12 13 13 11 13 13 13 16 17 19 23 25 17 14 13 7 6 4 13 15 19 4 10 11 16 13 12 13 11
10 3 4 5 1 4 3 4 2 3 4 4 6 9 10 12 13 15 15 17 16 11 17 16 13 20 21 18 16 4 7 8 7 6 8 12 12 12 4 12 10 15 15 11 9
2 1 2 3 3 4 2 3 1 1 2 1 3 6 9 12 14 16 17 16 16 16 13 15 11 14 20 23 3 7 8 2 2 6 9 13 14 6 9 17 16 12 9 9 1
5 4 6 1 1 3 2 3 2 2 3 4 5 7 8 12 11 10 15 20 23 21 6 7 5 6 12 10 3 6 15 5 6 4 8 3 3 18 7 5 9 9 3 1 1
3 2 3 4 1 6 3 2 2 2 3 3 6 8 8 12 13 8 11 7 14 8 25 25 16 17 14 18 5 10 14 10 4 4 11 8 15 11 17 8 10 18 4 7 9
3 3 3 3 2 3 4 5 3 1 0 5 3 6 9 6 13 9 16 16 19 13 17 12 12 16 19 20 21 17 16 16 12 11 11 15 13 8 4 7 24 34 3 4 8
4 3 3 8 6 6 1 3 2 4 2 5 5 10 10 10 7 15 18 17 17 13 7 3 2 6 13 21 17 17 19 18 17 14 14 12 15 17 15 5 12 14 9 10 11
1 1 4 5 6 4 4 3 5 4 4 4 6 8 11 13 21 25 26 27 20 17 14 11 9 11 9 15 20 15 13 16 15 13 12 9 11 15 11 8 18 22 20 18 19